<?xml version="1.0" encoding="UTF-8" standalone="no" ?>
<gpx xmlns="http://www.topografix.com/GPX/1/1" xmlns:xsi="http://www.w3.org/2001/XMLSchema-instance" xsi:schemaLocation="http://www.topografix.com/GPX/1/1 http://www.topografix.com/GPX/1/1/gpx.xsd" version="1.1" creator="VisuGPX - https://www.visugpx.com">
  <metadata>
    <name>Autour de St Martin en Haut</name>
    <desc><![CDATA[Chemin de St Jacques de Compostelle]]></desc>
  </metadata>
  <trk>
    <name><![CDATA[07/05/2012 St Martin en haut]]></name>
    <desc><![CDATA[]]></desc>
    <trkseg>
      <trkpt lat="45.71802" lon="4.5477">
        <ele>772</ele>
        <time>2012-05-08T08:40:39.000Z</time>
      </trkpt>
      <trkpt lat="45.71802" lon="4.5477">
        <ele>772</ele>
        <time>2012-05-08T08:40:39.000Z</time>
      </trkpt>
      <trkpt lat="45.71802" lon="4.5477">
        <ele>772</ele>
        <time>2012-05-08T08:41:01.000Z</time>
      </trkpt>
      <trkpt lat="45.71797" lon="4.54774">
        <ele>766</ele>
        <time>2012-05-08T08:41:02.000Z</time>
      </trkpt>
      <trkpt lat="45.718" lon="4.54769">
        <ele>766</ele>
        <time>2012-05-08T08:41:12.000Z</time>
      </trkpt>
      <trkpt lat="45.71802" lon="4.54763">
        <ele>766</ele>
        <time>2012-05-08T08:41:20.000Z</time>
      </trkpt>
      <trkpt lat="45.71803" lon="4.54755">
        <ele>766</ele>
        <time>2012-05-08T08:41:25.000Z</time>
      </trkpt>
      <trkpt lat="45.71804" lon="4.54745">
        <ele>766</ele>
        <time>2012-05-08T08:41:29.000Z</time>
      </trkpt>
      <trkpt lat="45.71805" lon="4.54738">
        <ele>766</ele>
        <time>2012-05-08T08:41:31.000Z</time>
      </trkpt>
      <trkpt lat="45.71806" lon="4.54729">
        <ele>766</ele>
        <time>2012-05-08T08:41:33.000Z</time>
      </trkpt>
      <trkpt lat="45.71807" lon="4.54721">
        <ele>766</ele>
        <time>2012-05-08T08:41:35.000Z</time>
      </trkpt>
      <trkpt lat="45.71808" lon="4.54714">
        <ele>766</ele>
        <time>2012-05-08T08:41:37.000Z</time>
      </trkpt>
      <trkpt lat="45.71809" lon="4.54708">
        <ele>766</ele>
        <time>2012-05-08T08:41:39.000Z</time>
      </trkpt>
      <trkpt lat="45.7181" lon="4.54699">
        <ele>766</ele>
        <time>2012-05-08T08:41:42.000Z</time>
      </trkpt>
      <trkpt lat="45.71812" lon="4.54691">
        <ele>766</ele>
        <time>2012-05-08T08:41:45.000Z</time>
      </trkpt>
      <trkpt lat="45.71813" lon="4.54683">
        <ele>766</ele>
        <time>2012-05-08T08:41:48.000Z</time>
      </trkpt>
      <trkpt lat="45.71814" lon="4.54675">
        <ele>766</ele>
        <time>2012-05-08T08:41:51.000Z</time>
      </trkpt>
      <trkpt lat="45.71815" lon="4.54667">
        <ele>766</ele>
        <time>2012-05-08T08:41:54.000Z</time>
      </trkpt>
      <trkpt lat="45.71817" lon="4.54659">
        <ele>766</ele>
        <time>2012-05-08T08:41:58.000Z</time>
      </trkpt>
      <trkpt lat="45.7182" lon="4.54654">
        <ele>766</ele>
        <time>2012-05-08T08:42:04.000Z</time>
      </trkpt>
      <trkpt lat="45.7182" lon="4.54647">
        <ele>766</ele>
        <time>2012-05-08T08:42:17.000Z</time>
      </trkpt>
      <trkpt lat="45.7182" lon="4.54639">
        <ele>766</ele>
        <time>2012-05-08T08:42:23.000Z</time>
      </trkpt>
      <trkpt lat="45.7182" lon="4.54632">
        <ele>766</ele>
        <time>2012-05-08T08:42:28.000Z</time>
      </trkpt>
      <trkpt lat="45.71819" lon="4.54624">
        <ele>766</ele>
        <time>2012-05-08T08:42:33.000Z</time>
      </trkpt>
      <trkpt lat="45.71818" lon="4.54617">
        <ele>766</ele>
        <time>2012-05-08T08:42:38.000Z</time>
      </trkpt>
      <trkpt lat="45.71818" lon="4.5461">
        <ele>766</ele>
        <time>2012-05-08T08:42:43.000Z</time>
      </trkpt>
      <trkpt lat="45.71819" lon="4.54603">
        <ele>766</ele>
        <time>2012-05-08T08:42:48.000Z</time>
      </trkpt>
      <trkpt lat="45.7182" lon="4.54595">
        <ele>766</ele>
        <time>2012-05-08T08:42:53.000Z</time>
      </trkpt>
      <trkpt lat="45.71821" lon="4.54588">
        <ele>766</ele>
        <time>2012-05-08T08:42:58.000Z</time>
      </trkpt>
      <trkpt lat="45.71822" lon="4.54581">
        <ele>766</ele>
        <time>2012-05-08T08:43:02.000Z</time>
      </trkpt>
      <trkpt lat="45.71824" lon="4.54575">
        <ele>765</ele>
        <time>2012-05-08T08:43:06.000Z</time>
      </trkpt>
      <trkpt lat="45.71825" lon="4.54567">
        <ele>765</ele>
        <time>2012-05-08T08:43:11.000Z</time>
      </trkpt>
      <trkpt lat="45.71826" lon="4.5456">
        <ele>765</ele>
        <time>2012-05-08T08:43:15.000Z</time>
      </trkpt>
      <trkpt lat="45.71827" lon="4.54552">
        <ele>765</ele>
        <time>2012-05-08T08:43:19.000Z</time>
      </trkpt>
      <trkpt lat="45.71828" lon="4.54545">
        <ele>765</ele>
        <time>2012-05-08T08:43:23.000Z</time>
      </trkpt>
      <trkpt lat="45.71829" lon="4.54537">
        <ele>765</ele>
        <time>2012-05-08T08:43:27.000Z</time>
      </trkpt>
      <trkpt lat="45.71829" lon="4.5453">
        <ele>765</ele>
        <time>2012-05-08T08:43:31.000Z</time>
      </trkpt>
      <trkpt lat="45.71828" lon="4.54522">
        <ele>765</ele>
        <time>2012-05-08T08:43:35.000Z</time>
      </trkpt>
      <trkpt lat="45.71827" lon="4.54514">
        <ele>765</ele>
        <time>2012-05-08T08:43:39.000Z</time>
      </trkpt>
      <trkpt lat="45.71825" lon="4.54508">
        <ele>765</ele>
        <time>2012-05-08T08:43:42.000Z</time>
      </trkpt>
      <trkpt lat="45.71823" lon="4.545">
        <ele>765</ele>
        <time>2012-05-08T08:43:46.000Z</time>
      </trkpt>
      <trkpt lat="45.71821" lon="4.54492">
        <ele>765</ele>
        <time>2012-05-08T08:43:50.000Z</time>
      </trkpt>
      <trkpt lat="45.71818" lon="4.54486">
        <ele>765</ele>
        <time>2012-05-08T08:43:54.000Z</time>
      </trkpt>
      <trkpt lat="45.71815" lon="4.5448">
        <ele>765</ele>
        <time>2012-05-08T08:43:58.000Z</time>
      </trkpt>
      <trkpt lat="45.71812" lon="4.54474">
        <ele>765</ele>
        <time>2012-05-08T08:44:02.000Z</time>
      </trkpt>
      <trkpt lat="45.7181" lon="4.54468">
        <ele>765</ele>
        <time>2012-05-08T08:44:06.000Z</time>
      </trkpt>
      <trkpt lat="45.71807" lon="4.54463">
        <ele>765</ele>
        <time>2012-05-08T08:44:10.000Z</time>
      </trkpt>
      <trkpt lat="45.71803" lon="4.54457">
        <ele>765</ele>
        <time>2012-05-08T08:44:15.000Z</time>
      </trkpt>
      <trkpt lat="45.71801" lon="4.5445">
        <ele>765</ele>
        <time>2012-05-08T08:44:20.000Z</time>
      </trkpt>
      <trkpt lat="45.71798" lon="4.54444">
        <ele>765</ele>
        <time>2012-05-08T08:44:26.000Z</time>
      </trkpt>
      <trkpt lat="45.71794" lon="4.54439">
        <ele>765</ele>
        <time>2012-05-08T08:44:32.000Z</time>
      </trkpt>
      <trkpt lat="45.71791" lon="4.54434">
        <ele>765</ele>
        <time>2012-05-08T08:44:38.000Z</time>
      </trkpt>
      <trkpt lat="45.71787" lon="4.5443">
        <ele>764</ele>
        <time>2012-05-08T08:44:44.000Z</time>
      </trkpt>
      <trkpt lat="45.71783" lon="4.54427">
        <ele>764</ele>
        <time>2012-05-08T08:44:50.000Z</time>
      </trkpt>
      <trkpt lat="45.71778" lon="4.54425">
        <ele>764</ele>
        <time>2012-05-08T08:44:56.000Z</time>
      </trkpt>
      <trkpt lat="45.71773" lon="4.54424">
        <ele>764</ele>
        <time>2012-05-08T08:45:00.000Z</time>
      </trkpt>
      <trkpt lat="45.71768" lon="4.54424">
        <ele>764</ele>
        <time>2012-05-08T08:45:04.000Z</time>
      </trkpt>
      <trkpt lat="45.71764" lon="4.54424">
        <ele>764</ele>
        <time>2012-05-08T08:45:08.000Z</time>
      </trkpt>
      <trkpt lat="45.71759" lon="4.54424">
        <ele>764</ele>
        <time>2012-05-08T08:45:12.000Z</time>
      </trkpt>
      <trkpt lat="45.71754" lon="4.54424">
        <ele>764</ele>
        <time>2012-05-08T08:45:17.000Z</time>
      </trkpt>
      <trkpt lat="45.71748" lon="4.54424">
        <ele>764</ele>
        <time>2012-05-08T08:45:22.000Z</time>
      </trkpt>
      <trkpt lat="45.71743" lon="4.54424">
        <ele>764</ele>
        <time>2012-05-08T08:45:28.000Z</time>
      </trkpt>
      <trkpt lat="45.71738" lon="4.54422">
        <ele>764</ele>
        <time>2012-05-08T08:45:34.000Z</time>
      </trkpt>
      <trkpt lat="45.71733" lon="4.5442">
        <ele>764</ele>
        <time>2012-05-08T08:45:40.000Z</time>
      </trkpt>
      <trkpt lat="45.71728" lon="4.54418">
        <ele>764</ele>
        <time>2012-05-08T08:45:46.000Z</time>
      </trkpt>
      <trkpt lat="45.71723" lon="4.54416">
        <ele>764</ele>
        <time>2012-05-08T08:45:52.000Z</time>
      </trkpt>
      <trkpt lat="45.71718" lon="4.54414">
        <ele>764</ele>
        <time>2012-05-08T08:45:58.000Z</time>
      </trkpt>
      <trkpt lat="45.71714" lon="4.54411">
        <ele>764</ele>
        <time>2012-05-08T08:46:04.000Z</time>
      </trkpt>
      <trkpt lat="45.71709" lon="4.54408">
        <ele>764</ele>
        <time>2012-05-08T08:46:11.000Z</time>
      </trkpt>
      <trkpt lat="45.71704" lon="4.54405">
        <ele>764</ele>
        <time>2012-05-08T08:46:18.000Z</time>
      </trkpt>
      <trkpt lat="45.717" lon="4.54403">
        <ele>765</ele>
        <time>2012-05-08T08:46:24.000Z</time>
      </trkpt>
      <trkpt lat="45.71695" lon="4.54401">
        <ele>765</ele>
        <time>2012-05-08T08:46:30.000Z</time>
      </trkpt>
      <trkpt lat="45.7169" lon="4.54398">
        <ele>765</ele>
        <time>2012-05-08T08:46:36.000Z</time>
      </trkpt>
      <trkpt lat="45.71686" lon="4.54396">
        <ele>765</ele>
        <time>2012-05-08T08:46:44.000Z</time>
      </trkpt>
      <trkpt lat="45.71681" lon="4.54393">
        <ele>765</ele>
        <time>2012-05-08T08:46:54.000Z</time>
      </trkpt>
      <trkpt lat="45.71677" lon="4.54389">
        <ele>765</ele>
        <time>2012-05-08T08:47:01.000Z</time>
      </trkpt>
      <trkpt lat="45.71673" lon="4.54386">
        <ele>765</ele>
        <time>2012-05-08T08:47:07.000Z</time>
      </trkpt>
      <trkpt lat="45.71669" lon="4.54382">
        <ele>765</ele>
        <time>2012-05-08T08:47:13.000Z</time>
      </trkpt>
      <trkpt lat="45.71664" lon="4.54378">
        <ele>765</ele>
        <time>2012-05-08T08:47:20.000Z</time>
      </trkpt>
      <trkpt lat="45.7166" lon="4.54374">
        <ele>765</ele>
        <time>2012-05-08T08:47:26.000Z</time>
      </trkpt>
      <trkpt lat="45.71657" lon="4.54369">
        <ele>765</ele>
        <time>2012-05-08T08:47:33.000Z</time>
      </trkpt>
      <trkpt lat="45.71655" lon="4.54363">
        <ele>765</ele>
        <time>2012-05-08T08:47:42.000Z</time>
      </trkpt>
      <trkpt lat="45.71652" lon="4.54357">
        <ele>765</ele>
        <time>2012-05-08T08:47:48.999Z</time>
      </trkpt>
      <trkpt lat="45.71649" lon="4.54352">
        <ele>765</ele>
        <time>2012-05-08T08:47:54.999Z</time>
      </trkpt>
      <trkpt lat="45.71645" lon="4.54347">
        <ele>765</ele>
        <time>2012-05-08T08:48:01.999Z</time>
      </trkpt>
      <trkpt lat="45.71642" lon="4.54342">
        <ele>765</ele>
        <time>2012-05-08T08:48:07.999Z</time>
      </trkpt>
      <trkpt lat="45.7164" lon="4.54336">
        <ele>765</ele>
        <time>2012-05-08T08:48:14.999Z</time>
      </trkpt>
      <trkpt lat="45.71636" lon="4.5433">
        <ele>765</ele>
        <time>2012-05-08T08:48:21.999Z</time>
      </trkpt>
      <trkpt lat="45.71633" lon="4.54325">
        <ele>765</ele>
        <time>2012-05-08T08:48:29.999Z</time>
      </trkpt>
      <trkpt lat="45.71631" lon="4.54319">
        <ele>765</ele>
        <time>2012-05-08T08:48:37.999Z</time>
      </trkpt>
      <trkpt lat="45.71628" lon="4.54313">
        <ele>765</ele>
        <time>2012-05-08T08:48:45.999Z</time>
      </trkpt>
      <trkpt lat="45.71626" lon="4.54307">
        <ele>765</ele>
        <time>2012-05-08T08:48:53.999Z</time>
      </trkpt>
      <trkpt lat="45.71624" lon="4.54301">
        <ele>765</ele>
        <time>2012-05-08T08:49:00.999Z</time>
      </trkpt>
      <trkpt lat="45.71621" lon="4.54297">
        <ele>765</ele>
        <time>2012-05-08T08:49:07.999Z</time>
      </trkpt>
      <trkpt lat="45.71616" lon="4.54292">
        <ele>766</ele>
        <time>2012-05-08T08:49:14.999Z</time>
      </trkpt>
      <trkpt lat="45.71613" lon="4.54288">
        <ele>766</ele>
        <time>2012-05-08T08:49:21.999Z</time>
      </trkpt>
      <trkpt lat="45.71608" lon="4.54287">
        <ele>766</ele>
        <time>2012-05-08T08:49:28.999Z</time>
      </trkpt>
      <trkpt lat="45.71604" lon="4.54284">
        <ele>766</ele>
        <time>2012-05-08T08:49:36.999Z</time>
      </trkpt>
      <trkpt lat="45.71599" lon="4.54283">
        <ele>766</ele>
        <time>2012-05-08T08:49:45.999Z</time>
      </trkpt>
      <trkpt lat="45.71594" lon="4.54282">
        <ele>766</ele>
        <time>2012-05-08T08:49:55.999Z</time>
      </trkpt>
      <trkpt lat="45.71589" lon="4.54281">
        <ele>766</ele>
        <time>2012-05-08T08:50:05.999Z</time>
      </trkpt>
      <trkpt lat="45.71585" lon="4.54281">
        <ele>766</ele>
        <time>2012-05-08T08:50:14.999Z</time>
      </trkpt>
      <trkpt lat="45.7158" lon="4.54282">
        <ele>766</ele>
        <time>2012-05-08T08:50:23.999Z</time>
      </trkpt>
      <trkpt lat="45.71576" lon="4.54285">
        <ele>766</ele>
        <time>2012-05-08T08:50:37.999Z</time>
      </trkpt>
      <trkpt lat="45.71572" lon="4.54289">
        <ele>766</ele>
        <time>2012-05-08T08:50:46.999Z</time>
      </trkpt>
      <trkpt lat="45.71568" lon="4.54293">
        <ele>766</ele>
        <time>2012-05-08T08:50:51.999Z</time>
      </trkpt>
      <trkpt lat="45.71564" lon="4.54298">
        <ele>766</ele>
        <time>2012-05-08T08:50:57.999Z</time>
      </trkpt>
      <trkpt lat="45.71561" lon="4.54304">
        <ele>766</ele>
        <time>2012-05-08T08:51:03.999Z</time>
      </trkpt>
      <trkpt lat="45.71558" lon="4.54309">
        <ele>767</ele>
        <time>2012-05-08T08:51:10.999Z</time>
      </trkpt>
      <trkpt lat="45.71556" lon="4.54315">
        <ele>767</ele>
        <time>2012-05-08T08:51:21.999Z</time>
      </trkpt>
      <trkpt lat="45.71554" lon="4.54322">
        <ele>767</ele>
        <time>2012-05-08T08:51:29.999Z</time>
      </trkpt>
      <trkpt lat="45.71553" lon="4.54329">
        <ele>767</ele>
        <time>2012-05-08T08:51:37.999Z</time>
      </trkpt>
      <trkpt lat="45.71553" lon="4.54335">
        <ele>767</ele>
        <time>2012-05-08T08:51:43.999Z</time>
      </trkpt>
      <trkpt lat="45.71552" lon="4.54342">
        <ele>768</ele>
        <time>2012-05-08T08:51:50.999Z</time>
      </trkpt>
      <trkpt lat="45.71552" lon="4.54349">
        <ele>768</ele>
        <time>2012-05-08T08:51:58.999Z</time>
      </trkpt>
      <trkpt lat="45.71553" lon="4.54356">
        <ele>769</ele>
        <time>2012-05-08T08:52:07.999Z</time>
      </trkpt>
      <trkpt lat="45.71556" lon="4.54362">
        <ele>769</ele>
        <time>2012-05-08T08:52:18.999Z</time>
      </trkpt>
      <trkpt lat="45.71558" lon="4.54367">
        <ele>769</ele>
        <time>2012-05-08T08:52:28.999Z</time>
      </trkpt>
      <trkpt lat="45.7156" lon="4.54374">
        <ele>769</ele>
        <time>2012-05-08T08:52:35.999Z</time>
      </trkpt>
      <trkpt lat="45.71561" lon="4.54381">
        <ele>769</ele>
        <time>2012-05-08T08:52:41.999Z</time>
      </trkpt>
      <trkpt lat="45.71561" lon="4.54387">
        <ele>770</ele>
        <time>2012-05-08T08:52:46.999Z</time>
      </trkpt>
      <trkpt lat="45.71562" lon="4.54395">
        <ele>770</ele>
        <time>2012-05-08T08:52:51.999Z</time>
      </trkpt>
      <trkpt lat="45.71562" lon="4.54403">
        <ele>771</ele>
        <time>2012-05-08T08:52:56.999Z</time>
      </trkpt>
      <trkpt lat="45.71562" lon="4.5441">
        <ele>771</ele>
        <time>2012-05-08T08:53:02.999Z</time>
      </trkpt>
      <trkpt lat="45.71563" lon="4.54416">
        <ele>771</ele>
        <time>2012-05-08T08:53:11.999Z</time>
      </trkpt>
      <trkpt lat="45.71564" lon="4.54423">
        <ele>771</ele>
        <time>2012-05-08T08:53:19.999Z</time>
      </trkpt>
      <trkpt lat="45.71564" lon="4.5443">
        <ele>771</ele>
        <time>2012-05-08T08:53:24.999Z</time>
      </trkpt>
      <trkpt lat="45.71564" lon="4.54437">
        <ele>771</ele>
        <time>2012-05-08T08:53:29.999Z</time>
      </trkpt>
      <trkpt lat="45.71564" lon="4.54445">
        <ele>771</ele>
        <time>2012-05-08T08:53:34.999Z</time>
      </trkpt>
      <trkpt lat="45.71564" lon="4.54451">
        <ele>771</ele>
        <time>2012-05-08T08:53:41.999Z</time>
      </trkpt>
      <trkpt lat="45.71566" lon="4.54458">
        <ele>771</ele>
        <time>2012-05-08T08:53:47.999Z</time>
      </trkpt>
      <trkpt lat="45.71568" lon="4.54465">
        <ele>772</ele>
        <time>2012-05-08T08:53:52.999Z</time>
      </trkpt>
      <trkpt lat="45.7157" lon="4.54472">
        <ele>772</ele>
        <time>2012-05-08T08:53:57.999Z</time>
      </trkpt>
      <trkpt lat="45.71572" lon="4.54478">
        <ele>773</ele>
        <time>2012-05-08T08:54:03.999Z</time>
      </trkpt>
      <trkpt lat="45.71574" lon="4.54484">
        <ele>773</ele>
        <time>2012-05-08T08:54:13.999Z</time>
      </trkpt>
      <trkpt lat="45.71576" lon="4.5449">
        <ele>773</ele>
        <time>2012-05-08T08:54:20.999Z</time>
      </trkpt>
      <trkpt lat="45.71577" lon="4.54496">
        <ele>774</ele>
        <time>2012-05-08T08:54:25.999Z</time>
      </trkpt>
      <trkpt lat="45.71577" lon="4.54503">
        <ele>774</ele>
        <time>2012-05-08T08:54:31.999Z</time>
      </trkpt>
      <trkpt lat="45.71577" lon="4.5451">
        <ele>774</ele>
        <time>2012-05-08T08:54:37.999Z</time>
      </trkpt>
      <trkpt lat="45.71579" lon="4.54516">
        <ele>774</ele>
        <time>2012-05-08T08:54:48.999Z</time>
      </trkpt>
      <trkpt lat="45.7158" lon="4.54523">
        <ele>774</ele>
        <time>2012-05-08T08:54:55.999Z</time>
      </trkpt>
      <trkpt lat="45.71581" lon="4.5453">
        <ele>774</ele>
        <time>2012-05-08T08:55:01.999Z</time>
      </trkpt>
      <trkpt lat="45.71581" lon="4.54536">
        <ele>774</ele>
        <time>2012-05-08T08:55:07.999Z</time>
      </trkpt>
      <trkpt lat="45.71581" lon="4.54544">
        <ele>775</ele>
        <time>2012-05-08T08:55:13.999Z</time>
      </trkpt>
      <trkpt lat="45.7158" lon="4.54552">
        <ele>775</ele>
        <time>2012-05-08T08:55:18.999Z</time>
      </trkpt>
      <trkpt lat="45.7158" lon="4.54558">
        <ele>775</ele>
        <time>2012-05-08T08:55:22.999Z</time>
      </trkpt>
      <trkpt lat="45.7158" lon="4.54565">
        <ele>776</ele>
        <time>2012-05-08T08:55:26.999Z</time>
      </trkpt>
      <trkpt lat="45.71579" lon="4.54572">
        <ele>776</ele>
        <time>2012-05-08T08:55:30.999Z</time>
      </trkpt>
      <trkpt lat="45.71578" lon="4.54578">
        <ele>776</ele>
        <time>2012-05-08T08:55:34.999Z</time>
      </trkpt>
      <trkpt lat="45.71577" lon="4.54585">
        <ele>776</ele>
        <time>2012-05-08T08:55:38.999Z</time>
      </trkpt>
      <trkpt lat="45.71576" lon="4.54591">
        <ele>777</ele>
        <time>2012-05-08T08:55:42.999Z</time>
      </trkpt>
      <trkpt lat="45.71574" lon="4.54598">
        <ele>777</ele>
        <time>2012-05-08T08:55:47.999Z</time>
      </trkpt>
      <trkpt lat="45.71572" lon="4.54604">
        <ele>777</ele>
        <time>2012-05-08T08:55:55.999Z</time>
      </trkpt>
      <trkpt lat="45.71571" lon="4.54611">
        <ele>777</ele>
        <time>2012-05-08T08:56:03.999Z</time>
      </trkpt>
      <trkpt lat="45.7157" lon="4.54617">
        <ele>777</ele>
        <time>2012-05-08T08:56:10.999Z</time>
      </trkpt>
      <trkpt lat="45.71569" lon="4.54624">
        <ele>778</ele>
        <time>2012-05-08T08:56:17.999Z</time>
      </trkpt>
      <trkpt lat="45.71569" lon="4.54631">
        <ele>778</ele>
        <time>2012-05-08T08:56:22.999Z</time>
      </trkpt>
      <trkpt lat="45.7157" lon="4.54637">
        <ele>778</ele>
        <time>2012-05-08T08:56:26.999Z</time>
      </trkpt>
      <trkpt lat="45.7157" lon="4.54644">
        <ele>778</ele>
        <time>2012-05-08T08:56:30.999Z</time>
      </trkpt>
      <trkpt lat="45.7157" lon="4.5465">
        <ele>778</ele>
        <time>2012-05-08T08:56:37.999Z</time>
      </trkpt>
      <trkpt lat="45.71567" lon="4.54656">
        <ele>779</ele>
        <time>2012-05-08T08:56:48.999Z</time>
      </trkpt>
      <trkpt lat="45.71567" lon="4.54662">
        <ele>779</ele>
        <time>2012-05-08T08:56:58.999Z</time>
      </trkpt>
      <trkpt lat="45.71565" lon="4.5467">
        <ele>779</ele>
        <time>2012-05-08T08:57:06.999Z</time>
      </trkpt>
      <trkpt lat="45.71567" lon="4.54676">
        <ele>780</ele>
        <time>2012-05-08T08:57:20.999Z</time>
      </trkpt>
      <trkpt lat="45.71565" lon="4.54682">
        <ele>780</ele>
        <time>2012-05-08T08:57:25.999Z</time>
      </trkpt>
      <trkpt lat="45.71563" lon="4.54689">
        <ele>780</ele>
        <time>2012-05-08T08:57:31.999Z</time>
      </trkpt>
      <trkpt lat="45.71561" lon="4.54695">
        <ele>781</ele>
        <time>2012-05-08T08:57:35.999Z</time>
      </trkpt>
      <trkpt lat="45.7156" lon="4.54701">
        <ele>781</ele>
        <time>2012-05-08T08:57:40.999Z</time>
      </trkpt>
      <trkpt lat="45.71561" lon="4.54708">
        <ele>781</ele>
        <time>2012-05-08T08:57:46.999Z</time>
      </trkpt>
      <trkpt lat="45.71562" lon="4.54715">
        <ele>781</ele>
        <time>2012-05-08T08:57:54.999Z</time>
      </trkpt>
      <trkpt lat="45.71562" lon="4.54722">
        <ele>782</ele>
        <time>2012-05-08T08:58:02.999Z</time>
      </trkpt>
      <trkpt lat="45.71562" lon="4.54729">
        <ele>782</ele>
        <time>2012-05-08T08:58:08.999Z</time>
      </trkpt>
      <trkpt lat="45.71561" lon="4.54736">
        <ele>782</ele>
        <time>2012-05-08T08:58:14.999Z</time>
      </trkpt>
      <trkpt lat="45.71558" lon="4.54741">
        <ele>783</ele>
        <time>2012-05-08T08:58:21.999Z</time>
      </trkpt>
      <trkpt lat="45.71557" lon="4.54748">
        <ele>783</ele>
        <time>2012-05-08T08:58:27.999Z</time>
      </trkpt>
      <trkpt lat="45.71556" lon="4.54754">
        <ele>783</ele>
        <time>2012-05-08T08:58:34.999Z</time>
      </trkpt>
      <trkpt lat="45.71557" lon="4.54761">
        <ele>784</ele>
        <time>2012-05-08T08:58:42.999Z</time>
      </trkpt>
      <trkpt lat="45.71556" lon="4.54767">
        <ele>785</ele>
        <time>2012-05-08T08:58:54.999Z</time>
      </trkpt>
      <trkpt lat="45.71561" lon="4.54771">
        <ele>787</ele>
        <time>2012-05-08T08:59:08.999Z</time>
      </trkpt>
      <trkpt lat="45.71565" lon="4.54772">
        <ele>788</ele>
        <time>2012-05-08T08:59:11.999Z</time>
      </trkpt>
      <trkpt lat="45.7157" lon="4.54773">
        <ele>789</ele>
        <time>2012-05-08T08:59:17.999Z</time>
      </trkpt>
      <trkpt lat="45.7157" lon="4.54781">
        <ele>796</ele>
        <time>2012-05-08T08:59:32.999Z</time>
      </trkpt>
      <trkpt lat="45.71574" lon="4.54783">
        <ele>796</ele>
        <time>2012-05-08T08:59:35.999Z</time>
      </trkpt>
      <trkpt lat="45.7158" lon="4.54786">
        <ele>796</ele>
        <time>2012-05-08T08:59:38.999Z</time>
      </trkpt>
      <trkpt lat="45.71584" lon="4.54791">
        <ele>798</ele>
        <time>2012-05-08T08:59:42.999Z</time>
      </trkpt>
      <trkpt lat="45.71586" lon="4.54796">
        <ele>800</ele>
        <time>2012-05-08T08:59:50.999Z</time>
      </trkpt>
      <trkpt lat="45.71584" lon="4.54802">
        <ele>802</ele>
        <time>2012-05-08T09:00:01.999Z</time>
      </trkpt>
      <trkpt lat="45.71468" lon="4.54872">
        <ele>802</ele>
        <time>2012-05-08T09:00:05.999Z</time>
      </trkpt>
      <trkpt lat="45.71464" lon="4.54868">
        <ele>801</ele>
        <time>2012-05-08T09:00:20.000Z</time>
      </trkpt>
      <trkpt lat="45.71462" lon="4.54875">
        <ele>801</ele>
        <time>2012-05-08T09:00:27.000Z</time>
      </trkpt>
      <trkpt lat="45.71461" lon="4.54882">
        <ele>801</ele>
        <time>2012-05-08T09:00:33.000Z</time>
      </trkpt>
      <trkpt lat="45.71461" lon="4.54889">
        <ele>801</ele>
        <time>2012-05-08T09:00:38.000Z</time>
      </trkpt>
      <trkpt lat="45.71461" lon="4.54896">
        <ele>802</ele>
        <time>2012-05-08T09:00:43.000Z</time>
      </trkpt>
      <trkpt lat="45.71462" lon="4.54902">
        <ele>803</ele>
        <time>2012-05-08T09:00:56.000Z</time>
      </trkpt>
      <trkpt lat="45.7146" lon="4.54909">
        <ele>803</ele>
        <time>2012-05-08T09:01:05.000Z</time>
      </trkpt>
      <trkpt lat="45.71458" lon="4.54917">
        <ele>804</ele>
        <time>2012-05-08T09:01:11.000Z</time>
      </trkpt>
      <trkpt lat="45.71456" lon="4.54923">
        <ele>804</ele>
        <time>2012-05-08T09:01:15.000Z</time>
      </trkpt>
      <trkpt lat="45.71454" lon="4.54928">
        <ele>804</ele>
        <time>2012-05-08T09:01:20.000Z</time>
      </trkpt>
      <trkpt lat="45.71453" lon="4.54935">
        <ele>804</ele>
        <time>2012-05-08T09:01:30.000Z</time>
      </trkpt>
      <trkpt lat="45.71454" lon="4.54944">
        <ele>805</ele>
        <time>2012-05-08T09:01:35.000Z</time>
      </trkpt>
      <trkpt lat="45.71454" lon="4.54952">
        <ele>805</ele>
        <time>2012-05-08T09:01:38.000Z</time>
      </trkpt>
      <trkpt lat="45.71453" lon="4.54959">
        <ele>805</ele>
        <time>2012-05-08T09:01:41.000Z</time>
      </trkpt>
      <trkpt lat="45.71456" lon="4.54964">
        <ele>807</ele>
        <time>2012-05-08T09:01:49.000Z</time>
      </trkpt>
      <trkpt lat="45.7146" lon="4.54965">
        <ele>807</ele>
        <time>2012-05-08T09:02:18.000Z</time>
      </trkpt>
      <trkpt lat="45.7146" lon="4.54958">
        <ele>808</ele>
        <time>2012-05-08T09:02:23.000Z</time>
      </trkpt>
      <trkpt lat="45.71458" lon="4.54951">
        <ele>808</ele>
        <time>2012-05-08T09:02:26.000Z</time>
      </trkpt>
      <trkpt lat="45.71457" lon="4.54945">
        <ele>808</ele>
        <time>2012-05-08T09:02:34.000Z</time>
      </trkpt>
      <trkpt lat="45.71452" lon="4.54946">
        <ele>809</ele>
        <time>2012-05-08T09:02:45.000Z</time>
      </trkpt>
      <trkpt lat="45.71447" lon="4.54947">
        <ele>809</ele>
        <time>2012-05-08T09:02:50.000Z</time>
      </trkpt>
      <trkpt lat="45.71442" lon="4.54948">
        <ele>809</ele>
        <time>2012-05-08T09:02:55.000Z</time>
      </trkpt>
      <trkpt lat="45.71438" lon="4.54948">
        <ele>809</ele>
        <time>2012-05-08T09:03:03.000Z</time>
      </trkpt>
      <trkpt lat="45.71442" lon="4.54946">
        <ele>810</ele>
        <time>2012-05-08T09:03:22.000Z</time>
      </trkpt>
      <trkpt lat="45.71446" lon="4.54944">
        <ele>811</ele>
        <time>2012-05-08T09:03:40.000Z</time>
      </trkpt>
      <trkpt lat="45.71451" lon="4.54942">
        <ele>812</ele>
        <time>2012-05-08T09:03:48.000Z</time>
      </trkpt>
      <trkpt lat="45.71455" lon="4.54942">
        <ele>814</ele>
        <time>2012-05-08T09:04:17.000Z</time>
      </trkpt>
      <trkpt lat="45.71454" lon="4.54948">
        <ele>819</ele>
        <time>2012-05-08T09:05:42.000Z</time>
      </trkpt>
      <trkpt lat="45.71451" lon="4.54954">
        <ele>819</ele>
        <time>2012-05-08T09:06:12.000Z</time>
      </trkpt>
      <trkpt lat="45.71447" lon="4.54957">
        <ele>820</ele>
        <time>2012-05-08T09:06:30.000Z</time>
      </trkpt>
      <trkpt lat="45.71443" lon="4.54961">
        <ele>820</ele>
        <time>2012-05-08T09:06:39.000Z</time>
      </trkpt>
      <trkpt lat="45.71439" lon="4.54965">
        <ele>820</ele>
        <time>2012-05-08T09:06:47.000Z</time>
      </trkpt>
      <trkpt lat="45.71436" lon="4.5497">
        <ele>820</ele>
        <time>2012-05-08T09:06:54.000Z</time>
      </trkpt>
      <trkpt lat="45.71434" lon="4.54976">
        <ele>820</ele>
        <time>2012-05-08T09:07:01.000Z</time>
      </trkpt>
      <trkpt lat="45.71432" lon="4.54982">
        <ele>820</ele>
        <time>2012-05-08T09:07:07.000Z</time>
      </trkpt>
      <trkpt lat="45.71429" lon="4.5499">
        <ele>820</ele>
        <time>2012-05-08T09:07:12.000Z</time>
      </trkpt>
      <trkpt lat="45.71427" lon="4.54996">
        <ele>820</ele>
        <time>2012-05-08T09:07:16.000Z</time>
      </trkpt>
      <trkpt lat="45.71424" lon="4.55002">
        <ele>820</ele>
        <time>2012-05-08T09:07:20.000Z</time>
      </trkpt>
      <trkpt lat="45.71421" lon="4.55008">
        <ele>820</ele>
        <time>2012-05-08T09:07:25.000Z</time>
      </trkpt>
      <trkpt lat="45.71418" lon="4.55014">
        <ele>821</ele>
        <time>2012-05-08T09:07:30.000Z</time>
      </trkpt>
      <trkpt lat="45.71415" lon="4.55021">
        <ele>821</ele>
        <time>2012-05-08T09:07:35.000Z</time>
      </trkpt>
      <trkpt lat="45.71412" lon="4.55026">
        <ele>821</ele>
        <time>2012-05-08T09:07:39.000Z</time>
      </trkpt>
      <trkpt lat="45.71409" lon="4.55032">
        <ele>821</ele>
        <time>2012-05-08T09:07:44.000Z</time>
      </trkpt>
      <trkpt lat="45.71406" lon="4.55038">
        <ele>821</ele>
        <time>2012-05-08T09:07:48.000Z</time>
      </trkpt>
      <trkpt lat="45.71403" lon="4.55043">
        <ele>821</ele>
        <time>2012-05-08T09:07:52.000Z</time>
      </trkpt>
      <trkpt lat="45.714" lon="4.55048">
        <ele>821</ele>
        <time>2012-05-08T09:07:56.000Z</time>
      </trkpt>
      <trkpt lat="45.71397" lon="4.55054">
        <ele>821</ele>
        <time>2012-05-08T09:08:02.000Z</time>
      </trkpt>
      <trkpt lat="45.71394" lon="4.55059">
        <ele>821</ele>
        <time>2012-05-08T09:08:08.000Z</time>
      </trkpt>
      <trkpt lat="45.71391" lon="4.55065">
        <ele>821</ele>
        <time>2012-05-08T09:08:13.000Z</time>
      </trkpt>
      <trkpt lat="45.71388" lon="4.5507">
        <ele>821</ele>
        <time>2012-05-08T09:08:17.000Z</time>
      </trkpt>
      <trkpt lat="45.71385" lon="4.55075">
        <ele>821</ele>
        <time>2012-05-08T09:08:21.000Z</time>
      </trkpt>
      <trkpt lat="45.71382" lon="4.5508">
        <ele>821</ele>
        <time>2012-05-08T09:08:26.000Z</time>
      </trkpt>
      <trkpt lat="45.71378" lon="4.55086">
        <ele>821</ele>
        <time>2012-05-08T09:08:31.000Z</time>
      </trkpt>
      <trkpt lat="45.71376" lon="4.55092">
        <ele>821</ele>
        <time>2012-05-08T09:08:35.000Z</time>
      </trkpt>
      <trkpt lat="45.71372" lon="4.55097">
        <ele>821</ele>
        <time>2012-05-08T09:08:39.000Z</time>
      </trkpt>
      <trkpt lat="45.71369" lon="4.55102">
        <ele>821</ele>
        <time>2012-05-08T09:08:43.000Z</time>
      </trkpt>
      <trkpt lat="45.71366" lon="4.55108">
        <ele>821</ele>
        <time>2012-05-08T09:08:47.000Z</time>
      </trkpt>
      <trkpt lat="45.71362" lon="4.55114">
        <ele>821</ele>
        <time>2012-05-08T09:08:51.000Z</time>
      </trkpt>
      <trkpt lat="45.71359" lon="4.5512">
        <ele>821</ele>
        <time>2012-05-08T09:08:55.000Z</time>
      </trkpt>
      <trkpt lat="45.71356" lon="4.55126">
        <ele>821</ele>
        <time>2012-05-08T09:08:58.000Z</time>
      </trkpt>
      <trkpt lat="45.71352" lon="4.55133">
        <ele>821</ele>
        <time>2012-05-08T09:09:01.000Z</time>
      </trkpt>
      <trkpt lat="45.71349" lon="4.55138">
        <ele>821</ele>
        <time>2012-05-08T09:09:03.000Z</time>
      </trkpt>
      <trkpt lat="45.71345" lon="4.55146">
        <ele>821</ele>
        <time>2012-05-08T09:09:06.000Z</time>
      </trkpt>
      <trkpt lat="45.71341" lon="4.55152">
        <ele>822</ele>
        <time>2012-05-08T09:09:09.000Z</time>
      </trkpt>
      <trkpt lat="45.71338" lon="4.55159">
        <ele>822</ele>
        <time>2012-05-08T09:09:12.000Z</time>
      </trkpt>
      <trkpt lat="45.71334" lon="4.55164">
        <ele>822</ele>
        <time>2012-05-08T09:09:15.000Z</time>
      </trkpt>
      <trkpt lat="45.71331" lon="4.55169">
        <ele>822</ele>
        <time>2012-05-08T09:09:18.000Z</time>
      </trkpt>
      <trkpt lat="45.71328" lon="4.55174">
        <ele>822</ele>
        <time>2012-05-08T09:09:21.000Z</time>
      </trkpt>
      <trkpt lat="45.71324" lon="4.55179">
        <ele>822</ele>
        <time>2012-05-08T09:09:25.000Z</time>
      </trkpt>
      <trkpt lat="45.7132" lon="4.55185">
        <ele>822</ele>
        <time>2012-05-08T09:09:29.000Z</time>
      </trkpt>
      <trkpt lat="45.71316" lon="4.55191">
        <ele>822</ele>
        <time>2012-05-08T09:09:33.000Z</time>
      </trkpt>
      <trkpt lat="45.71312" lon="4.55196">
        <ele>822</ele>
        <time>2012-05-08T09:09:37.000Z</time>
      </trkpt>
      <trkpt lat="45.71308" lon="4.55201">
        <ele>822</ele>
        <time>2012-05-08T09:09:41.000Z</time>
      </trkpt>
      <trkpt lat="45.71303" lon="4.55206">
        <ele>822</ele>
        <time>2012-05-08T09:09:45.000Z</time>
      </trkpt>
      <trkpt lat="45.713" lon="4.55211">
        <ele>822</ele>
        <time>2012-05-08T09:09:49.000Z</time>
      </trkpt>
      <trkpt lat="45.71296" lon="4.55216">
        <ele>823</ele>
        <time>2012-05-08T09:09:53.000Z</time>
      </trkpt>
      <trkpt lat="45.71292" lon="4.5522">
        <ele>823</ele>
        <time>2012-05-08T09:10:00.000Z</time>
      </trkpt>
      <trkpt lat="45.71287" lon="4.55223">
        <ele>823</ele>
        <time>2012-05-08T09:10:09.000Z</time>
      </trkpt>
      <trkpt lat="45.71282" lon="4.55226">
        <ele>823</ele>
        <time>2012-05-08T09:10:16.000Z</time>
      </trkpt>
      <trkpt lat="45.71278" lon="4.55229">
        <ele>823</ele>
        <time>2012-05-08T09:10:21.000Z</time>
      </trkpt>
      <trkpt lat="45.71274" lon="4.55232">
        <ele>824</ele>
        <time>2012-05-08T09:10:26.000Z</time>
      </trkpt>
      <trkpt lat="45.71269" lon="4.55236">
        <ele>824</ele>
        <time>2012-05-08T09:10:31.000Z</time>
      </trkpt>
      <trkpt lat="45.71264" lon="4.55239">
        <ele>824</ele>
        <time>2012-05-08T09:10:36.000Z</time>
      </trkpt>
      <trkpt lat="45.7126" lon="4.55243">
        <ele>824</ele>
        <time>2012-05-08T09:10:41.000Z</time>
      </trkpt>
      <trkpt lat="45.71255" lon="4.55248">
        <ele>824</ele>
        <time>2012-05-08T09:10:46.000Z</time>
      </trkpt>
      <trkpt lat="45.7125" lon="4.55251">
        <ele>824</ele>
        <time>2012-05-08T09:10:51.000Z</time>
      </trkpt>
      <trkpt lat="45.71246" lon="4.55254">
        <ele>825</ele>
        <time>2012-05-08T09:10:56.000Z</time>
      </trkpt>
      <trkpt lat="45.71241" lon="4.55256">
        <ele>825</ele>
        <time>2012-05-08T09:11:01.000Z</time>
      </trkpt>
      <trkpt lat="45.71236" lon="4.55259">
        <ele>825</ele>
        <time>2012-05-08T09:11:06.000Z</time>
      </trkpt>
      <trkpt lat="45.71231" lon="4.55262">
        <ele>825</ele>
        <time>2012-05-08T09:11:11.000Z</time>
      </trkpt>
      <trkpt lat="45.71227" lon="4.55265">
        <ele>825</ele>
        <time>2012-05-08T09:11:16.000Z</time>
      </trkpt>
      <trkpt lat="45.71223" lon="4.55268">
        <ele>825</ele>
        <time>2012-05-08T09:11:22.000Z</time>
      </trkpt>
      <trkpt lat="45.71219" lon="4.55272">
        <ele>825</ele>
        <time>2012-05-08T09:11:28.000Z</time>
      </trkpt>
      <trkpt lat="45.71216" lon="4.55278">
        <ele>825</ele>
        <time>2012-05-08T09:11:34.000Z</time>
      </trkpt>
      <trkpt lat="45.71213" lon="4.55284">
        <ele>826</ele>
        <time>2012-05-08T09:11:40.000Z</time>
      </trkpt>
      <trkpt lat="45.7121" lon="4.5529">
        <ele>826</ele>
        <time>2012-05-08T09:11:53.000Z</time>
      </trkpt>
      <trkpt lat="45.71209" lon="4.55296">
        <ele>826</ele>
        <time>2012-05-08T09:12:00.000Z</time>
      </trkpt>
      <trkpt lat="45.71207" lon="4.55303">
        <ele>826</ele>
        <time>2012-05-08T09:12:07.000Z</time>
      </trkpt>
      <trkpt lat="45.71204" lon="4.55308">
        <ele>826</ele>
        <time>2012-05-08T09:12:13.000Z</time>
      </trkpt>
      <trkpt lat="45.712" lon="4.55313">
        <ele>827</ele>
        <time>2012-05-08T09:12:19.000Z</time>
      </trkpt>
      <trkpt lat="45.71196" lon="4.55318">
        <ele>827</ele>
        <time>2012-05-08T09:12:25.000Z</time>
      </trkpt>
      <trkpt lat="45.71193" lon="4.55322">
        <ele>827</ele>
        <time>2012-05-08T09:12:30.000Z</time>
      </trkpt>
      <trkpt lat="45.71189" lon="4.55327">
        <ele>827</ele>
        <time>2012-05-08T09:12:35.000Z</time>
      </trkpt>
      <trkpt lat="45.71186" lon="4.55333">
        <ele>827</ele>
        <time>2012-05-08T09:12:40.000Z</time>
      </trkpt>
      <trkpt lat="45.71182" lon="4.55338">
        <ele>828</ele>
        <time>2012-05-08T09:12:45.000Z</time>
      </trkpt>
      <trkpt lat="45.71178" lon="4.55343">
        <ele>828</ele>
        <time>2012-05-08T09:12:50.000Z</time>
      </trkpt>
      <trkpt lat="45.71174" lon="4.55347">
        <ele>828</ele>
        <time>2012-05-08T09:12:55.000Z</time>
      </trkpt>
      <trkpt lat="45.71169" lon="4.5535">
        <ele>828</ele>
        <time>2012-05-08T09:13:00.000Z</time>
      </trkpt>
      <trkpt lat="45.71165" lon="4.55353">
        <ele>828</ele>
        <time>2012-05-08T09:13:05.000Z</time>
      </trkpt>
      <trkpt lat="45.7116" lon="4.55356">
        <ele>828</ele>
        <time>2012-05-08T09:13:10.000Z</time>
      </trkpt>
      <trkpt lat="45.71156" lon="4.55358">
        <ele>829</ele>
        <time>2012-05-08T09:13:15.000Z</time>
      </trkpt>
      <trkpt lat="45.71152" lon="4.55361">
        <ele>829</ele>
        <time>2012-05-08T09:13:27.000Z</time>
      </trkpt>
      <trkpt lat="45.71149" lon="4.55366">
        <ele>829</ele>
        <time>2012-05-08T09:13:36.000Z</time>
      </trkpt>
      <trkpt lat="45.71146" lon="4.55372">
        <ele>830</ele>
        <time>2012-05-08T09:13:43.000Z</time>
      </trkpt>
      <trkpt lat="45.71142" lon="4.55377">
        <ele>830</ele>
        <time>2012-05-08T09:13:51.000Z</time>
      </trkpt>
      <trkpt lat="45.71138" lon="4.5538">
        <ele>830</ele>
        <time>2012-05-08T09:13:58.000Z</time>
      </trkpt>
      <trkpt lat="45.71134" lon="4.55384">
        <ele>831</ele>
        <time>2012-05-08T09:14:05.000Z</time>
      </trkpt>
      <trkpt lat="45.71129" lon="4.55388">
        <ele>831</ele>
        <time>2012-05-08T09:14:12.000Z</time>
      </trkpt>
      <trkpt lat="45.71125" lon="4.55392">
        <ele>831</ele>
        <time>2012-05-08T09:14:18.000Z</time>
      </trkpt>
      <trkpt lat="45.71121" lon="4.55396">
        <ele>831</ele>
        <time>2012-05-08T09:14:23.000Z</time>
      </trkpt>
      <trkpt lat="45.71118" lon="4.55402">
        <ele>831</ele>
        <time>2012-05-08T09:14:27.000Z</time>
      </trkpt>
      <trkpt lat="45.71114" lon="4.55407">
        <ele>831</ele>
        <time>2012-05-08T09:14:33.000Z</time>
      </trkpt>
      <trkpt lat="45.71109" lon="4.55407">
        <ele>832</ele>
        <time>2012-05-08T09:14:38.000Z</time>
      </trkpt>
      <trkpt lat="45.71104" lon="4.55411">
        <ele>832</ele>
        <time>2012-05-08T09:14:41.000Z</time>
      </trkpt>
      <trkpt lat="45.71099" lon="4.55414">
        <ele>832</ele>
        <time>2012-05-08T09:14:44.000Z</time>
      </trkpt>
      <trkpt lat="45.71095" lon="4.55419">
        <ele>832</ele>
        <time>2012-05-08T09:14:47.000Z</time>
      </trkpt>
      <trkpt lat="45.71092" lon="4.55424">
        <ele>833</ele>
        <time>2012-05-08T09:14:51.000Z</time>
      </trkpt>
      <trkpt lat="45.71088" lon="4.55428">
        <ele>833</ele>
        <time>2012-05-08T09:14:57.000Z</time>
      </trkpt>
      <trkpt lat="45.71084" lon="4.55432">
        <ele>834</ele>
        <time>2012-05-08T09:15:02.000Z</time>
      </trkpt>
      <trkpt lat="45.7108" lon="4.55436">
        <ele>834</ele>
        <time>2012-05-08T09:15:08.000Z</time>
      </trkpt>
      <trkpt lat="45.71077" lon="4.55442">
        <ele>835</ele>
        <time>2012-05-08T09:15:15.000Z</time>
      </trkpt>
      <trkpt lat="45.71074" lon="4.55448">
        <ele>835</ele>
        <time>2012-05-08T09:15:23.000Z</time>
      </trkpt>
      <trkpt lat="45.71072" lon="4.55453">
        <ele>835</ele>
        <time>2012-05-08T09:15:30.000Z</time>
      </trkpt>
      <trkpt lat="45.71067" lon="4.55452">
        <ele>835</ele>
        <time>2012-05-08T09:15:39.000Z</time>
      </trkpt>
      <trkpt lat="45.71062" lon="4.55454">
        <ele>836</ele>
        <time>2012-05-08T09:15:47.000Z</time>
      </trkpt>
      <trkpt lat="45.7106" lon="4.55459">
        <ele>836</ele>
        <time>2012-05-08T09:15:56.000Z</time>
      </trkpt>
      <trkpt lat="45.71058" lon="4.55466">
        <ele>837</ele>
        <time>2012-05-08T09:16:03.000Z</time>
      </trkpt>
      <trkpt lat="45.71055" lon="4.5547">
        <ele>837</ele>
        <time>2012-05-08T09:16:12.000Z</time>
      </trkpt>
      <trkpt lat="45.71051" lon="4.55474">
        <ele>837</ele>
        <time>2012-05-08T09:16:22.000Z</time>
      </trkpt>
      <trkpt lat="45.71048" lon="4.55479">
        <ele>837</ele>
        <time>2012-05-08T09:16:29.000Z</time>
      </trkpt>
      <trkpt lat="45.71044" lon="4.55484">
        <ele>837</ele>
        <time>2012-05-08T09:16:34.000Z</time>
      </trkpt>
      <trkpt lat="45.7104" lon="4.55489">
        <ele>838</ele>
        <time>2012-05-08T09:16:39.000Z</time>
      </trkpt>
      <trkpt lat="45.71037" lon="4.55495">
        <ele>838</ele>
        <time>2012-05-08T09:16:44.000Z</time>
      </trkpt>
      <trkpt lat="45.71034" lon="4.55499">
        <ele>838</ele>
        <time>2012-05-08T09:16:48.000Z</time>
      </trkpt>
      <trkpt lat="45.7103" lon="4.55504">
        <ele>838</ele>
        <time>2012-05-08T09:16:52.000Z</time>
      </trkpt>
      <trkpt lat="45.71027" lon="4.55508">
        <ele>838</ele>
        <time>2012-05-08T09:16:56.000Z</time>
      </trkpt>
      <trkpt lat="45.71023" lon="4.55512">
        <ele>838</ele>
        <time>2012-05-08T09:17:00.000Z</time>
      </trkpt>
      <trkpt lat="45.7102" lon="4.55516">
        <ele>838</ele>
        <time>2012-05-08T09:17:04.000Z</time>
      </trkpt>
      <trkpt lat="45.71015" lon="4.55521">
        <ele>838</ele>
        <time>2012-05-08T09:17:09.000Z</time>
      </trkpt>
      <trkpt lat="45.71012" lon="4.55525">
        <ele>838</ele>
        <time>2012-05-08T09:17:14.000Z</time>
      </trkpt>
      <trkpt lat="45.71008" lon="4.55529">
        <ele>838</ele>
        <time>2012-05-08T09:17:19.000Z</time>
      </trkpt>
      <trkpt lat="45.71004" lon="4.55533">
        <ele>838</ele>
        <time>2012-05-08T09:17:23.000Z</time>
      </trkpt>
      <trkpt lat="45.71001" lon="4.55538">
        <ele>838</ele>
        <time>2012-05-08T09:17:26.000Z</time>
      </trkpt>
      <trkpt lat="45.70997" lon="4.55543">
        <ele>838</ele>
        <time>2012-05-08T09:17:29.000Z</time>
      </trkpt>
      <trkpt lat="45.70994" lon="4.55548">
        <ele>838</ele>
        <time>2012-05-08T09:17:32.000Z</time>
      </trkpt>
      <trkpt lat="45.70992" lon="4.55553">
        <ele>838</ele>
        <time>2012-05-08T09:17:35.000Z</time>
      </trkpt>
      <trkpt lat="45.70988" lon="4.55559">
        <ele>839</ele>
        <time>2012-05-08T09:17:39.000Z</time>
      </trkpt>
      <trkpt lat="45.70985" lon="4.55564">
        <ele>839</ele>
        <time>2012-05-08T09:17:43.000Z</time>
      </trkpt>
      <trkpt lat="45.70981" lon="4.5557">
        <ele>839</ele>
        <time>2012-05-08T09:17:47.000Z</time>
      </trkpt>
      <trkpt lat="45.70977" lon="4.55575">
        <ele>839</ele>
        <time>2012-05-08T09:17:51.000Z</time>
      </trkpt>
      <trkpt lat="45.70974" lon="4.55579">
        <ele>839</ele>
        <time>2012-05-08T09:17:55.000Z</time>
      </trkpt>
      <trkpt lat="45.7097" lon="4.55583">
        <ele>839</ele>
        <time>2012-05-08T09:17:59.000Z</time>
      </trkpt>
      <trkpt lat="45.70966" lon="4.55588">
        <ele>839</ele>
        <time>2012-05-08T09:18:04.000Z</time>
      </trkpt>
      <trkpt lat="45.70962" lon="4.55592">
        <ele>839</ele>
        <time>2012-05-08T09:18:08.000Z</time>
      </trkpt>
      <trkpt lat="45.70958" lon="4.55596">
        <ele>839</ele>
        <time>2012-05-08T09:18:12.000Z</time>
      </trkpt>
      <trkpt lat="45.70954" lon="4.556">
        <ele>839</ele>
        <time>2012-05-08T09:18:17.000Z</time>
      </trkpt>
      <trkpt lat="45.7095" lon="4.55604">
        <ele>839</ele>
        <time>2012-05-08T09:18:22.000Z</time>
      </trkpt>
      <trkpt lat="45.70946" lon="4.55608">
        <ele>839</ele>
        <time>2012-05-08T09:18:27.000Z</time>
      </trkpt>
      <trkpt lat="45.70941" lon="4.55612">
        <ele>839</ele>
        <time>2012-05-08T09:18:32.000Z</time>
      </trkpt>
      <trkpt lat="45.70937" lon="4.55616">
        <ele>839</ele>
        <time>2012-05-08T09:18:36.000Z</time>
      </trkpt>
      <trkpt lat="45.70933" lon="4.5562">
        <ele>839</ele>
        <time>2012-05-08T09:18:40.000Z</time>
      </trkpt>
      <trkpt lat="45.70929" lon="4.55624">
        <ele>839</ele>
        <time>2012-05-08T09:18:44.000Z</time>
      </trkpt>
      <trkpt lat="45.70924" lon="4.55628">
        <ele>839</ele>
        <time>2012-05-08T09:18:49.000Z</time>
      </trkpt>
      <trkpt lat="45.7092" lon="4.55632">
        <ele>839</ele>
        <time>2012-05-08T09:18:54.000Z</time>
      </trkpt>
      <trkpt lat="45.70916" lon="4.55635">
        <ele>839</ele>
        <time>2012-05-08T09:18:59.000Z</time>
      </trkpt>
      <trkpt lat="45.70911" lon="4.55635">
        <ele>839</ele>
        <time>2012-05-08T09:19:04.000Z</time>
      </trkpt>
      <trkpt lat="45.70906" lon="4.55638">
        <ele>839</ele>
        <time>2012-05-08T09:19:09.000Z</time>
      </trkpt>
      <trkpt lat="45.70902" lon="4.55638">
        <ele>839</ele>
        <time>2012-05-08T09:19:14.000Z</time>
      </trkpt>
      <trkpt lat="45.70896" lon="4.55638">
        <ele>839</ele>
        <time>2012-05-08T09:19:20.000Z</time>
      </trkpt>
      <trkpt lat="45.70891" lon="4.55639">
        <ele>839</ele>
        <time>2012-05-08T09:19:26.000Z</time>
      </trkpt>
      <trkpt lat="45.70887" lon="4.55643">
        <ele>840</ele>
        <time>2012-05-08T09:19:31.000Z</time>
      </trkpt>
      <trkpt lat="45.70882" lon="4.55647">
        <ele>840</ele>
        <time>2012-05-08T09:19:37.000Z</time>
      </trkpt>
      <trkpt lat="45.70878" lon="4.5565">
        <ele>840</ele>
        <time>2012-05-08T09:19:43.000Z</time>
      </trkpt>
      <trkpt lat="45.70874" lon="4.55654">
        <ele>840</ele>
        <time>2012-05-08T09:19:49.000Z</time>
      </trkpt>
      <trkpt lat="45.70871" lon="4.55659">
        <ele>840</ele>
        <time>2012-05-08T09:19:55.000Z</time>
      </trkpt>
      <trkpt lat="45.70867" lon="4.55663">
        <ele>840</ele>
        <time>2012-05-08T09:20:01.000Z</time>
      </trkpt>
      <trkpt lat="45.70863" lon="4.55665">
        <ele>840</ele>
        <time>2012-05-08T09:20:07.000Z</time>
      </trkpt>
      <trkpt lat="45.70858" lon="4.55666">
        <ele>840</ele>
        <time>2012-05-08T09:20:13.000Z</time>
      </trkpt>
      <trkpt lat="45.70852" lon="4.55666">
        <ele>840</ele>
        <time>2012-05-08T09:20:18.000Z</time>
      </trkpt>
      <trkpt lat="45.70847" lon="4.55664">
        <ele>840</ele>
        <time>2012-05-08T09:20:22.000Z</time>
      </trkpt>
      <trkpt lat="45.70842" lon="4.55662">
        <ele>841</ele>
        <time>2012-05-08T09:20:26.000Z</time>
      </trkpt>
      <trkpt lat="45.70836" lon="4.5566">
        <ele>841</ele>
        <time>2012-05-08T09:20:30.000Z</time>
      </trkpt>
      <trkpt lat="45.70831" lon="4.5566">
        <ele>841</ele>
        <time>2012-05-08T09:20:34.000Z</time>
      </trkpt>
      <trkpt lat="45.70826" lon="4.5566">
        <ele>841</ele>
        <time>2012-05-08T09:20:38.000Z</time>
      </trkpt>
      <trkpt lat="45.70821" lon="4.55661">
        <ele>842</ele>
        <time>2012-05-08T09:20:43.000Z</time>
      </trkpt>
      <trkpt lat="45.70816" lon="4.55663">
        <ele>842</ele>
        <time>2012-05-08T09:20:48.000Z</time>
      </trkpt>
      <trkpt lat="45.70812" lon="4.55665">
        <ele>842</ele>
        <time>2012-05-08T09:20:53.000Z</time>
      </trkpt>
      <trkpt lat="45.70807" lon="4.55666">
        <ele>843</ele>
        <time>2012-05-08T09:20:58.000Z</time>
      </trkpt>
      <trkpt lat="45.70802" lon="4.55668">
        <ele>843</ele>
        <time>2012-05-08T09:21:04.000Z</time>
      </trkpt>
      <trkpt lat="45.70797" lon="4.5567">
        <ele>844</ele>
        <time>2012-05-08T09:21:10.000Z</time>
      </trkpt>
      <trkpt lat="45.70793" lon="4.55671">
        <ele>844</ele>
        <time>2012-05-08T09:21:16.000Z</time>
      </trkpt>
      <trkpt lat="45.70788" lon="4.55673">
        <ele>845</ele>
        <time>2012-05-08T09:21:23.000Z</time>
      </trkpt>
      <trkpt lat="45.70784" lon="4.55676">
        <ele>846</ele>
        <time>2012-05-08T09:21:37.000Z</time>
      </trkpt>
      <trkpt lat="45.7078" lon="4.5568">
        <ele>846</ele>
        <time>2012-05-08T09:21:43.000Z</time>
      </trkpt>
      <trkpt lat="45.70778" lon="4.55686">
        <ele>847</ele>
        <time>2012-05-08T09:21:49.000Z</time>
      </trkpt>
      <trkpt lat="45.70776" lon="4.55693">
        <ele>848</ele>
        <time>2012-05-08T09:21:55.000Z</time>
      </trkpt>
      <trkpt lat="45.70773" lon="4.55699">
        <ele>848</ele>
        <time>2012-05-08T09:21:59.000Z</time>
      </trkpt>
      <trkpt lat="45.7077" lon="4.55704">
        <ele>848</ele>
        <time>2012-05-08T09:22:03.000Z</time>
      </trkpt>
      <trkpt lat="45.70767" lon="4.5571">
        <ele>849</ele>
        <time>2012-05-08T09:22:08.000Z</time>
      </trkpt>
      <trkpt lat="45.70763" lon="4.55716">
        <ele>849</ele>
        <time>2012-05-08T09:22:13.000Z</time>
      </trkpt>
      <trkpt lat="45.70761" lon="4.55721">
        <ele>849</ele>
        <time>2012-05-08T09:22:17.000Z</time>
      </trkpt>
      <trkpt lat="45.70758" lon="4.55727">
        <ele>849</ele>
        <time>2012-05-08T09:22:21.000Z</time>
      </trkpt>
      <trkpt lat="45.70755" lon="4.55732">
        <ele>850</ele>
        <time>2012-05-08T09:22:29.000Z</time>
      </trkpt>
      <trkpt lat="45.70752" lon="4.55738">
        <ele>850</ele>
        <time>2012-05-08T09:22:35.000Z</time>
      </trkpt>
      <trkpt lat="45.70751" lon="4.55746">
        <ele>850</ele>
        <time>2012-05-08T09:22:40.000Z</time>
      </trkpt>
      <trkpt lat="45.70749" lon="4.55753">
        <ele>851</ele>
        <time>2012-05-08T09:22:44.000Z</time>
      </trkpt>
      <trkpt lat="45.70747" lon="4.5576">
        <ele>851</ele>
        <time>2012-05-08T09:22:47.000Z</time>
      </trkpt>
      <trkpt lat="45.70744" lon="4.55768">
        <ele>851</ele>
        <time>2012-05-08T09:22:50.000Z</time>
      </trkpt>
      <trkpt lat="45.70742" lon="4.55775">
        <ele>851</ele>
        <time>2012-05-08T09:22:53.000Z</time>
      </trkpt>
      <trkpt lat="45.7074" lon="4.55782">
        <ele>851</ele>
        <time>2012-05-08T09:22:56.000Z</time>
      </trkpt>
      <trkpt lat="45.70738" lon="4.55789">
        <ele>851</ele>
        <time>2012-05-08T09:22:59.000Z</time>
      </trkpt>
      <trkpt lat="45.70736" lon="4.55795">
        <ele>851</ele>
        <time>2012-05-08T09:23:02.000Z</time>
      </trkpt>
      <trkpt lat="45.70734" lon="4.55802">
        <ele>851</ele>
        <time>2012-05-08T09:23:05.000Z</time>
      </trkpt>
      <trkpt lat="45.70731" lon="4.55808">
        <ele>851</ele>
        <time>2012-05-08T09:23:08.000Z</time>
      </trkpt>
      <trkpt lat="45.70729" lon="4.55814">
        <ele>851</ele>
        <time>2012-05-08T09:23:12.000Z</time>
      </trkpt>
      <trkpt lat="45.70726" lon="4.55819">
        <ele>851</ele>
        <time>2012-05-08T09:23:16.000Z</time>
      </trkpt>
      <trkpt lat="45.70721" lon="4.5582">
        <ele>852</ele>
        <time>2012-05-08T09:23:20.000Z</time>
      </trkpt>
      <trkpt lat="45.70717" lon="4.55818">
        <ele>852</ele>
        <time>2012-05-08T09:23:23.000Z</time>
      </trkpt>
      <trkpt lat="45.70712" lon="4.55819">
        <ele>853</ele>
        <time>2012-05-08T09:23:29.000Z</time>
      </trkpt>
      <trkpt lat="45.70707" lon="4.55822">
        <ele>854</ele>
        <time>2012-05-08T09:23:36.000Z</time>
      </trkpt>
      <trkpt lat="45.70703" lon="4.55828">
        <ele>855</ele>
        <time>2012-05-08T09:23:42.000Z</time>
      </trkpt>
      <trkpt lat="45.70699" lon="4.55832">
        <ele>855</ele>
        <time>2012-05-08T09:23:46.000Z</time>
      </trkpt>
      <trkpt lat="45.70696" lon="4.55838">
        <ele>856</ele>
        <time>2012-05-08T09:23:51.000Z</time>
      </trkpt>
      <trkpt lat="45.70699" lon="4.55843">
        <ele>856</ele>
        <time>2012-05-08T09:23:58.000Z</time>
      </trkpt>
      <trkpt lat="45.70697" lon="4.55849">
        <ele>857</ele>
        <time>2012-05-08T09:24:03.000Z</time>
      </trkpt>
      <trkpt lat="45.70692" lon="4.55846">
        <ele>859</ele>
        <time>2012-05-08T09:24:16.000Z</time>
      </trkpt>
      <trkpt lat="45.70689" lon="4.55842">
        <ele>859</ele>
        <time>2012-05-08T09:24:32.000Z</time>
      </trkpt>
      <trkpt lat="45.70691" lon="4.55837">
        <ele>859</ele>
        <time>2012-05-08T09:24:46.000Z</time>
      </trkpt>
      <trkpt lat="45.70696" lon="4.55835">
        <ele>860</ele>
        <time>2012-05-08T09:25:41.000Z</time>
      </trkpt>
      <trkpt lat="45.70697" lon="4.55842">
        <ele>861</ele>
        <time>2012-05-08T09:26:12.000Z</time>
      </trkpt>
      <trkpt lat="45.70697" lon="4.55848">
        <ele>862</ele>
        <time>2012-05-08T09:26:26.000Z</time>
      </trkpt>
      <trkpt lat="45.70695" lon="4.55854">
        <ele>863</ele>
        <time>2012-05-08T09:26:39.000Z</time>
      </trkpt>
      <trkpt lat="45.70692" lon="4.55859">
        <ele>863</ele>
        <time>2012-05-08T09:26:46.000Z</time>
      </trkpt>
      <trkpt lat="45.70691" lon="4.55867">
        <ele>863</ele>
        <time>2012-05-08T09:26:50.000Z</time>
      </trkpt>
      <trkpt lat="45.70689" lon="4.55875">
        <ele>863</ele>
        <time>2012-05-08T09:26:54.000Z</time>
      </trkpt>
      <trkpt lat="45.70686" lon="4.55883">
        <ele>864</ele>
        <time>2012-05-08T09:26:57.000Z</time>
      </trkpt>
      <trkpt lat="45.70683" lon="4.55891">
        <ele>864</ele>
        <time>2012-05-08T09:27:00.000Z</time>
      </trkpt>
      <trkpt lat="45.70681" lon="4.55896">
        <ele>864</ele>
        <time>2012-05-08T09:27:02.000Z</time>
      </trkpt>
      <trkpt lat="45.70677" lon="4.55902">
        <ele>864</ele>
        <time>2012-05-08T09:27:06.000Z</time>
      </trkpt>
      <trkpt lat="45.70673" lon="4.55908">
        <ele>865</ele>
        <time>2012-05-08T09:27:09.000Z</time>
      </trkpt>
      <trkpt lat="45.70669" lon="4.55912">
        <ele>865</ele>
        <time>2012-05-08T09:27:11.000Z</time>
      </trkpt>
      <trkpt lat="45.70666" lon="4.55917">
        <ele>865</ele>
        <time>2012-05-08T09:27:13.000Z</time>
      </trkpt>
      <trkpt lat="45.70662" lon="4.55922">
        <ele>865</ele>
        <time>2012-05-08T09:27:15.000Z</time>
      </trkpt>
      <trkpt lat="45.70659" lon="4.55926">
        <ele>865</ele>
        <time>2012-05-08T09:27:17.000Z</time>
      </trkpt>
      <trkpt lat="45.70655" lon="4.5593">
        <ele>865</ele>
        <time>2012-05-08T09:27:19.000Z</time>
      </trkpt>
      <trkpt lat="45.70652" lon="4.55934">
        <ele>865</ele>
        <time>2012-05-08T09:27:21.000Z</time>
      </trkpt>
      <trkpt lat="45.70647" lon="4.5594">
        <ele>865</ele>
        <time>2012-05-08T09:27:23.000Z</time>
      </trkpt>
      <trkpt lat="45.70642" lon="4.55947">
        <ele>865</ele>
        <time>2012-05-08T09:27:25.000Z</time>
      </trkpt>
      <trkpt lat="45.70638" lon="4.55953">
        <ele>865</ele>
        <time>2012-05-08T09:27:27.000Z</time>
      </trkpt>
      <trkpt lat="45.70633" lon="4.55959">
        <ele>866</ele>
        <time>2012-05-08T09:27:29.000Z</time>
      </trkpt>
      <trkpt lat="45.70628" lon="4.55965">
        <ele>866</ele>
        <time>2012-05-08T09:27:31.000Z</time>
      </trkpt>
      <trkpt lat="45.70624" lon="4.55971">
        <ele>866</ele>
        <time>2012-05-08T09:27:33.000Z</time>
      </trkpt>
      <trkpt lat="45.70619" lon="4.55976">
        <ele>866</ele>
        <time>2012-05-08T09:27:35.000Z</time>
      </trkpt>
      <trkpt lat="45.70615" lon="4.55981">
        <ele>866</ele>
        <time>2012-05-08T09:27:37.000Z</time>
      </trkpt>
      <trkpt lat="45.70612" lon="4.55986">
        <ele>866</ele>
        <time>2012-05-08T09:27:39.000Z</time>
      </trkpt>
      <trkpt lat="45.70608" lon="4.55991">
        <ele>866</ele>
        <time>2012-05-08T09:27:41.000Z</time>
      </trkpt>
      <trkpt lat="45.70604" lon="4.55996">
        <ele>866</ele>
        <time>2012-05-08T09:27:43.000Z</time>
      </trkpt>
      <trkpt lat="45.70601" lon="4.56001">
        <ele>866</ele>
        <time>2012-05-08T09:27:45.000Z</time>
      </trkpt>
      <trkpt lat="45.70598" lon="4.56006">
        <ele>866</ele>
        <time>2012-05-08T09:27:47.000Z</time>
      </trkpt>
      <trkpt lat="45.70595" lon="4.5601">
        <ele>866</ele>
        <time>2012-05-08T09:27:49.000Z</time>
      </trkpt>
      <trkpt lat="45.7059" lon="4.56017">
        <ele>866</ele>
        <time>2012-05-08T09:27:52.000Z</time>
      </trkpt>
      <trkpt lat="45.70586" lon="4.56024">
        <ele>867</ele>
        <time>2012-05-08T09:27:55.000Z</time>
      </trkpt>
      <trkpt lat="45.70583" lon="4.5603">
        <ele>867</ele>
        <time>2012-05-08T09:27:58.000Z</time>
      </trkpt>
      <trkpt lat="45.7058" lon="4.56037">
        <ele>867</ele>
        <time>2012-05-08T09:28:01.000Z</time>
      </trkpt>
      <trkpt lat="45.70577" lon="4.56043">
        <ele>867</ele>
        <time>2012-05-08T09:28:04.000Z</time>
      </trkpt>
      <trkpt lat="45.70574" lon="4.56049">
        <ele>867</ele>
        <time>2012-05-08T09:28:07.000Z</time>
      </trkpt>
      <trkpt lat="45.7057" lon="4.56055">
        <ele>867</ele>
        <time>2012-05-08T09:28:10.000Z</time>
      </trkpt>
      <trkpt lat="45.70568" lon="4.5606">
        <ele>867</ele>
        <time>2012-05-08T09:28:13.000Z</time>
      </trkpt>
      <trkpt lat="45.70565" lon="4.56065">
        <ele>867</ele>
        <time>2012-05-08T09:28:16.000Z</time>
      </trkpt>
      <trkpt lat="45.70562" lon="4.56072">
        <ele>867</ele>
        <time>2012-05-08T09:28:20.000Z</time>
      </trkpt>
      <trkpt lat="45.70558" lon="4.56078">
        <ele>867</ele>
        <time>2012-05-08T09:28:24.000Z</time>
      </trkpt>
      <trkpt lat="45.70554" lon="4.56084">
        <ele>867</ele>
        <time>2012-05-08T09:28:28.000Z</time>
      </trkpt>
      <trkpt lat="45.70551" lon="4.5609">
        <ele>868</ele>
        <time>2012-05-08T09:28:32.000Z</time>
      </trkpt>
      <trkpt lat="45.70548" lon="4.56096">
        <ele>868</ele>
        <time>2012-05-08T09:28:36.000Z</time>
      </trkpt>
      <trkpt lat="45.70546" lon="4.56102">
        <ele>868</ele>
        <time>2012-05-08T09:28:41.000Z</time>
      </trkpt>
      <trkpt lat="45.70544" lon="4.56108">
        <ele>868</ele>
        <time>2012-05-08T09:28:46.000Z</time>
      </trkpt>
      <trkpt lat="45.70542" lon="4.56115">
        <ele>868</ele>
        <time>2012-05-08T09:28:52.000Z</time>
      </trkpt>
      <trkpt lat="45.70538" lon="4.5612">
        <ele>868</ele>
        <time>2012-05-08T09:28:58.000Z</time>
      </trkpt>
      <trkpt lat="45.70534" lon="4.56125">
        <ele>868</ele>
        <time>2012-05-08T09:29:04.000Z</time>
      </trkpt>
      <trkpt lat="45.7053" lon="4.5613">
        <ele>868</ele>
        <time>2012-05-08T09:29:10.000Z</time>
      </trkpt>
      <trkpt lat="45.70527" lon="4.56136">
        <ele>868</ele>
        <time>2012-05-08T09:29:16.000Z</time>
      </trkpt>
      <trkpt lat="45.70524" lon="4.5614">
        <ele>868</ele>
        <time>2012-05-08T09:29:22.000Z</time>
      </trkpt>
      <trkpt lat="45.7052" lon="4.56146">
        <ele>868</ele>
        <time>2012-05-08T09:29:28.000Z</time>
      </trkpt>
      <trkpt lat="45.70517" lon="4.56151">
        <ele>868</ele>
        <time>2012-05-08T09:29:34.000Z</time>
      </trkpt>
      <trkpt lat="45.70514" lon="4.56156">
        <ele>869</ele>
        <time>2012-05-08T09:29:40.000Z</time>
      </trkpt>
      <trkpt lat="45.70511" lon="4.56162">
        <ele>869</ele>
        <time>2012-05-08T09:29:48.000Z</time>
      </trkpt>
      <trkpt lat="45.70508" lon="4.56167">
        <ele>869</ele>
        <time>2012-05-08T09:29:57.000Z</time>
      </trkpt>
      <trkpt lat="45.70504" lon="4.56171">
        <ele>869</ele>
        <time>2012-05-08T09:30:05.000Z</time>
      </trkpt>
      <trkpt lat="45.70499" lon="4.56167">
        <ele>869</ele>
        <time>2012-05-08T09:30:10.000Z</time>
      </trkpt>
      <trkpt lat="45.70495" lon="4.56163">
        <ele>869</ele>
        <time>2012-05-08T09:30:17.000Z</time>
      </trkpt>
      <trkpt lat="45.70491" lon="4.56168">
        <ele>870</ele>
        <time>2012-05-08T09:30:26.000Z</time>
      </trkpt>
      <trkpt lat="45.70492" lon="4.56175">
        <ele>870</ele>
        <time>2012-05-08T09:30:32.000Z</time>
      </trkpt>
      <trkpt lat="45.70495" lon="4.5618">
        <ele>871</ele>
        <time>2012-05-08T09:30:40.000Z</time>
      </trkpt>
      <trkpt lat="45.70494" lon="4.56187">
        <ele>871</ele>
        <time>2012-05-08T09:30:50.000Z</time>
      </trkpt>
      <trkpt lat="45.70492" lon="4.56193">
        <ele>872</ele>
        <time>2012-05-08T09:30:56.000Z</time>
      </trkpt>
      <trkpt lat="45.70488" lon="4.56198">
        <ele>872</ele>
        <time>2012-05-08T09:31:03.000Z</time>
      </trkpt>
      <trkpt lat="45.70485" lon="4.56203">
        <ele>871</ele>
        <time>2012-05-08T09:31:09.000Z</time>
      </trkpt>
      <trkpt lat="45.70482" lon="4.56208">
        <ele>871</ele>
        <time>2012-05-08T09:31:14.000Z</time>
      </trkpt>
      <trkpt lat="45.70479" lon="4.56213">
        <ele>871</ele>
        <time>2012-05-08T09:31:18.000Z</time>
      </trkpt>
      <trkpt lat="45.70475" lon="4.56218">
        <ele>871</ele>
        <time>2012-05-08T09:31:22.000Z</time>
      </trkpt>
      <trkpt lat="45.70471" lon="4.56224">
        <ele>871</ele>
        <time>2012-05-08T09:31:26.000Z</time>
      </trkpt>
      <trkpt lat="45.70468" lon="4.56228">
        <ele>871</ele>
        <time>2012-05-08T09:31:29.000Z</time>
      </trkpt>
      <trkpt lat="45.70464" lon="4.56234">
        <ele>871</ele>
        <time>2012-05-08T09:31:32.000Z</time>
      </trkpt>
      <trkpt lat="45.7046" lon="4.56238">
        <ele>871</ele>
        <time>2012-05-08T09:31:35.000Z</time>
      </trkpt>
      <trkpt lat="45.70456" lon="4.56244">
        <ele>871</ele>
        <time>2012-05-08T09:31:39.000Z</time>
      </trkpt>
      <trkpt lat="45.70452" lon="4.56248">
        <ele>871</ele>
        <time>2012-05-08T09:31:42.000Z</time>
      </trkpt>
      <trkpt lat="45.70448" lon="4.56252">
        <ele>871</ele>
        <time>2012-05-08T09:31:45.000Z</time>
      </trkpt>
      <trkpt lat="45.70444" lon="4.56255">
        <ele>871</ele>
        <time>2012-05-08T09:31:48.000Z</time>
      </trkpt>
      <trkpt lat="45.70439" lon="4.5626">
        <ele>871</ele>
        <time>2012-05-08T09:31:52.000Z</time>
      </trkpt>
      <trkpt lat="45.70435" lon="4.56266">
        <ele>871</ele>
        <time>2012-05-08T09:31:56.000Z</time>
      </trkpt>
      <trkpt lat="45.70431" lon="4.56271">
        <ele>871</ele>
        <time>2012-05-08T09:32:00.000Z</time>
      </trkpt>
      <trkpt lat="45.70428" lon="4.56276">
        <ele>871</ele>
        <time>2012-05-08T09:32:07.000Z</time>
      </trkpt>
      <trkpt lat="45.70424" lon="4.5628">
        <ele>871</ele>
        <time>2012-05-08T09:32:09.000Z</time>
      </trkpt>
      <trkpt lat="45.70419" lon="4.56284">
        <ele>871</ele>
        <time>2012-05-08T09:32:12.000Z</time>
      </trkpt>
      <trkpt lat="45.70414" lon="4.56289">
        <ele>871</ele>
        <time>2012-05-08T09:32:16.000Z</time>
      </trkpt>
      <trkpt lat="45.7041" lon="4.56292">
        <ele>871</ele>
        <time>2012-05-08T09:32:21.000Z</time>
      </trkpt>
      <trkpt lat="45.70406" lon="4.56296">
        <ele>871</ele>
        <time>2012-05-08T09:32:28.000Z</time>
      </trkpt>
      <trkpt lat="45.70402" lon="4.56298">
        <ele>871</ele>
        <time>2012-05-08T09:32:35.000Z</time>
      </trkpt>
      <trkpt lat="45.70397" lon="4.563">
        <ele>872</ele>
        <time>2012-05-08T09:32:41.000Z</time>
      </trkpt>
      <trkpt lat="45.70392" lon="4.56302">
        <ele>872</ele>
        <time>2012-05-08T09:32:46.000Z</time>
      </trkpt>
      <trkpt lat="45.70388" lon="4.56305">
        <ele>872</ele>
        <time>2012-05-08T09:32:51.000Z</time>
      </trkpt>
      <trkpt lat="45.70383" lon="4.56308">
        <ele>872</ele>
        <time>2012-05-08T09:32:55.000Z</time>
      </trkpt>
      <trkpt lat="45.70379" lon="4.56311">
        <ele>872</ele>
        <time>2012-05-08T09:33:00.000Z</time>
      </trkpt>
      <trkpt lat="45.70376" lon="4.56315">
        <ele>872</ele>
        <time>2012-05-08T09:33:04.000Z</time>
      </trkpt>
      <trkpt lat="45.70372" lon="4.5632">
        <ele>872</ele>
        <time>2012-05-08T09:33:08.000Z</time>
      </trkpt>
      <trkpt lat="45.70368" lon="4.56326">
        <ele>872</ele>
        <time>2012-05-08T09:33:12.000Z</time>
      </trkpt>
      <trkpt lat="45.70365" lon="4.56331">
        <ele>872</ele>
        <time>2012-05-08T09:33:15.000Z</time>
      </trkpt>
      <trkpt lat="45.70362" lon="4.56336">
        <ele>872</ele>
        <time>2012-05-08T09:33:18.000Z</time>
      </trkpt>
      <trkpt lat="45.70358" lon="4.5634">
        <ele>872</ele>
        <time>2012-05-08T09:33:21.000Z</time>
      </trkpt>
      <trkpt lat="45.70355" lon="4.56345">
        <ele>872</ele>
        <time>2012-05-08T09:33:24.000Z</time>
      </trkpt>
      <trkpt lat="45.70351" lon="4.5635">
        <ele>872</ele>
        <time>2012-05-08T09:33:28.000Z</time>
      </trkpt>
      <trkpt lat="45.70347" lon="4.56355">
        <ele>872</ele>
        <time>2012-05-08T09:33:32.000Z</time>
      </trkpt>
      <trkpt lat="45.70342" lon="4.5636">
        <ele>872</ele>
        <time>2012-05-08T09:33:36.000Z</time>
      </trkpt>
      <trkpt lat="45.70338" lon="4.56364">
        <ele>872</ele>
        <time>2012-05-08T09:33:39.000Z</time>
      </trkpt>
      <trkpt lat="45.70334" lon="4.56367">
        <ele>872</ele>
        <time>2012-05-08T09:33:42.000Z</time>
      </trkpt>
      <trkpt lat="45.70328" lon="4.5637">
        <ele>872</ele>
        <time>2012-05-08T09:33:46.000Z</time>
      </trkpt>
      <trkpt lat="45.70324" lon="4.56374">
        <ele>872</ele>
        <time>2012-05-08T09:33:49.000Z</time>
      </trkpt>
      <trkpt lat="45.70319" lon="4.56377">
        <ele>872</ele>
        <time>2012-05-08T09:33:52.000Z</time>
      </trkpt>
      <trkpt lat="45.70315" lon="4.56381">
        <ele>872</ele>
        <time>2012-05-08T09:33:55.000Z</time>
      </trkpt>
      <trkpt lat="45.70311" lon="4.56384">
        <ele>872</ele>
        <time>2012-05-08T09:33:58.000Z</time>
      </trkpt>
      <trkpt lat="45.70306" lon="4.56387">
        <ele>872</ele>
        <time>2012-05-08T09:34:01.000Z</time>
      </trkpt>
      <trkpt lat="45.70301" lon="4.5639">
        <ele>872</ele>
        <time>2012-05-08T09:34:05.000Z</time>
      </trkpt>
      <trkpt lat="45.70296" lon="4.56394">
        <ele>872</ele>
        <time>2012-05-08T09:34:09.000Z</time>
      </trkpt>
      <trkpt lat="45.70292" lon="4.56397">
        <ele>872</ele>
        <time>2012-05-08T09:34:13.000Z</time>
      </trkpt>
      <trkpt lat="45.70287" lon="4.56399">
        <ele>872</ele>
        <time>2012-05-08T09:34:17.000Z</time>
      </trkpt>
      <trkpt lat="45.70282" lon="4.56402">
        <ele>872</ele>
        <time>2012-05-08T09:34:22.000Z</time>
      </trkpt>
      <trkpt lat="45.70277" lon="4.56404">
        <ele>872</ele>
        <time>2012-05-08T09:34:26.999Z</time>
      </trkpt>
      <trkpt lat="45.70272" lon="4.56405">
        <ele>872</ele>
        <time>2012-05-08T09:34:31.999Z</time>
      </trkpt>
      <trkpt lat="45.70267" lon="4.56406">
        <ele>872</ele>
        <time>2012-05-08T09:34:36.999Z</time>
      </trkpt>
      <trkpt lat="45.70262" lon="4.56407">
        <ele>872</ele>
        <time>2012-05-08T09:34:41.999Z</time>
      </trkpt>
      <trkpt lat="45.70257" lon="4.56408">
        <ele>872</ele>
        <time>2012-05-08T09:34:46.999Z</time>
      </trkpt>
      <trkpt lat="45.70252" lon="4.56408">
        <ele>872</ele>
        <time>2012-05-08T09:34:51.999Z</time>
      </trkpt>
      <trkpt lat="45.70248" lon="4.56408">
        <ele>872</ele>
        <time>2012-05-08T09:34:56.999Z</time>
      </trkpt>
      <trkpt lat="45.70243" lon="4.56408">
        <ele>872</ele>
        <time>2012-05-08T09:35:01.999Z</time>
      </trkpt>
      <trkpt lat="45.70237" lon="4.56408">
        <ele>872</ele>
        <time>2012-05-08T09:35:06.999Z</time>
      </trkpt>
      <trkpt lat="45.70232" lon="4.56408">
        <ele>872</ele>
        <time>2012-05-08T09:35:11.999Z</time>
      </trkpt>
      <trkpt lat="45.70227" lon="4.56406">
        <ele>872</ele>
        <time>2012-05-08T09:35:16.999Z</time>
      </trkpt>
      <trkpt lat="45.70222" lon="4.56405">
        <ele>873</ele>
        <time>2012-05-08T09:35:21.999Z</time>
      </trkpt>
      <trkpt lat="45.70217" lon="4.56404">
        <ele>873</ele>
        <time>2012-05-08T09:35:26.999Z</time>
      </trkpt>
      <trkpt lat="45.70212" lon="4.56404">
        <ele>873</ele>
        <time>2012-05-08T09:35:31.999Z</time>
      </trkpt>
      <trkpt lat="45.70206" lon="4.56403">
        <ele>873</ele>
        <time>2012-05-08T09:35:36.999Z</time>
      </trkpt>
      <trkpt lat="45.70201" lon="4.56403">
        <ele>873</ele>
        <time>2012-05-08T09:35:41.999Z</time>
      </trkpt>
      <trkpt lat="45.70196" lon="4.56403">
        <ele>873</ele>
        <time>2012-05-08T09:35:46.999Z</time>
      </trkpt>
      <trkpt lat="45.70191" lon="4.56403">
        <ele>873</ele>
        <time>2012-05-08T09:35:51.999Z</time>
      </trkpt>
      <trkpt lat="45.70185" lon="4.56402">
        <ele>873</ele>
        <time>2012-05-08T09:35:56.999Z</time>
      </trkpt>
      <trkpt lat="45.7018" lon="4.56401">
        <ele>872</ele>
        <time>2012-05-08T09:36:01.999Z</time>
      </trkpt>
      <trkpt lat="45.70174" lon="4.56401">
        <ele>872</ele>
        <time>2012-05-08T09:36:06.999Z</time>
      </trkpt>
      <trkpt lat="45.70169" lon="4.564">
        <ele>872</ele>
        <time>2012-05-08T09:36:11.999Z</time>
      </trkpt>
      <trkpt lat="45.70163" lon="4.564">
        <ele>873</ele>
        <time>2012-05-08T09:36:16.999Z</time>
      </trkpt>
      <trkpt lat="45.70158" lon="4.564">
        <ele>873</ele>
        <time>2012-05-08T09:36:21.999Z</time>
      </trkpt>
      <trkpt lat="45.70152" lon="4.564">
        <ele>873</ele>
        <time>2012-05-08T09:36:26.999Z</time>
      </trkpt>
      <trkpt lat="45.70147" lon="4.564">
        <ele>873</ele>
        <time>2012-05-08T09:36:31.999Z</time>
      </trkpt>
      <trkpt lat="45.70142" lon="4.56401">
        <ele>873</ele>
        <time>2012-05-08T09:36:36.999Z</time>
      </trkpt>
      <trkpt lat="45.70137" lon="4.56401">
        <ele>873</ele>
        <time>2012-05-08T09:36:41.999Z</time>
      </trkpt>
      <trkpt lat="45.70132" lon="4.56402">
        <ele>873</ele>
        <time>2012-05-08T09:36:46.999Z</time>
      </trkpt>
      <trkpt lat="45.70127" lon="4.56403">
        <ele>873</ele>
        <time>2012-05-08T09:36:52.999Z</time>
      </trkpt>
      <trkpt lat="45.70122" lon="4.56406">
        <ele>873</ele>
        <time>2012-05-08T09:36:58.999Z</time>
      </trkpt>
      <trkpt lat="45.70118" lon="4.5641">
        <ele>873</ele>
        <time>2012-05-08T09:37:04.999Z</time>
      </trkpt>
      <trkpt lat="45.70117" lon="4.56417">
        <ele>873</ele>
        <time>2012-05-08T09:37:08.999Z</time>
      </trkpt>
      <trkpt lat="45.70116" lon="4.56425">
        <ele>873</ele>
        <time>2012-05-08T09:37:12.999Z</time>
      </trkpt>
      <trkpt lat="45.70116" lon="4.56433">
        <ele>873</ele>
        <time>2012-05-08T09:37:16.999Z</time>
      </trkpt>
      <trkpt lat="45.70115" lon="4.56441">
        <ele>873</ele>
        <time>2012-05-08T09:37:20.999Z</time>
      </trkpt>
      <trkpt lat="45.70114" lon="4.56448">
        <ele>873</ele>
        <time>2012-05-08T09:37:24.999Z</time>
      </trkpt>
      <trkpt lat="45.70112" lon="4.56454">
        <ele>873</ele>
        <time>2012-05-08T09:37:28.999Z</time>
      </trkpt>
      <trkpt lat="45.70112" lon="4.5646">
        <ele>873</ele>
        <time>2012-05-08T09:37:32.999Z</time>
      </trkpt>
      <trkpt lat="45.70113" lon="4.56467">
        <ele>873</ele>
        <time>2012-05-08T09:37:35.999Z</time>
      </trkpt>
      <trkpt lat="45.70114" lon="4.56474">
        <ele>873</ele>
        <time>2012-05-08T09:37:39.999Z</time>
      </trkpt>
      <trkpt lat="45.70115" lon="4.56481">
        <ele>873</ele>
        <time>2012-05-08T09:37:44.999Z</time>
      </trkpt>
      <trkpt lat="45.70116" lon="4.56487">
        <ele>873</ele>
        <time>2012-05-08T09:37:51.999Z</time>
      </trkpt>
      <trkpt lat="45.70114" lon="4.56494">
        <ele>873</ele>
        <time>2012-05-08T09:38:00.999Z</time>
      </trkpt>
      <trkpt lat="45.70112" lon="4.565">
        <ele>873</ele>
        <time>2012-05-08T09:38:10.999Z</time>
      </trkpt>
      <trkpt lat="45.70106" lon="4.56496">
        <ele>874</ele>
        <time>2012-05-08T09:38:50.999Z</time>
      </trkpt>
      <trkpt lat="45.70102" lon="4.56492">
        <ele>874</ele>
        <time>2012-05-08T09:38:53.999Z</time>
      </trkpt>
      <trkpt lat="45.70098" lon="4.56488">
        <ele>874</ele>
        <time>2012-05-08T09:38:57.999Z</time>
      </trkpt>
      <trkpt lat="45.70094" lon="4.56485">
        <ele>874</ele>
        <time>2012-05-08T09:39:04.999Z</time>
      </trkpt>
      <trkpt lat="45.70089" lon="4.56485">
        <ele>875</ele>
        <time>2012-05-08T09:39:15.999Z</time>
      </trkpt>
      <trkpt lat="45.70094" lon="4.56484">
        <ele>875</ele>
        <time>2012-05-08T09:39:42.999Z</time>
      </trkpt>
      <trkpt lat="45.70099" lon="4.56481">
        <ele>875</ele>
        <time>2012-05-08T09:39:46.999Z</time>
      </trkpt>
      <trkpt lat="45.70105" lon="4.5648">
        <ele>875</ele>
        <time>2012-05-08T09:39:49.999Z</time>
      </trkpt>
      <trkpt lat="45.70109" lon="4.56477">
        <ele>875</ele>
        <time>2012-05-08T09:39:51.999Z</time>
      </trkpt>
      <trkpt lat="45.70117" lon="4.5647">
        <ele>875</ele>
        <time>2012-05-08T09:39:53.999Z</time>
      </trkpt>
      <trkpt lat="45.70121" lon="4.56466">
        <ele>875</ele>
        <time>2012-05-08T09:39:54.999Z</time>
      </trkpt>
      <trkpt lat="45.70128" lon="4.56461">
        <ele>875</ele>
        <time>2012-05-08T09:39:56.999Z</time>
      </trkpt>
      <trkpt lat="45.70132" lon="4.56458">
        <ele>875</ele>
        <time>2012-05-08T09:39:58.999Z</time>
      </trkpt>
      <trkpt lat="45.70136" lon="4.56456">
        <ele>875</ele>
        <time>2012-05-08T09:40:02.999Z</time>
      </trkpt>
      <trkpt lat="45.7014" lon="4.56451">
        <ele>875</ele>
        <time>2012-05-08T09:40:08.999Z</time>
      </trkpt>
      <trkpt lat="45.70144" lon="4.56448">
        <ele>875</ele>
        <time>2012-05-08T09:40:19.999Z</time>
      </trkpt>
      <trkpt lat="45.70139" lon="4.56444">
        <ele>875</ele>
        <time>2012-05-08T09:41:04.999Z</time>
      </trkpt>
      <trkpt lat="45.70135" lon="4.56443">
        <ele>875</ele>
        <time>2012-05-08T09:41:33.999Z</time>
      </trkpt>
      <trkpt lat="45.7013" lon="4.56442">
        <ele>876</ele>
        <time>2012-05-08T09:41:46.999Z</time>
      </trkpt>
      <trkpt lat="45.70124" lon="4.56442">
        <ele>876</ele>
        <time>2012-05-08T09:41:53.999Z</time>
      </trkpt>
      <trkpt lat="45.70119" lon="4.56443">
        <ele>876</ele>
        <time>2012-05-08T09:41:58.999Z</time>
      </trkpt>
      <trkpt lat="45.70114" lon="4.56444">
        <ele>876</ele>
        <time>2012-05-08T09:42:02.999Z</time>
      </trkpt>
      <trkpt lat="45.70109" lon="4.56445">
        <ele>876</ele>
        <time>2012-05-08T09:42:06.999Z</time>
      </trkpt>
      <trkpt lat="45.70104" lon="4.56447">
        <ele>876</ele>
        <time>2012-05-08T09:42:10.999Z</time>
      </trkpt>
      <trkpt lat="45.70099" lon="4.56448">
        <ele>876</ele>
        <time>2012-05-08T09:42:14.999Z</time>
      </trkpt>
      <trkpt lat="45.70094" lon="4.5645">
        <ele>876</ele>
        <time>2012-05-08T09:42:18.999Z</time>
      </trkpt>
      <trkpt lat="45.70089" lon="4.56452">
        <ele>876</ele>
        <time>2012-05-08T09:42:22.999Z</time>
      </trkpt>
      <trkpt lat="45.70084" lon="4.56454">
        <ele>877</ele>
        <time>2012-05-08T09:42:26.999Z</time>
      </trkpt>
      <trkpt lat="45.70079" lon="4.56456">
        <ele>877</ele>
        <time>2012-05-08T09:42:30.999Z</time>
      </trkpt>
      <trkpt lat="45.70074" lon="4.56458">
        <ele>877</ele>
        <time>2012-05-08T09:42:34.999Z</time>
      </trkpt>
      <trkpt lat="45.70069" lon="4.56461">
        <ele>877</ele>
        <time>2012-05-08T09:42:38.999Z</time>
      </trkpt>
      <trkpt lat="45.70065" lon="4.56463">
        <ele>877</ele>
        <time>2012-05-08T09:42:42.999Z</time>
      </trkpt>
      <trkpt lat="45.7006" lon="4.56466">
        <ele>877</ele>
        <time>2012-05-08T09:42:46.999Z</time>
      </trkpt>
      <trkpt lat="45.70055" lon="4.56468">
        <ele>877</ele>
        <time>2012-05-08T09:42:50.999Z</time>
      </trkpt>
      <trkpt lat="45.7005" lon="4.5647">
        <ele>877</ele>
        <time>2012-05-08T09:42:54.999Z</time>
      </trkpt>
      <trkpt lat="45.70046" lon="4.56473">
        <ele>877</ele>
        <time>2012-05-08T09:42:58.999Z</time>
      </trkpt>
      <trkpt lat="45.70042" lon="4.56475">
        <ele>877</ele>
        <time>2012-05-08T09:43:02.999Z</time>
      </trkpt>
      <trkpt lat="45.70036" lon="4.56478">
        <ele>878</ele>
        <time>2012-05-08T09:43:07.999Z</time>
      </trkpt>
      <trkpt lat="45.70031" lon="4.5648">
        <ele>878</ele>
        <time>2012-05-08T09:43:11.999Z</time>
      </trkpt>
      <trkpt lat="45.70027" lon="4.56481">
        <ele>878</ele>
        <time>2012-05-08T09:43:15.999Z</time>
      </trkpt>
      <trkpt lat="45.70022" lon="4.56483">
        <ele>878</ele>
        <time>2012-05-08T09:43:19.999Z</time>
      </trkpt>
      <trkpt lat="45.70017" lon="4.56484">
        <ele>878</ele>
        <time>2012-05-08T09:43:24.999Z</time>
      </trkpt>
      <trkpt lat="45.70013" lon="4.56487">
        <ele>878</ele>
        <time>2012-05-08T09:43:34.999Z</time>
      </trkpt>
      <trkpt lat="45.70008" lon="4.56489">
        <ele>878</ele>
        <time>2012-05-08T09:43:42.999Z</time>
      </trkpt>
      <trkpt lat="45.70004" lon="4.56491">
        <ele>878</ele>
        <time>2012-05-08T09:43:49.999Z</time>
      </trkpt>
      <trkpt lat="45.69999" lon="4.56494">
        <ele>878</ele>
        <time>2012-05-08T09:43:58.999Z</time>
      </trkpt>
      <trkpt lat="45.69995" lon="4.56496">
        <ele>878</ele>
        <time>2012-05-08T09:44:05.999Z</time>
      </trkpt>
      <trkpt lat="45.6999" lon="4.56497">
        <ele>878</ele>
        <time>2012-05-08T09:44:12.999Z</time>
      </trkpt>
      <trkpt lat="45.69985" lon="4.56496">
        <ele>879</ele>
        <time>2012-05-08T09:44:18.999Z</time>
      </trkpt>
      <trkpt lat="45.6998" lon="4.56494">
        <ele>879</ele>
        <time>2012-05-08T09:44:23.999Z</time>
      </trkpt>
      <trkpt lat="45.69974" lon="4.56492">
        <ele>879</ele>
        <time>2012-05-08T09:44:28.999Z</time>
      </trkpt>
      <trkpt lat="45.69969" lon="4.5649">
        <ele>879</ele>
        <time>2012-05-08T09:44:33.999Z</time>
      </trkpt>
      <trkpt lat="45.69965" lon="4.56488">
        <ele>879</ele>
        <time>2012-05-08T09:44:37.999Z</time>
      </trkpt>
      <trkpt lat="45.69959" lon="4.56486">
        <ele>879</ele>
        <time>2012-05-08T09:44:42.999Z</time>
      </trkpt>
      <trkpt lat="45.69954" lon="4.56486">
        <ele>879</ele>
        <time>2012-05-08T09:44:46.999Z</time>
      </trkpt>
      <trkpt lat="45.6995" lon="4.56485">
        <ele>879</ele>
        <time>2012-05-08T09:44:50.999Z</time>
      </trkpt>
      <trkpt lat="45.69945" lon="4.56484">
        <ele>879</ele>
        <time>2012-05-08T09:44:54.999Z</time>
      </trkpt>
      <trkpt lat="45.69939" lon="4.56484">
        <ele>879</ele>
        <time>2012-05-08T09:44:58.999Z</time>
      </trkpt>
      <trkpt lat="45.69934" lon="4.56483">
        <ele>879</ele>
        <time>2012-05-08T09:45:02.999Z</time>
      </trkpt>
      <trkpt lat="45.69929" lon="4.56483">
        <ele>879</ele>
        <time>2012-05-08T09:45:06.999Z</time>
      </trkpt>
      <trkpt lat="45.69924" lon="4.56483">
        <ele>880</ele>
        <time>2012-05-08T09:45:10.999Z</time>
      </trkpt>
      <trkpt lat="45.6992" lon="4.56483">
        <ele>880</ele>
        <time>2012-05-08T09:45:14.999Z</time>
      </trkpt>
      <trkpt lat="45.69914" lon="4.56482">
        <ele>880</ele>
        <time>2012-05-08T09:45:18.999Z</time>
      </trkpt>
      <trkpt lat="45.69909" lon="4.56482">
        <ele>880</ele>
        <time>2012-05-08T09:45:23.999Z</time>
      </trkpt>
      <trkpt lat="45.69904" lon="4.56482">
        <ele>880</ele>
        <time>2012-05-08T09:45:28.999Z</time>
      </trkpt>
      <trkpt lat="45.69899" lon="4.56483">
        <ele>880</ele>
        <time>2012-05-08T09:45:32.999Z</time>
      </trkpt>
      <trkpt lat="45.69894" lon="4.56484">
        <ele>880</ele>
        <time>2012-05-08T09:45:36.999Z</time>
      </trkpt>
      <trkpt lat="45.69889" lon="4.56485">
        <ele>880</ele>
        <time>2012-05-08T09:45:40.999Z</time>
      </trkpt>
      <trkpt lat="45.69884" lon="4.56486">
        <ele>880</ele>
        <time>2012-05-08T09:45:44.999Z</time>
      </trkpt>
      <trkpt lat="45.6988" lon="4.56487">
        <ele>880</ele>
        <time>2012-05-08T09:45:48.999Z</time>
      </trkpt>
      <trkpt lat="45.69874" lon="4.56489">
        <ele>880</ele>
        <time>2012-05-08T09:45:53.999Z</time>
      </trkpt>
      <trkpt lat="45.6987" lon="4.5649">
        <ele>880</ele>
        <time>2012-05-08T09:45:57.999Z</time>
      </trkpt>
      <trkpt lat="45.69865" lon="4.56492">
        <ele>880</ele>
        <time>2012-05-08T09:46:01.999Z</time>
      </trkpt>
      <trkpt lat="45.6986" lon="4.56493">
        <ele>881</ele>
        <time>2012-05-08T09:46:05.999Z</time>
      </trkpt>
      <trkpt lat="45.69855" lon="4.56495">
        <ele>881</ele>
        <time>2012-05-08T09:46:11.999Z</time>
      </trkpt>
      <trkpt lat="45.69851" lon="4.56496">
        <ele>881</ele>
        <time>2012-05-08T09:46:16.999Z</time>
      </trkpt>
      <trkpt lat="45.69846" lon="4.56498">
        <ele>881</ele>
        <time>2012-05-08T09:46:22.999Z</time>
      </trkpt>
      <trkpt lat="45.69841" lon="4.56498">
        <ele>881</ele>
        <time>2012-05-08T09:46:28.999Z</time>
      </trkpt>
      <trkpt lat="45.69835" lon="4.56498">
        <ele>881</ele>
        <time>2012-05-08T09:46:33.999Z</time>
      </trkpt>
      <trkpt lat="45.69829" lon="4.56497">
        <ele>881</ele>
        <time>2012-05-08T09:46:37.999Z</time>
      </trkpt>
      <trkpt lat="45.69823" lon="4.56496">
        <ele>881</ele>
        <time>2012-05-08T09:46:41.999Z</time>
      </trkpt>
      <trkpt lat="45.69818" lon="4.56494">
        <ele>881</ele>
        <time>2012-05-08T09:46:45.999Z</time>
      </trkpt>
      <trkpt lat="45.69813" lon="4.56492">
        <ele>881</ele>
        <time>2012-05-08T09:46:49.999Z</time>
      </trkpt>
      <trkpt lat="45.69808" lon="4.5649">
        <ele>881</ele>
        <time>2012-05-08T09:46:54.999Z</time>
      </trkpt>
      <trkpt lat="45.69803" lon="4.56489">
        <ele>881</ele>
        <time>2012-05-08T09:46:59.999Z</time>
      </trkpt>
      <trkpt lat="45.69798" lon="4.56488">
        <ele>881</ele>
        <time>2012-05-08T09:47:04.999Z</time>
      </trkpt>
      <trkpt lat="45.69793" lon="4.56487">
        <ele>880</ele>
        <time>2012-05-08T09:47:10.999Z</time>
      </trkpt>
      <trkpt lat="45.69788" lon="4.56486">
        <ele>880</ele>
        <time>2012-05-08T09:47:18.999Z</time>
      </trkpt>
      <trkpt lat="45.69783" lon="4.56485">
        <ele>880</ele>
        <time>2012-05-08T09:47:25.999Z</time>
      </trkpt>
      <trkpt lat="45.69778" lon="4.56484">
        <ele>880</ele>
        <time>2012-05-08T09:47:31.999Z</time>
      </trkpt>
      <trkpt lat="45.69774" lon="4.56483">
        <ele>880</ele>
        <time>2012-05-08T09:47:36.999Z</time>
      </trkpt>
      <trkpt lat="45.69769" lon="4.56482">
        <ele>880</ele>
        <time>2012-05-08T09:47:41.999Z</time>
      </trkpt>
      <trkpt lat="45.69764" lon="4.5648">
        <ele>880</ele>
        <time>2012-05-08T09:47:46.999Z</time>
      </trkpt>
      <trkpt lat="45.6976" lon="4.56477">
        <ele>880</ele>
        <time>2012-05-08T09:47:52.999Z</time>
      </trkpt>
      <trkpt lat="45.69755" lon="4.56475">
        <ele>880</ele>
        <time>2012-05-08T09:47:59.999Z</time>
      </trkpt>
      <trkpt lat="45.6975" lon="4.56473">
        <ele>881</ele>
        <time>2012-05-08T09:48:05.999Z</time>
      </trkpt>
      <trkpt lat="45.69745" lon="4.56473">
        <ele>881</ele>
        <time>2012-05-08T09:48:11.999Z</time>
      </trkpt>
      <trkpt lat="45.6974" lon="4.56472">
        <ele>881</ele>
        <time>2012-05-08T09:48:17.999Z</time>
      </trkpt>
      <trkpt lat="45.69735" lon="4.5647">
        <ele>881</ele>
        <time>2012-05-08T09:48:23.999Z</time>
      </trkpt>
      <trkpt lat="45.6973" lon="4.56468">
        <ele>881</ele>
        <time>2012-05-08T09:48:31.999Z</time>
      </trkpt>
      <trkpt lat="45.69726" lon="4.56465">
        <ele>881</ele>
        <time>2012-05-08T09:48:37.999Z</time>
      </trkpt>
      <trkpt lat="45.69722" lon="4.56463">
        <ele>881</ele>
        <time>2012-05-08T09:48:42.999Z</time>
      </trkpt>
      <trkpt lat="45.69717" lon="4.56463">
        <ele>882</ele>
        <time>2012-05-08T09:48:46.999Z</time>
      </trkpt>
      <trkpt lat="45.69712" lon="4.56462">
        <ele>882</ele>
        <time>2012-05-08T09:48:50.999Z</time>
      </trkpt>
      <trkpt lat="45.69707" lon="4.56459">
        <ele>882</ele>
        <time>2012-05-08T09:48:55.999Z</time>
      </trkpt>
      <trkpt lat="45.69702" lon="4.56457">
        <ele>883</ele>
        <time>2012-05-08T09:49:01.999Z</time>
      </trkpt>
      <trkpt lat="45.69697" lon="4.56456">
        <ele>883</ele>
        <time>2012-05-08T09:49:05.999Z</time>
      </trkpt>
      <trkpt lat="45.69692" lon="4.56454">
        <ele>883</ele>
        <time>2012-05-08T09:49:10.999Z</time>
      </trkpt>
      <trkpt lat="45.69687" lon="4.56452">
        <ele>883</ele>
        <time>2012-05-08T09:49:18.999Z</time>
      </trkpt>
      <trkpt lat="45.69682" lon="4.5645">
        <ele>884</ele>
        <time>2012-05-08T09:49:24.999Z</time>
      </trkpt>
      <trkpt lat="45.69677" lon="4.56449">
        <ele>884</ele>
        <time>2012-05-08T09:49:30.999Z</time>
      </trkpt>
      <trkpt lat="45.69672" lon="4.56448">
        <ele>885</ele>
        <time>2012-05-08T09:49:34.999Z</time>
      </trkpt>
      <trkpt lat="45.69667" lon="4.56446">
        <ele>885</ele>
        <time>2012-05-08T09:49:39.999Z</time>
      </trkpt>
      <trkpt lat="45.69662" lon="4.56445">
        <ele>886</ele>
        <time>2012-05-08T09:49:43.999Z</time>
      </trkpt>
      <trkpt lat="45.69658" lon="4.56444">
        <ele>886</ele>
        <time>2012-05-08T09:49:47.999Z</time>
      </trkpt>
      <trkpt lat="45.69652" lon="4.56443">
        <ele>886</ele>
        <time>2012-05-08T09:49:52.999Z</time>
      </trkpt>
      <trkpt lat="45.69647" lon="4.56442">
        <ele>886</ele>
        <time>2012-05-08T09:49:57.999Z</time>
      </trkpt>
      <trkpt lat="45.69642" lon="4.56442">
        <ele>886</ele>
        <time>2012-05-08T09:50:02.999Z</time>
      </trkpt>
      <trkpt lat="45.69637" lon="4.56442">
        <ele>886</ele>
        <time>2012-05-08T09:50:08.999Z</time>
      </trkpt>
      <trkpt lat="45.69632" lon="4.56443">
        <ele>886</ele>
        <time>2012-05-08T09:50:14.999Z</time>
      </trkpt>
      <trkpt lat="45.69627" lon="4.56443">
        <ele>887</ele>
        <time>2012-05-08T09:50:20.999Z</time>
      </trkpt>
      <trkpt lat="45.69621" lon="4.56446">
        <ele>887</ele>
        <time>2012-05-08T09:50:25.999Z</time>
      </trkpt>
      <trkpt lat="45.69616" lon="4.56449">
        <ele>887</ele>
        <time>2012-05-08T09:50:29.999Z</time>
      </trkpt>
      <trkpt lat="45.69612" lon="4.56451">
        <ele>887</ele>
        <time>2012-05-08T09:50:33.999Z</time>
      </trkpt>
      <trkpt lat="45.69607" lon="4.56453">
        <ele>887</ele>
        <time>2012-05-08T09:50:38.999Z</time>
      </trkpt>
      <trkpt lat="45.69602" lon="4.56455">
        <ele>887</ele>
        <time>2012-05-08T09:50:43.999Z</time>
      </trkpt>
      <trkpt lat="45.69597" lon="4.56456">
        <ele>887</ele>
        <time>2012-05-08T09:50:49.999Z</time>
      </trkpt>
      <trkpt lat="45.69592" lon="4.56457">
        <ele>887</ele>
        <time>2012-05-08T09:50:56.999Z</time>
      </trkpt>
      <trkpt lat="45.69586" lon="4.56457">
        <ele>887</ele>
        <time>2012-05-08T09:51:02.999Z</time>
      </trkpt>
      <trkpt lat="45.69581" lon="4.56458">
        <ele>888</ele>
        <time>2012-05-08T09:51:07.999Z</time>
      </trkpt>
      <trkpt lat="45.69577" lon="4.56458">
        <ele>888</ele>
        <time>2012-05-08T09:51:11.999Z</time>
      </trkpt>
      <trkpt lat="45.69572" lon="4.56459">
        <ele>888</ele>
        <time>2012-05-08T09:51:15.999Z</time>
      </trkpt>
      <trkpt lat="45.69567" lon="4.5646">
        <ele>888</ele>
        <time>2012-05-08T09:51:19.999Z</time>
      </trkpt>
      <trkpt lat="45.69562" lon="4.5646">
        <ele>888</ele>
        <time>2012-05-08T09:51:24.999Z</time>
      </trkpt>
      <trkpt lat="45.69558" lon="4.56462">
        <ele>888</ele>
        <time>2012-05-08T09:51:30.999Z</time>
      </trkpt>
      <trkpt lat="45.69553" lon="4.56464">
        <ele>888</ele>
        <time>2012-05-08T09:51:35.999Z</time>
      </trkpt>
      <trkpt lat="45.69548" lon="4.56466">
        <ele>888</ele>
        <time>2012-05-08T09:51:39.999Z</time>
      </trkpt>
      <trkpt lat="45.69543" lon="4.56468">
        <ele>888</ele>
        <time>2012-05-08T09:51:43.999Z</time>
      </trkpt>
      <trkpt lat="45.69538" lon="4.5647">
        <ele>888</ele>
        <time>2012-05-08T09:51:47.999Z</time>
      </trkpt>
      <trkpt lat="45.69532" lon="4.56473">
        <ele>888</ele>
        <time>2012-05-08T09:51:51.999Z</time>
      </trkpt>
      <trkpt lat="45.69527" lon="4.56476">
        <ele>888</ele>
        <time>2012-05-08T09:51:55.999Z</time>
      </trkpt>
      <trkpt lat="45.69522" lon="4.56478">
        <ele>888</ele>
        <time>2012-05-08T09:52:00.999Z</time>
      </trkpt>
      <trkpt lat="45.69517" lon="4.5648">
        <ele>889</ele>
        <time>2012-05-08T09:52:05.999Z</time>
      </trkpt>
      <trkpt lat="45.69512" lon="4.56482">
        <ele>889</ele>
        <time>2012-05-08T09:52:10.999Z</time>
      </trkpt>
      <trkpt lat="45.69507" lon="4.56483">
        <ele>889</ele>
        <time>2012-05-08T09:52:16.999Z</time>
      </trkpt>
      <trkpt lat="45.69502" lon="4.56485">
        <ele>889</ele>
        <time>2012-05-08T09:52:22.999Z</time>
      </trkpt>
      <trkpt lat="45.69497" lon="4.56488">
        <ele>889</ele>
        <time>2012-05-08T09:52:28.999Z</time>
      </trkpt>
      <trkpt lat="45.69493" lon="4.56489">
        <ele>889</ele>
        <time>2012-05-08T09:52:34.999Z</time>
      </trkpt>
      <trkpt lat="45.69488" lon="4.56492">
        <ele>889</ele>
        <time>2012-05-08T09:52:40.999Z</time>
      </trkpt>
      <trkpt lat="45.69483" lon="4.56493">
        <ele>889</ele>
        <time>2012-05-08T09:52:47.999Z</time>
      </trkpt>
      <trkpt lat="45.69478" lon="4.56493">
        <ele>889</ele>
        <time>2012-05-08T09:52:52.999Z</time>
      </trkpt>
      <trkpt lat="45.69474" lon="4.56494">
        <ele>889</ele>
        <time>2012-05-08T09:52:57.999Z</time>
      </trkpt>
      <trkpt lat="45.69469" lon="4.56496">
        <ele>890</ele>
        <time>2012-05-08T09:53:04.999Z</time>
      </trkpt>
      <trkpt lat="45.69465" lon="4.565">
        <ele>890</ele>
        <time>2012-05-08T09:53:12.999Z</time>
      </trkpt>
      <trkpt lat="45.69461" lon="4.56504">
        <ele>890</ele>
        <time>2012-05-08T09:53:20.999Z</time>
      </trkpt>
      <trkpt lat="45.69457" lon="4.56508">
        <ele>890</ele>
        <time>2012-05-08T09:53:26.999Z</time>
      </trkpt>
      <trkpt lat="45.69452" lon="4.56512">
        <ele>890</ele>
        <time>2012-05-08T09:53:33.999Z</time>
      </trkpt>
      <trkpt lat="45.69448" lon="4.56516">
        <ele>890</ele>
        <time>2012-05-08T09:53:39.999Z</time>
      </trkpt>
      <trkpt lat="45.69444" lon="4.56519">
        <ele>890</ele>
        <time>2012-05-08T09:53:45.999Z</time>
      </trkpt>
      <trkpt lat="45.6944" lon="4.56523">
        <ele>890</ele>
        <time>2012-05-08T09:53:50.999Z</time>
      </trkpt>
      <trkpt lat="45.69435" lon="4.56526">
        <ele>890</ele>
        <time>2012-05-08T09:53:55.999Z</time>
      </trkpt>
      <trkpt lat="45.6943" lon="4.56529">
        <ele>890</ele>
        <time>2012-05-08T09:53:59.999Z</time>
      </trkpt>
      <trkpt lat="45.69425" lon="4.56531">
        <ele>890</ele>
        <time>2012-05-08T09:54:03.999Z</time>
      </trkpt>
      <trkpt lat="45.6942" lon="4.56533">
        <ele>890</ele>
        <time>2012-05-08T09:54:07.999Z</time>
      </trkpt>
      <trkpt lat="45.69415" lon="4.56534">
        <ele>890</ele>
        <time>2012-05-08T09:54:11.999Z</time>
      </trkpt>
      <trkpt lat="45.69409" lon="4.56534">
        <ele>890</ele>
        <time>2012-05-08T09:54:15.999Z</time>
      </trkpt>
      <trkpt lat="45.69403" lon="4.56534">
        <ele>890</ele>
        <time>2012-05-08T09:54:18.999Z</time>
      </trkpt>
      <trkpt lat="45.69398" lon="4.56536">
        <ele>890</ele>
        <time>2012-05-08T09:54:21.999Z</time>
      </trkpt>
      <trkpt lat="45.69394" lon="4.56538">
        <ele>890</ele>
        <time>2012-05-08T09:54:24.999Z</time>
      </trkpt>
      <trkpt lat="45.69389" lon="4.5654">
        <ele>890</ele>
        <time>2012-05-08T09:54:27.999Z</time>
      </trkpt>
      <trkpt lat="45.69385" lon="4.56543">
        <ele>890</ele>
        <time>2012-05-08T09:54:31.999Z</time>
      </trkpt>
      <trkpt lat="45.6938" lon="4.56544">
        <ele>890</ele>
        <time>2012-05-08T09:54:36.999Z</time>
      </trkpt>
      <trkpt lat="45.69375" lon="4.56545">
        <ele>890</ele>
        <time>2012-05-08T09:54:40.999Z</time>
      </trkpt>
      <trkpt lat="45.6937" lon="4.56545">
        <ele>890</ele>
        <time>2012-05-08T09:54:44.999Z</time>
      </trkpt>
      <trkpt lat="45.69365" lon="4.56546">
        <ele>890</ele>
        <time>2012-05-08T09:54:48.999Z</time>
      </trkpt>
      <trkpt lat="45.6936" lon="4.56548">
        <ele>890</ele>
        <time>2012-05-08T09:54:52.999Z</time>
      </trkpt>
      <trkpt lat="45.69354" lon="4.56549">
        <ele>890</ele>
        <time>2012-05-08T09:54:56.999Z</time>
      </trkpt>
      <trkpt lat="45.69349" lon="4.5655">
        <ele>890</ele>
        <time>2012-05-08T09:55:00.999Z</time>
      </trkpt>
      <trkpt lat="45.69344" lon="4.56553">
        <ele>889</ele>
        <time>2012-05-08T09:55:04.999Z</time>
      </trkpt>
      <trkpt lat="45.6934" lon="4.56557">
        <ele>889</ele>
        <time>2012-05-08T09:55:10.999Z</time>
      </trkpt>
      <trkpt lat="45.69335" lon="4.5656">
        <ele>889</ele>
        <time>2012-05-08T09:55:15.999Z</time>
      </trkpt>
      <trkpt lat="45.6933" lon="4.56562">
        <ele>889</ele>
        <time>2012-05-08T09:55:20.999Z</time>
      </trkpt>
      <trkpt lat="45.69326" lon="4.56564">
        <ele>889</ele>
        <time>2012-05-08T09:55:26.999Z</time>
      </trkpt>
      <trkpt lat="45.69321" lon="4.56565">
        <ele>889</ele>
        <time>2012-05-08T09:55:32.999Z</time>
      </trkpt>
      <trkpt lat="45.69316" lon="4.56565">
        <ele>889</ele>
        <time>2012-05-08T09:55:38.999Z</time>
      </trkpt>
      <trkpt lat="45.69311" lon="4.56564">
        <ele>889</ele>
        <time>2012-05-08T09:55:43.999Z</time>
      </trkpt>
      <trkpt lat="45.69306" lon="4.56564">
        <ele>889</ele>
        <time>2012-05-08T09:55:48.999Z</time>
      </trkpt>
      <trkpt lat="45.693" lon="4.56563">
        <ele>889</ele>
        <time>2012-05-08T09:55:54.999Z</time>
      </trkpt>
      <trkpt lat="45.69296" lon="4.56559">
        <ele>889</ele>
        <time>2012-05-08T09:56:03.999Z</time>
      </trkpt>
      <trkpt lat="45.69292" lon="4.56555">
        <ele>888</ele>
        <time>2012-05-08T09:56:13.999Z</time>
      </trkpt>
      <trkpt lat="45.69288" lon="4.56553">
        <ele>888</ele>
        <time>2012-05-08T09:56:22.999Z</time>
      </trkpt>
      <trkpt lat="45.69283" lon="4.56552">
        <ele>888</ele>
        <time>2012-05-08T09:56:34.999Z</time>
      </trkpt>
      <trkpt lat="45.69279" lon="4.56556">
        <ele>888</ele>
        <time>2012-05-08T09:56:39.999Z</time>
      </trkpt>
      <trkpt lat="45.69275" lon="4.56561">
        <ele>888</ele>
        <time>2012-05-08T09:56:43.999Z</time>
      </trkpt>
      <trkpt lat="45.69271" lon="4.56567">
        <ele>888</ele>
        <time>2012-05-08T09:56:47.999Z</time>
      </trkpt>
      <trkpt lat="45.69267" lon="4.56573">
        <ele>888</ele>
        <time>2012-05-08T09:56:51.999Z</time>
      </trkpt>
      <trkpt lat="45.69263" lon="4.56579">
        <ele>888</ele>
        <time>2012-05-08T09:56:55.999Z</time>
      </trkpt>
      <trkpt lat="45.69259" lon="4.56585">
        <ele>888</ele>
        <time>2012-05-08T09:56:59.999Z</time>
      </trkpt>
      <trkpt lat="45.69256" lon="4.56591">
        <ele>888</ele>
        <time>2012-05-08T09:57:03.999Z</time>
      </trkpt>
      <trkpt lat="45.69253" lon="4.56596">
        <ele>887</ele>
        <time>2012-05-08T09:57:07.999Z</time>
      </trkpt>
      <trkpt lat="45.6925" lon="4.56603">
        <ele>887</ele>
        <time>2012-05-08T09:57:11.999Z</time>
      </trkpt>
      <trkpt lat="45.69247" lon="4.56609">
        <ele>887</ele>
        <time>2012-05-08T09:57:15.999Z</time>
      </trkpt>
      <trkpt lat="45.69243" lon="4.56615">
        <ele>887</ele>
        <time>2012-05-08T09:57:19.999Z</time>
      </trkpt>
      <trkpt lat="45.69239" lon="4.56621">
        <ele>887</ele>
        <time>2012-05-08T09:57:23.999Z</time>
      </trkpt>
      <trkpt lat="45.69234" lon="4.56623">
        <ele>887</ele>
        <time>2012-05-08T09:57:27.999Z</time>
      </trkpt>
      <trkpt lat="45.69228" lon="4.56623">
        <ele>887</ele>
        <time>2012-05-08T09:57:30.999Z</time>
      </trkpt>
      <trkpt lat="45.69223" lon="4.56623">
        <ele>886</ele>
        <time>2012-05-08T09:57:32.999Z</time>
      </trkpt>
      <trkpt lat="45.69218" lon="4.56625">
        <ele>886</ele>
        <time>2012-05-08T09:57:34.999Z</time>
      </trkpt>
      <trkpt lat="45.69213" lon="4.56627">
        <ele>886</ele>
        <time>2012-05-08T09:57:36.999Z</time>
      </trkpt>
      <trkpt lat="45.69208" lon="4.5663">
        <ele>886</ele>
        <time>2012-05-08T09:57:40.999Z</time>
      </trkpt>
      <trkpt lat="45.69209" lon="4.56636">
        <ele>885</ele>
        <time>2012-05-08T09:57:56.999Z</time>
      </trkpt>
      <trkpt lat="45.6921" lon="4.56643">
        <ele>885</ele>
        <time>2012-05-08T09:58:11.999Z</time>
      </trkpt>
      <trkpt lat="45.69208" lon="4.5665">
        <ele>883</ele>
        <time>2012-05-08T09:58:22.999Z</time>
      </trkpt>
      <trkpt lat="45.69207" lon="4.56657">
        <ele>882</ele>
        <time>2012-05-08T09:58:26.999Z</time>
      </trkpt>
      <trkpt lat="45.69204" lon="4.56664">
        <ele>882</ele>
        <time>2012-05-08T09:58:30.999Z</time>
      </trkpt>
      <trkpt lat="45.69202" lon="4.5667">
        <ele>881</ele>
        <time>2012-05-08T09:58:33.999Z</time>
      </trkpt>
      <trkpt lat="45.69199" lon="4.56677">
        <ele>881</ele>
        <time>2012-05-08T09:58:37.999Z</time>
      </trkpt>
      <trkpt lat="45.69196" lon="4.56684">
        <ele>880</ele>
        <time>2012-05-08T09:58:41.999Z</time>
      </trkpt>
      <trkpt lat="45.69193" lon="4.5669">
        <ele>880</ele>
        <time>2012-05-08T09:58:45.999Z</time>
      </trkpt>
      <trkpt lat="45.6919" lon="4.56696">
        <ele>880</ele>
        <time>2012-05-08T09:58:49.999Z</time>
      </trkpt>
      <trkpt lat="45.69188" lon="4.56701">
        <ele>879</ele>
        <time>2012-05-08T09:58:53.999Z</time>
      </trkpt>
      <trkpt lat="45.69185" lon="4.56707">
        <ele>879</ele>
        <time>2012-05-08T09:58:57.999Z</time>
      </trkpt>
      <trkpt lat="45.69182" lon="4.56713">
        <ele>879</ele>
        <time>2012-05-08T09:59:01.999Z</time>
      </trkpt>
      <trkpt lat="45.69179" lon="4.56718">
        <ele>878</ele>
        <time>2012-05-08T09:59:05.999Z</time>
      </trkpt>
      <trkpt lat="45.69176" lon="4.56723">
        <ele>878</ele>
        <time>2012-05-08T09:59:09.999Z</time>
      </trkpt>
      <trkpt lat="45.69172" lon="4.56728">
        <ele>878</ele>
        <time>2012-05-08T09:59:14.999Z</time>
      </trkpt>
      <trkpt lat="45.69168" lon="4.56734">
        <ele>877</ele>
        <time>2012-05-08T09:59:19.999Z</time>
      </trkpt>
      <trkpt lat="45.69163" lon="4.56738">
        <ele>877</ele>
        <time>2012-05-08T09:59:24.999Z</time>
      </trkpt>
      <trkpt lat="45.69158" lon="4.56742">
        <ele>877</ele>
        <time>2012-05-08T09:59:29.999Z</time>
      </trkpt>
      <trkpt lat="45.69153" lon="4.56744">
        <ele>877</ele>
        <time>2012-05-08T09:59:34.999Z</time>
      </trkpt>
      <trkpt lat="45.69148" lon="4.56745">
        <ele>877</ele>
        <time>2012-05-08T09:59:39.999Z</time>
      </trkpt>
      <trkpt lat="45.69142" lon="4.56746">
        <ele>876</ele>
        <time>2012-05-08T09:59:44.999Z</time>
      </trkpt>
      <trkpt lat="45.69138" lon="4.56748">
        <ele>876</ele>
        <time>2012-05-08T09:59:49.999Z</time>
      </trkpt>
      <trkpt lat="45.69134" lon="4.56752">
        <ele>876</ele>
        <time>2012-05-08T09:59:54.999Z</time>
      </trkpt>
      <trkpt lat="45.69131" lon="4.56758">
        <ele>875</ele>
        <time>2012-05-08T10:00:03.999Z</time>
      </trkpt>
      <trkpt lat="45.69128" lon="4.56763">
        <ele>874</ele>
        <time>2012-05-08T10:00:16.999Z</time>
      </trkpt>
      <trkpt lat="45.69124" lon="4.56767">
        <ele>874</ele>
        <time>2012-05-08T10:00:22.999Z</time>
      </trkpt>
      <trkpt lat="45.6912" lon="4.56769">
        <ele>874</ele>
        <time>2012-05-08T10:00:26.999Z</time>
      </trkpt>
      <trkpt lat="45.69115" lon="4.56772">
        <ele>873</ele>
        <time>2012-05-08T10:00:30.999Z</time>
      </trkpt>
      <trkpt lat="45.6911" lon="4.56775">
        <ele>873</ele>
        <time>2012-05-08T10:00:34.999Z</time>
      </trkpt>
      <trkpt lat="45.69106" lon="4.56777">
        <ele>873</ele>
        <time>2012-05-08T10:00:38.999Z</time>
      </trkpt>
      <trkpt lat="45.69102" lon="4.5678">
        <ele>872</ele>
        <time>2012-05-08T10:00:42.999Z</time>
      </trkpt>
      <trkpt lat="45.69097" lon="4.56784">
        <ele>872</ele>
        <time>2012-05-08T10:00:47.999Z</time>
      </trkpt>
      <trkpt lat="45.69093" lon="4.56788">
        <ele>872</ele>
        <time>2012-05-08T10:00:51.999Z</time>
      </trkpt>
      <trkpt lat="45.69089" lon="4.56792">
        <ele>872</ele>
        <time>2012-05-08T10:00:55.999Z</time>
      </trkpt>
      <trkpt lat="45.69085" lon="4.56797">
        <ele>871</ele>
        <time>2012-05-08T10:00:59.999Z</time>
      </trkpt>
      <trkpt lat="45.69081" lon="4.56802">
        <ele>871</ele>
        <time>2012-05-08T10:01:03.999Z</time>
      </trkpt>
      <trkpt lat="45.69077" lon="4.56806">
        <ele>871</ele>
        <time>2012-05-08T10:01:07.999Z</time>
      </trkpt>
      <trkpt lat="45.69074" lon="4.56811">
        <ele>871</ele>
        <time>2012-05-08T10:01:11.999Z</time>
      </trkpt>
      <trkpt lat="45.69071" lon="4.56816">
        <ele>871</ele>
        <time>2012-05-08T10:01:15.999Z</time>
      </trkpt>
      <trkpt lat="45.69066" lon="4.56821">
        <ele>870</ele>
        <time>2012-05-08T10:01:20.999Z</time>
      </trkpt>
      <trkpt lat="45.69063" lon="4.56827">
        <ele>870</ele>
        <time>2012-05-08T10:01:25.999Z</time>
      </trkpt>
      <trkpt lat="45.69059" lon="4.56831">
        <ele>870</ele>
        <time>2012-05-08T10:01:29.999Z</time>
      </trkpt>
      <trkpt lat="45.69056" lon="4.56836">
        <ele>870</ele>
        <time>2012-05-08T10:01:33.999Z</time>
      </trkpt>
      <trkpt lat="45.69052" lon="4.5684">
        <ele>870</ele>
        <time>2012-05-08T10:01:37.999Z</time>
      </trkpt>
      <trkpt lat="45.69049" lon="4.56845">
        <ele>870</ele>
        <time>2012-05-08T10:01:41.999Z</time>
      </trkpt>
      <trkpt lat="45.69046" lon="4.5685">
        <ele>870</ele>
        <time>2012-05-08T10:01:45.999Z</time>
      </trkpt>
      <trkpt lat="45.69043" lon="4.56856">
        <ele>869</ele>
        <time>2012-05-08T10:01:49.999Z</time>
      </trkpt>
      <trkpt lat="45.69041" lon="4.56862">
        <ele>869</ele>
        <time>2012-05-08T10:01:53.999Z</time>
      </trkpt>
      <trkpt lat="45.69038" lon="4.56868">
        <ele>869</ele>
        <time>2012-05-08T10:01:57.999Z</time>
      </trkpt>
      <trkpt lat="45.69036" lon="4.56874">
        <ele>869</ele>
        <time>2012-05-08T10:02:01.999Z</time>
      </trkpt>
      <trkpt lat="45.69034" lon="4.56881">
        <ele>869</ele>
        <time>2012-05-08T10:02:05.999Z</time>
      </trkpt>
      <trkpt lat="45.69033" lon="4.56888">
        <ele>869</ele>
        <time>2012-05-08T10:02:09.999Z</time>
      </trkpt>
      <trkpt lat="45.6903" lon="4.56894">
        <ele>869</ele>
        <time>2012-05-08T10:02:13.999Z</time>
      </trkpt>
      <trkpt lat="45.69028" lon="4.569">
        <ele>869</ele>
        <time>2012-05-08T10:02:17.999Z</time>
      </trkpt>
      <trkpt lat="45.69027" lon="4.56906">
        <ele>868</ele>
        <time>2012-05-08T10:02:26.999Z</time>
      </trkpt>
      <trkpt lat="45.69026" lon="4.56913">
        <ele>868</ele>
        <time>2012-05-08T10:02:34.999Z</time>
      </trkpt>
      <trkpt lat="45.69024" lon="4.5692">
        <ele>868</ele>
        <time>2012-05-08T10:02:40.999Z</time>
      </trkpt>
      <trkpt lat="45.69022" lon="4.56927">
        <ele>868</ele>
        <time>2012-05-08T10:02:45.999Z</time>
      </trkpt>
      <trkpt lat="45.69021" lon="4.56933">
        <ele>867</ele>
        <time>2012-05-08T10:02:49.999Z</time>
      </trkpt>
      <trkpt lat="45.69019" lon="4.5694">
        <ele>867</ele>
        <time>2012-05-08T10:02:53.999Z</time>
      </trkpt>
      <trkpt lat="45.69017" lon="4.56947">
        <ele>867</ele>
        <time>2012-05-08T10:02:57.999Z</time>
      </trkpt>
      <trkpt lat="45.69015" lon="4.56953">
        <ele>867</ele>
        <time>2012-05-08T10:03:01.999Z</time>
      </trkpt>
      <trkpt lat="45.69012" lon="4.5696">
        <ele>867</ele>
        <time>2012-05-08T10:03:06.999Z</time>
      </trkpt>
      <trkpt lat="45.6901" lon="4.56966">
        <ele>867</ele>
        <time>2012-05-08T10:03:11.999Z</time>
      </trkpt>
      <trkpt lat="45.69007" lon="4.56973">
        <ele>866</ele>
        <time>2012-05-08T10:03:16.999Z</time>
      </trkpt>
      <trkpt lat="45.69005" lon="4.5698">
        <ele>866</ele>
        <time>2012-05-08T10:03:21.999Z</time>
      </trkpt>
      <trkpt lat="45.69003" lon="4.56986">
        <ele>866</ele>
        <time>2012-05-08T10:03:26.999Z</time>
      </trkpt>
      <trkpt lat="45.69" lon="4.56992">
        <ele>866</ele>
        <time>2012-05-08T10:03:31.999Z</time>
      </trkpt>
      <trkpt lat="45.68997" lon="4.56998">
        <ele>866</ele>
        <time>2012-05-08T10:03:36.999Z</time>
      </trkpt>
      <trkpt lat="45.68994" lon="4.57003">
        <ele>866</ele>
        <time>2012-05-08T10:03:41.999Z</time>
      </trkpt>
      <trkpt lat="45.6899" lon="4.57008">
        <ele>865</ele>
        <time>2012-05-08T10:03:46.999Z</time>
      </trkpt>
      <trkpt lat="45.68986" lon="4.57012">
        <ele>865</ele>
        <time>2012-05-08T10:03:51.999Z</time>
      </trkpt>
      <trkpt lat="45.68982" lon="4.57015">
        <ele>865</ele>
        <time>2012-05-08T10:03:55.999Z</time>
      </trkpt>
      <trkpt lat="45.68977" lon="4.57019">
        <ele>865</ele>
        <time>2012-05-08T10:03:59.999Z</time>
      </trkpt>
      <trkpt lat="45.68972" lon="4.57022">
        <ele>865</ele>
        <time>2012-05-08T10:04:03.999Z</time>
      </trkpt>
      <trkpt lat="45.68968" lon="4.57026">
        <ele>865</ele>
        <time>2012-05-08T10:04:07.999Z</time>
      </trkpt>
      <trkpt lat="45.68963" lon="4.57029">
        <ele>865</ele>
        <time>2012-05-08T10:04:11.999Z</time>
      </trkpt>
      <trkpt lat="45.68959" lon="4.57033">
        <ele>864</ele>
        <time>2012-05-08T10:04:15.999Z</time>
      </trkpt>
      <trkpt lat="45.68955" lon="4.57038">
        <ele>864</ele>
        <time>2012-05-08T10:04:19.999Z</time>
      </trkpt>
      <trkpt lat="45.6895" lon="4.57042">
        <ele>864</ele>
        <time>2012-05-08T10:04:23.999Z</time>
      </trkpt>
      <trkpt lat="45.68945" lon="4.57044">
        <ele>864</ele>
        <time>2012-05-08T10:04:27.999Z</time>
      </trkpt>
      <trkpt lat="45.6894" lon="4.57044">
        <ele>864</ele>
        <time>2012-05-08T10:04:30.999Z</time>
      </trkpt>
      <trkpt lat="45.68934" lon="4.57043">
        <ele>864</ele>
        <time>2012-05-08T10:04:34.999Z</time>
      </trkpt>
      <trkpt lat="45.68929" lon="4.57044">
        <ele>864</ele>
        <time>2012-05-08T10:04:38.999Z</time>
      </trkpt>
      <trkpt lat="45.68924" lon="4.57046">
        <ele>864</ele>
        <time>2012-05-08T10:04:42.999Z</time>
      </trkpt>
      <trkpt lat="45.68919" lon="4.57048">
        <ele>864</ele>
        <time>2012-05-08T10:04:46.999Z</time>
      </trkpt>
      <trkpt lat="45.68914" lon="4.57051">
        <ele>864</ele>
        <time>2012-05-08T10:04:50.999Z</time>
      </trkpt>
      <trkpt lat="45.6891" lon="4.57054">
        <ele>864</ele>
        <time>2012-05-08T10:04:54.999Z</time>
      </trkpt>
      <trkpt lat="45.68906" lon="4.57058">
        <ele>863</ele>
        <time>2012-05-08T10:04:58.999Z</time>
      </trkpt>
      <trkpt lat="45.68902" lon="4.57062">
        <ele>863</ele>
        <time>2012-05-08T10:05:02.999Z</time>
      </trkpt>
      <trkpt lat="45.68898" lon="4.57066">
        <ele>863</ele>
        <time>2012-05-08T10:05:06.999Z</time>
      </trkpt>
      <trkpt lat="45.68894" lon="4.5707">
        <ele>863</ele>
        <time>2012-05-08T10:05:10.999Z</time>
      </trkpt>
      <trkpt lat="45.6889" lon="4.57074">
        <ele>863</ele>
        <time>2012-05-08T10:05:14.999Z</time>
      </trkpt>
      <trkpt lat="45.68888" lon="4.57079">
        <ele>863</ele>
        <time>2012-05-08T10:05:18.999Z</time>
      </trkpt>
      <trkpt lat="45.68885" lon="4.57085">
        <ele>863</ele>
        <time>2012-05-08T10:05:22.999Z</time>
      </trkpt>
      <trkpt lat="45.68884" lon="4.57091">
        <ele>863</ele>
        <time>2012-05-08T10:05:26.999Z</time>
      </trkpt>
      <trkpt lat="45.68882" lon="4.57097">
        <ele>862</ele>
        <time>2012-05-08T10:05:30.999Z</time>
      </trkpt>
      <trkpt lat="45.68881" lon="4.57105">
        <ele>862</ele>
        <time>2012-05-08T10:05:35.999Z</time>
      </trkpt>
      <trkpt lat="45.6888" lon="4.57112">
        <ele>862</ele>
        <time>2012-05-08T10:05:40.999Z</time>
      </trkpt>
      <trkpt lat="45.68879" lon="4.5712">
        <ele>862</ele>
        <time>2012-05-08T10:05:45.999Z</time>
      </trkpt>
      <trkpt lat="45.68878" lon="4.57126">
        <ele>861</ele>
        <time>2012-05-08T10:05:49.999Z</time>
      </trkpt>
      <trkpt lat="45.68878" lon="4.57134">
        <ele>861</ele>
        <time>2012-05-08T10:05:54.999Z</time>
      </trkpt>
      <trkpt lat="45.68877" lon="4.57142">
        <ele>861</ele>
        <time>2012-05-08T10:05:59.999Z</time>
      </trkpt>
      <trkpt lat="45.68876" lon="4.57148">
        <ele>861</ele>
        <time>2012-05-08T10:06:03.999Z</time>
      </trkpt>
      <trkpt lat="45.68874" lon="4.57155">
        <ele>860</ele>
        <time>2012-05-08T10:06:07.999Z</time>
      </trkpt>
      <trkpt lat="45.68873" lon="4.57161">
        <ele>860</ele>
        <time>2012-05-08T10:06:11.999Z</time>
      </trkpt>
      <trkpt lat="45.68871" lon="4.57167">
        <ele>860</ele>
        <time>2012-05-08T10:06:15.999Z</time>
      </trkpt>
      <trkpt lat="45.68869" lon="4.57174">
        <ele>859</ele>
        <time>2012-05-08T10:06:20.999Z</time>
      </trkpt>
      <trkpt lat="45.68868" lon="4.5718">
        <ele>859</ele>
        <time>2012-05-08T10:06:24.999Z</time>
      </trkpt>
      <trkpt lat="45.68867" lon="4.57186">
        <ele>859</ele>
        <time>2012-05-08T10:06:28.999Z</time>
      </trkpt>
      <trkpt lat="45.68864" lon="4.57193">
        <ele>859</ele>
        <time>2012-05-08T10:06:33.999Z</time>
      </trkpt>
      <trkpt lat="45.68862" lon="4.572">
        <ele>858</ele>
        <time>2012-05-08T10:06:38.999Z</time>
      </trkpt>
      <trkpt lat="45.6886" lon="4.57207">
        <ele>858</ele>
        <time>2012-05-08T10:06:43.999Z</time>
      </trkpt>
      <trkpt lat="45.68858" lon="4.57213">
        <ele>857</ele>
        <time>2012-05-08T10:06:47.999Z</time>
      </trkpt>
      <trkpt lat="45.68856" lon="4.57219">
        <ele>857</ele>
        <time>2012-05-08T10:06:51.999Z</time>
      </trkpt>
      <trkpt lat="45.68853" lon="4.57226">
        <ele>857</ele>
        <time>2012-05-08T10:06:56.999Z</time>
      </trkpt>
      <trkpt lat="45.6885" lon="4.57233">
        <ele>856</ele>
        <time>2012-05-08T10:07:01.999Z</time>
      </trkpt>
      <trkpt lat="45.68848" lon="4.57238">
        <ele>856</ele>
        <time>2012-05-08T10:07:05.999Z</time>
      </trkpt>
      <trkpt lat="45.68845" lon="4.57243">
        <ele>856</ele>
        <time>2012-05-08T10:07:10.999Z</time>
      </trkpt>
      <trkpt lat="45.68842" lon="4.57249">
        <ele>855</ele>
        <time>2012-05-08T10:07:22.999Z</time>
      </trkpt>
      <trkpt lat="45.68839" lon="4.57256">
        <ele>854</ele>
        <time>2012-05-08T10:07:27.999Z</time>
      </trkpt>
      <trkpt lat="45.68835" lon="4.57262">
        <ele>854</ele>
        <time>2012-05-08T10:07:32.999Z</time>
      </trkpt>
      <trkpt lat="45.68832" lon="4.57267">
        <ele>853</ele>
        <time>2012-05-08T10:07:36.999Z</time>
      </trkpt>
      <trkpt lat="45.68829" lon="4.57273">
        <ele>853</ele>
        <time>2012-05-08T10:07:40.999Z</time>
      </trkpt>
      <trkpt lat="45.68826" lon="4.57278">
        <ele>853</ele>
        <time>2012-05-08T10:07:44.999Z</time>
      </trkpt>
      <trkpt lat="45.68823" lon="4.57282">
        <ele>852</ele>
        <time>2012-05-08T10:07:48.999Z</time>
      </trkpt>
      <trkpt lat="45.6882" lon="4.57287">
        <ele>852</ele>
        <time>2012-05-08T10:07:52.999Z</time>
      </trkpt>
      <trkpt lat="45.68817" lon="4.57292">
        <ele>852</ele>
        <time>2012-05-08T10:07:56.999Z</time>
      </trkpt>
      <trkpt lat="45.68814" lon="4.57297">
        <ele>851</ele>
        <time>2012-05-08T10:08:00.999Z</time>
      </trkpt>
      <trkpt lat="45.68811" lon="4.57302">
        <ele>851</ele>
        <time>2012-05-08T10:08:04.999Z</time>
      </trkpt>
      <trkpt lat="45.68808" lon="4.57307">
        <ele>851</ele>
        <time>2012-05-08T10:08:08.999Z</time>
      </trkpt>
      <trkpt lat="45.68804" lon="4.57312">
        <ele>851</ele>
        <time>2012-05-08T10:08:12.999Z</time>
      </trkpt>
      <trkpt lat="45.68801" lon="4.57317">
        <ele>850</ele>
        <time>2012-05-08T10:08:16.999Z</time>
      </trkpt>
      <trkpt lat="45.68798" lon="4.57322">
        <ele>850</ele>
        <time>2012-05-08T10:08:20.999Z</time>
      </trkpt>
      <trkpt lat="45.68794" lon="4.57328">
        <ele>850</ele>
        <time>2012-05-08T10:08:24.999Z</time>
      </trkpt>
      <trkpt lat="45.68791" lon="4.57334">
        <ele>849</ele>
        <time>2012-05-08T10:08:28.999Z</time>
      </trkpt>
      <trkpt lat="45.68788" lon="4.57339">
        <ele>849</ele>
        <time>2012-05-08T10:08:32.999Z</time>
      </trkpt>
      <trkpt lat="45.68785" lon="4.57345">
        <ele>849</ele>
        <time>2012-05-08T10:08:36.999Z</time>
      </trkpt>
      <trkpt lat="45.68782" lon="4.5735">
        <ele>849</ele>
        <time>2012-05-08T10:08:40.999Z</time>
      </trkpt>
      <trkpt lat="45.68779" lon="4.57355">
        <ele>848</ele>
        <time>2012-05-08T10:08:44.999Z</time>
      </trkpt>
      <trkpt lat="45.68775" lon="4.5736">
        <ele>848</ele>
        <time>2012-05-08T10:08:48.999Z</time>
      </trkpt>
      <trkpt lat="45.68772" lon="4.57366">
        <ele>848</ele>
        <time>2012-05-08T10:08:53.999Z</time>
      </trkpt>
      <trkpt lat="45.68768" lon="4.57371">
        <ele>848</ele>
        <time>2012-05-08T10:08:58.999Z</time>
      </trkpt>
      <trkpt lat="45.68765" lon="4.57377">
        <ele>848</ele>
        <time>2012-05-08T10:09:03.999Z</time>
      </trkpt>
      <trkpt lat="45.68762" lon="4.57384">
        <ele>847</ele>
        <time>2012-05-08T10:09:08.999Z</time>
      </trkpt>
      <trkpt lat="45.6876" lon="4.57389">
        <ele>847</ele>
        <time>2012-05-08T10:09:13.999Z</time>
      </trkpt>
      <trkpt lat="45.68757" lon="4.57395">
        <ele>847</ele>
        <time>2012-05-08T10:09:18.999Z</time>
      </trkpt>
      <trkpt lat="45.68754" lon="4.57402">
        <ele>846</ele>
        <time>2012-05-08T10:09:23.999Z</time>
      </trkpt>
      <trkpt lat="45.6875" lon="4.57407">
        <ele>846</ele>
        <time>2012-05-08T10:09:28.999Z</time>
      </trkpt>
      <trkpt lat="45.68747" lon="4.57414">
        <ele>846</ele>
        <time>2012-05-08T10:09:33.999Z</time>
      </trkpt>
      <trkpt lat="45.68743" lon="4.57419">
        <ele>845</ele>
        <time>2012-05-08T10:09:38.999Z</time>
      </trkpt>
      <trkpt lat="45.68741" lon="4.57424">
        <ele>845</ele>
        <time>2012-05-08T10:09:44.999Z</time>
      </trkpt>
      <trkpt lat="45.68738" lon="4.5743">
        <ele>844</ele>
        <time>2012-05-08T10:09:50.999Z</time>
      </trkpt>
      <trkpt lat="45.68734" lon="4.57435">
        <ele>844</ele>
        <time>2012-05-08T10:09:55.999Z</time>
      </trkpt>
      <trkpt lat="45.6873" lon="4.57441">
        <ele>843</ele>
        <time>2012-05-08T10:10:00.999Z</time>
      </trkpt>
      <trkpt lat="45.68727" lon="4.57446">
        <ele>842</ele>
        <time>2012-05-08T10:10:05.999Z</time>
      </trkpt>
      <trkpt lat="45.68723" lon="4.57452">
        <ele>842</ele>
        <time>2012-05-08T10:10:10.999Z</time>
      </trkpt>
      <trkpt lat="45.6872" lon="4.57458">
        <ele>841</ele>
        <time>2012-05-08T10:10:15.999Z</time>
      </trkpt>
      <trkpt lat="45.68716" lon="4.57463">
        <ele>841</ele>
        <time>2012-05-08T10:10:20.999Z</time>
      </trkpt>
      <trkpt lat="45.68713" lon="4.57469">
        <ele>840</ele>
        <time>2012-05-08T10:10:25.999Z</time>
      </trkpt>
      <trkpt lat="45.6871" lon="4.57475">
        <ele>839</ele>
        <time>2012-05-08T10:10:30.999Z</time>
      </trkpt>
      <trkpt lat="45.68706" lon="4.5748">
        <ele>839</ele>
        <time>2012-05-08T10:10:35.999Z</time>
      </trkpt>
      <trkpt lat="45.68703" lon="4.57485">
        <ele>839</ele>
        <time>2012-05-08T10:10:39.999Z</time>
      </trkpt>
      <trkpt lat="45.687" lon="4.5749">
        <ele>838</ele>
        <time>2012-05-08T10:10:47.999Z</time>
      </trkpt>
      <trkpt lat="45.68697" lon="4.57496">
        <ele>837</ele>
        <time>2012-05-08T10:10:51.999Z</time>
      </trkpt>
      <trkpt lat="45.68693" lon="4.57501">
        <ele>837</ele>
        <time>2012-05-08T10:10:55.999Z</time>
      </trkpt>
      <trkpt lat="45.6869" lon="4.57505">
        <ele>837</ele>
        <time>2012-05-08T10:10:59.999Z</time>
      </trkpt>
      <trkpt lat="45.68687" lon="4.5751">
        <ele>836</ele>
        <time>2012-05-08T10:11:03.999Z</time>
      </trkpt>
      <trkpt lat="45.68684" lon="4.57515">
        <ele>836</ele>
        <time>2012-05-08T10:11:07.999Z</time>
      </trkpt>
      <trkpt lat="45.68681" lon="4.57519">
        <ele>835</ele>
        <time>2012-05-08T10:11:11.999Z</time>
      </trkpt>
      <trkpt lat="45.68677" lon="4.57525">
        <ele>835</ele>
        <time>2012-05-08T10:11:16.999Z</time>
      </trkpt>
      <trkpt lat="45.68674" lon="4.5753">
        <ele>834</ele>
        <time>2012-05-08T10:11:20.999Z</time>
      </trkpt>
      <trkpt lat="45.6867" lon="4.57535">
        <ele>834</ele>
        <time>2012-05-08T10:11:24.999Z</time>
      </trkpt>
      <trkpt lat="45.68667" lon="4.57539">
        <ele>833</ele>
        <time>2012-05-08T10:11:28.999Z</time>
      </trkpt>
      <trkpt lat="45.68663" lon="4.57544">
        <ele>833</ele>
        <time>2012-05-08T10:11:32.999Z</time>
      </trkpt>
      <trkpt lat="45.6866" lon="4.57549">
        <ele>833</ele>
        <time>2012-05-08T10:11:36.999Z</time>
      </trkpt>
      <trkpt lat="45.68657" lon="4.57553">
        <ele>832</ele>
        <time>2012-05-08T10:11:40.999Z</time>
      </trkpt>
      <trkpt lat="45.68654" lon="4.57558">
        <ele>832</ele>
        <time>2012-05-08T10:11:44.999Z</time>
      </trkpt>
      <trkpt lat="45.6865" lon="4.57564">
        <ele>832</ele>
        <time>2012-05-08T10:11:48.999Z</time>
      </trkpt>
      <trkpt lat="45.68646" lon="4.57569">
        <ele>832</ele>
        <time>2012-05-08T10:11:52.999Z</time>
      </trkpt>
      <trkpt lat="45.68642" lon="4.57574">
        <ele>831</ele>
        <time>2012-05-08T10:11:56.999Z</time>
      </trkpt>
      <trkpt lat="45.68638" lon="4.57576">
        <ele>831</ele>
        <time>2012-05-08T10:12:01.999Z</time>
      </trkpt>
      <trkpt lat="45.68634" lon="4.5758">
        <ele>830</ele>
        <time>2012-05-08T10:12:06.999Z</time>
      </trkpt>
      <trkpt lat="45.68629" lon="4.57582">
        <ele>830</ele>
        <time>2012-05-08T10:12:12.999Z</time>
      </trkpt>
      <trkpt lat="45.68628" lon="4.57589">
        <ele>829</ele>
        <time>2012-05-08T10:12:28.999Z</time>
      </trkpt>
      <trkpt lat="45.68626" lon="4.57596">
        <ele>829</ele>
        <time>2012-05-08T10:12:34.999Z</time>
      </trkpt>
      <trkpt lat="45.68623" lon="4.57602">
        <ele>828</ele>
        <time>2012-05-08T10:12:39.999Z</time>
      </trkpt>
      <trkpt lat="45.68621" lon="4.57609">
        <ele>828</ele>
        <time>2012-05-08T10:12:46.999Z</time>
      </trkpt>
      <trkpt lat="45.68618" lon="4.57614">
        <ele>827</ele>
        <time>2012-05-08T10:12:52.999Z</time>
      </trkpt>
      <trkpt lat="45.68615" lon="4.57621">
        <ele>827</ele>
        <time>2012-05-08T10:12:58.999Z</time>
      </trkpt>
      <trkpt lat="45.68612" lon="4.57628">
        <ele>827</ele>
        <time>2012-05-08T10:13:03.999Z</time>
      </trkpt>
      <trkpt lat="45.6861" lon="4.57634">
        <ele>826</ele>
        <time>2012-05-08T10:13:15.999Z</time>
      </trkpt>
      <trkpt lat="45.68606" lon="4.57639">
        <ele>826</ele>
        <time>2012-05-08T10:13:19.999Z</time>
      </trkpt>
      <trkpt lat="45.68603" lon="4.57644">
        <ele>826</ele>
        <time>2012-05-08T10:13:23.999Z</time>
      </trkpt>
      <trkpt lat="45.68599" lon="4.57649">
        <ele>825</ele>
        <time>2012-05-08T10:13:27.999Z</time>
      </trkpt>
      <trkpt lat="45.68596" lon="4.57654">
        <ele>825</ele>
        <time>2012-05-08T10:13:31.999Z</time>
      </trkpt>
      <trkpt lat="45.68592" lon="4.57658">
        <ele>825</ele>
        <time>2012-05-08T10:13:37.999Z</time>
      </trkpt>
      <trkpt lat="45.68588" lon="4.57662">
        <ele>824</ele>
        <time>2012-05-08T10:13:47.999Z</time>
      </trkpt>
      <trkpt lat="45.68589" lon="4.57669">
        <ele>824</ele>
        <time>2012-05-08T10:13:54.999Z</time>
      </trkpt>
      <trkpt lat="45.68589" lon="4.57675">
        <ele>824</ele>
        <time>2012-05-08T10:13:59.999Z</time>
      </trkpt>
      <trkpt lat="45.68588" lon="4.57681">
        <ele>824</ele>
        <time>2012-05-08T10:14:03.999Z</time>
      </trkpt>
      <trkpt lat="45.68585" lon="4.57688">
        <ele>824</ele>
        <time>2012-05-08T10:14:08.999Z</time>
      </trkpt>
      <trkpt lat="45.68582" lon="4.57694">
        <ele>823</ele>
        <time>2012-05-08T10:14:13.999Z</time>
      </trkpt>
      <trkpt lat="45.68579" lon="4.57701">
        <ele>823</ele>
        <time>2012-05-08T10:14:18.999Z</time>
      </trkpt>
      <trkpt lat="45.68577" lon="4.57708">
        <ele>823</ele>
        <time>2012-05-08T10:14:23.999Z</time>
      </trkpt>
      <trkpt lat="45.68575" lon="4.57715">
        <ele>823</ele>
        <time>2012-05-08T10:14:28.999Z</time>
      </trkpt>
      <trkpt lat="45.68573" lon="4.57721">
        <ele>823</ele>
        <time>2012-05-08T10:14:33.999Z</time>
      </trkpt>
      <trkpt lat="45.68571" lon="4.57729">
        <ele>823</ele>
        <time>2012-05-08T10:14:38.999Z</time>
      </trkpt>
      <trkpt lat="45.6857" lon="4.57736">
        <ele>823</ele>
        <time>2012-05-08T10:14:43.999Z</time>
      </trkpt>
      <trkpt lat="45.68568" lon="4.57743">
        <ele>823</ele>
        <time>2012-05-08T10:14:48.999Z</time>
      </trkpt>
      <trkpt lat="45.68567" lon="4.57751">
        <ele>823</ele>
        <time>2012-05-08T10:14:53.999Z</time>
      </trkpt>
      <trkpt lat="45.68568" lon="4.57757">
        <ele>823</ele>
        <time>2012-05-08T10:15:03.999Z</time>
      </trkpt>
      <trkpt lat="45.68569" lon="4.57763">
        <ele>823</ele>
        <time>2012-05-08T10:15:13.999Z</time>
      </trkpt>
      <trkpt lat="45.68569" lon="4.5777">
        <ele>823</ele>
        <time>2012-05-08T10:15:19.999Z</time>
      </trkpt>
      <trkpt lat="45.68569" lon="4.57776">
        <ele>823</ele>
        <time>2012-05-08T10:15:24.999Z</time>
      </trkpt>
      <trkpt lat="45.68569" lon="4.57783">
        <ele>823</ele>
        <time>2012-05-08T10:15:28.999Z</time>
      </trkpt>
      <trkpt lat="45.68567" lon="4.5779">
        <ele>822</ele>
        <time>2012-05-08T10:15:33.999Z</time>
      </trkpt>
      <trkpt lat="45.68565" lon="4.57796">
        <ele>822</ele>
        <time>2012-05-08T10:15:38.999Z</time>
      </trkpt>
      <trkpt lat="45.68562" lon="4.57803">
        <ele>822</ele>
        <time>2012-05-08T10:15:43.999Z</time>
      </trkpt>
      <trkpt lat="45.68559" lon="4.57808">
        <ele>822</ele>
        <time>2012-05-08T10:15:47.999Z</time>
      </trkpt>
      <trkpt lat="45.68557" lon="4.57814">
        <ele>822</ele>
        <time>2012-05-08T10:15:51.999Z</time>
      </trkpt>
      <trkpt lat="45.68555" lon="4.5782">
        <ele>822</ele>
        <time>2012-05-08T10:15:55.999Z</time>
      </trkpt>
      <trkpt lat="45.68553" lon="4.57826">
        <ele>822</ele>
        <time>2012-05-08T10:15:59.999Z</time>
      </trkpt>
      <trkpt lat="45.6855" lon="4.57832">
        <ele>821</ele>
        <time>2012-05-08T10:16:04.999Z</time>
      </trkpt>
      <trkpt lat="45.68548" lon="4.57838">
        <ele>821</ele>
        <time>2012-05-08T10:16:14.999Z</time>
      </trkpt>
      <trkpt lat="45.68548" lon="4.57845">
        <ele>821</ele>
        <time>2012-05-08T10:16:22.999Z</time>
      </trkpt>
      <trkpt lat="45.68548" lon="4.57852">
        <ele>821</ele>
        <time>2012-05-08T10:16:27.999Z</time>
      </trkpt>
      <trkpt lat="45.68548" lon="4.57859">
        <ele>821</ele>
        <time>2012-05-08T10:16:31.999Z</time>
      </trkpt>
      <trkpt lat="45.68548" lon="4.57866">
        <ele>821</ele>
        <time>2012-05-08T10:16:35.999Z</time>
      </trkpt>
      <trkpt lat="45.68548" lon="4.57873">
        <ele>821</ele>
        <time>2012-05-08T10:16:39.999Z</time>
      </trkpt>
      <trkpt lat="45.68548" lon="4.5788">
        <ele>821</ele>
        <time>2012-05-08T10:16:43.999Z</time>
      </trkpt>
      <trkpt lat="45.68549" lon="4.57887">
        <ele>821</ele>
        <time>2012-05-08T10:16:47.999Z</time>
      </trkpt>
      <trkpt lat="45.68551" lon="4.57894">
        <ele>821</ele>
        <time>2012-05-08T10:16:51.999Z</time>
      </trkpt>
      <trkpt lat="45.68553" lon="4.579">
        <ele>821</ele>
        <time>2012-05-08T10:16:55.999Z</time>
      </trkpt>
      <trkpt lat="45.68554" lon="4.57906">
        <ele>821</ele>
        <time>2012-05-08T10:16:59.999Z</time>
      </trkpt>
      <trkpt lat="45.68554" lon="4.57913">
        <ele>821</ele>
        <time>2012-05-08T10:17:03.999Z</time>
      </trkpt>
      <trkpt lat="45.68555" lon="4.5792">
        <ele>821</ele>
        <time>2012-05-08T10:17:07.999Z</time>
      </trkpt>
      <trkpt lat="45.68556" lon="4.57927">
        <ele>821</ele>
        <time>2012-05-08T10:17:11.999Z</time>
      </trkpt>
      <trkpt lat="45.68556" lon="4.57934">
        <ele>821</ele>
        <time>2012-05-08T10:17:15.999Z</time>
      </trkpt>
      <trkpt lat="45.68556" lon="4.5794">
        <ele>821</ele>
        <time>2012-05-08T10:17:19.999Z</time>
      </trkpt>
      <trkpt lat="45.68556" lon="4.57947">
        <ele>821</ele>
        <time>2012-05-08T10:17:23.999Z</time>
      </trkpt>
      <trkpt lat="45.68556" lon="4.57954">
        <ele>821</ele>
        <time>2012-05-08T10:17:27.999Z</time>
      </trkpt>
      <trkpt lat="45.68556" lon="4.5796">
        <ele>820</ele>
        <time>2012-05-08T10:17:31.999Z</time>
      </trkpt>
      <trkpt lat="45.68557" lon="4.57968">
        <ele>820</ele>
        <time>2012-05-08T10:17:36.999Z</time>
      </trkpt>
      <trkpt lat="45.68557" lon="4.57975">
        <ele>820</ele>
        <time>2012-05-08T10:17:41.999Z</time>
      </trkpt>
      <trkpt lat="45.68557" lon="4.57982">
        <ele>820</ele>
        <time>2012-05-08T10:17:46.999Z</time>
      </trkpt>
      <trkpt lat="45.68557" lon="4.57989">
        <ele>820</ele>
        <time>2012-05-08T10:17:51.999Z</time>
      </trkpt>
      <trkpt lat="45.68556" lon="4.57996">
        <ele>820</ele>
        <time>2012-05-08T10:17:56.999Z</time>
      </trkpt>
      <trkpt lat="45.68554" lon="4.58002">
        <ele>820</ele>
        <time>2012-05-08T10:18:01.999Z</time>
      </trkpt>
      <trkpt lat="45.68553" lon="4.5801">
        <ele>820</ele>
        <time>2012-05-08T10:18:06.999Z</time>
      </trkpt>
      <trkpt lat="45.68552" lon="4.58017">
        <ele>820</ele>
        <time>2012-05-08T10:18:10.999Z</time>
      </trkpt>
      <trkpt lat="45.68551" lon="4.58023">
        <ele>820</ele>
        <time>2012-05-08T10:18:14.999Z</time>
      </trkpt>
      <trkpt lat="45.6855" lon="4.5803">
        <ele>820</ele>
        <time>2012-05-08T10:18:18.999Z</time>
      </trkpt>
      <trkpt lat="45.68548" lon="4.58037">
        <ele>820</ele>
        <time>2012-05-08T10:18:22.999Z</time>
      </trkpt>
      <trkpt lat="45.68546" lon="4.58044">
        <ele>820</ele>
        <time>2012-05-08T10:18:26.999Z</time>
      </trkpt>
      <trkpt lat="45.68544" lon="4.58051">
        <ele>820</ele>
        <time>2012-05-08T10:18:30.999Z</time>
      </trkpt>
      <trkpt lat="45.68542" lon="4.58058">
        <ele>820</ele>
        <time>2012-05-08T10:18:34.999Z</time>
      </trkpt>
      <trkpt lat="45.6854" lon="4.58065">
        <ele>820</ele>
        <time>2012-05-08T10:18:38.999Z</time>
      </trkpt>
      <trkpt lat="45.68538" lon="4.58072">
        <ele>820</ele>
        <time>2012-05-08T10:18:42.999Z</time>
      </trkpt>
      <trkpt lat="45.68536" lon="4.5808">
        <ele>820</ele>
        <time>2012-05-08T10:18:46.999Z</time>
      </trkpt>
      <trkpt lat="45.68534" lon="4.58088">
        <ele>820</ele>
        <time>2012-05-08T10:18:50.999Z</time>
      </trkpt>
      <trkpt lat="45.68532" lon="4.58095">
        <ele>820</ele>
        <time>2012-05-08T10:18:54.999Z</time>
      </trkpt>
      <trkpt lat="45.68531" lon="4.58102">
        <ele>820</ele>
        <time>2012-05-08T10:18:58.999Z</time>
      </trkpt>
      <trkpt lat="45.6853" lon="4.58109">
        <ele>820</ele>
        <time>2012-05-08T10:19:02.999Z</time>
      </trkpt>
      <trkpt lat="45.68528" lon="4.58116">
        <ele>820</ele>
        <time>2012-05-08T10:19:06.999Z</time>
      </trkpt>
      <trkpt lat="45.68526" lon="4.58122">
        <ele>820</ele>
        <time>2012-05-08T10:19:10.999Z</time>
      </trkpt>
      <trkpt lat="45.68524" lon="4.5813">
        <ele>820</ele>
        <time>2012-05-08T10:19:14.999Z</time>
      </trkpt>
      <trkpt lat="45.68523" lon="4.58137">
        <ele>820</ele>
        <time>2012-05-08T10:19:18.999Z</time>
      </trkpt>
      <trkpt lat="45.68521" lon="4.58143">
        <ele>820</ele>
        <time>2012-05-08T10:19:22.999Z</time>
      </trkpt>
      <trkpt lat="45.68519" lon="4.5815">
        <ele>820</ele>
        <time>2012-05-08T10:19:26.999Z</time>
      </trkpt>
      <trkpt lat="45.68518" lon="4.58157">
        <ele>820</ele>
        <time>2012-05-08T10:19:31.999Z</time>
      </trkpt>
      <trkpt lat="45.68517" lon="4.58164">
        <ele>820</ele>
        <time>2012-05-08T10:19:36.999Z</time>
      </trkpt>
      <trkpt lat="45.68517" lon="4.58171">
        <ele>820</ele>
        <time>2012-05-08T10:19:41.999Z</time>
      </trkpt>
      <trkpt lat="45.68518" lon="4.58178">
        <ele>820</ele>
        <time>2012-05-08T10:19:46.999Z</time>
      </trkpt>
      <trkpt lat="45.6852" lon="4.58185">
        <ele>821</ele>
        <time>2012-05-08T10:19:50.999Z</time>
      </trkpt>
      <trkpt lat="45.68522" lon="4.58192">
        <ele>821</ele>
        <time>2012-05-08T10:19:54.999Z</time>
      </trkpt>
      <trkpt lat="45.68524" lon="4.58199">
        <ele>821</ele>
        <time>2012-05-08T10:19:58.999Z</time>
      </trkpt>
      <trkpt lat="45.68528" lon="4.58206">
        <ele>821</ele>
        <time>2012-05-08T10:20:02.999Z</time>
      </trkpt>
      <trkpt lat="45.6853" lon="4.58214">
        <ele>821</ele>
        <time>2012-05-08T10:20:06.999Z</time>
      </trkpt>
      <trkpt lat="45.68531" lon="4.58221">
        <ele>821</ele>
        <time>2012-05-08T10:20:10.999Z</time>
      </trkpt>
      <trkpt lat="45.68532" lon="4.58228">
        <ele>821</ele>
        <time>2012-05-08T10:20:14.999Z</time>
      </trkpt>
      <trkpt lat="45.68533" lon="4.58235">
        <ele>822</ele>
        <time>2012-05-08T10:20:18.999Z</time>
      </trkpt>
      <trkpt lat="45.68534" lon="4.58242">
        <ele>822</ele>
        <time>2012-05-08T10:20:22.999Z</time>
      </trkpt>
      <trkpt lat="45.68538" lon="4.5824">
        <ele>822</ele>
        <time>2012-05-08T10:20:46.999Z</time>
      </trkpt>
      <trkpt lat="45.68542" lon="4.58236">
        <ele>821</ele>
        <time>2012-05-08T10:21:13.999Z</time>
      </trkpt>
      <trkpt lat="45.68538" lon="4.58232">
        <ele>821</ele>
        <time>2012-05-08T10:22:03.999Z</time>
      </trkpt>
      <trkpt lat="45.68534" lon="4.58232">
        <ele>821</ele>
        <time>2012-05-08T10:23:08.998Z</time>
      </trkpt>
      <trkpt lat="45.6852" lon="4.58225">
        <ele>844</ele>
        <time>2012-05-08T10:23:44.699Z</time>
      </trkpt>
      <trkpt lat="45.6852" lon="4.58225">
        <ele>844</ele>
        <time>2012-05-08T10:23:44.699Z</time>
      </trkpt>
      <trkpt lat="45.6852" lon="4.58225">
        <ele>844</ele>
        <time>2012-05-08T10:23:56.000Z</time>
      </trkpt>
      <trkpt lat="45.68527" lon="4.58225">
        <ele>838</ele>
        <time>2012-05-08T10:23:57.000Z</time>
      </trkpt>
      <trkpt lat="45.68527" lon="4.58225">
        <ele>838</ele>
        <time>2012-05-08T10:23:57.000Z</time>
      </trkpt>
      <trkpt lat="45.68527" lon="4.58225">
        <ele>838</ele>
        <time>2012-05-08T10:24:01.000Z</time>
      </trkpt>
      <trkpt lat="45.68531" lon="4.58228">
        <ele>832</ele>
        <time>2012-05-08T10:24:02.000Z</time>
      </trkpt>
      <trkpt lat="45.68531" lon="4.58228">
        <ele>832</ele>
        <time>2012-05-08T10:24:02.000Z</time>
      </trkpt>
      <trkpt lat="45.68531" lon="4.58228">
        <ele>832</ele>
        <time>2012-05-08T10:24:09.000Z</time>
      </trkpt>
      <trkpt lat="45.68536" lon="4.58228">
        <ele>824</ele>
        <time>2012-05-08T10:24:10.000Z</time>
      </trkpt>
      <trkpt lat="45.68536" lon="4.58228">
        <ele>824</ele>
        <time>2012-05-08T10:24:10.000Z</time>
      </trkpt>
      <trkpt lat="45.68536" lon="4.58228">
        <ele>824</ele>
        <time>2012-05-08T10:24:11.000Z</time>
      </trkpt>
      <trkpt lat="45.68539" lon="4.58224">
        <ele>824</ele>
        <time>2012-05-08T10:26:58.000Z</time>
      </trkpt>
      <trkpt lat="45.68535" lon="4.58222">
        <ele>825</ele>
        <time>2012-05-08T10:27:34.000Z</time>
      </trkpt>
      <trkpt lat="45.68539" lon="4.58225">
        <ele>825</ele>
        <time>2012-05-08T10:28:18.000Z</time>
      </trkpt>
      <trkpt lat="45.68534" lon="4.58226">
        <ele>825</ele>
        <time>2012-05-08T10:28:54.000Z</time>
      </trkpt>
      <trkpt lat="45.68537" lon="4.58231">
        <ele>825</ele>
        <time>2012-05-08T10:29:58.000Z</time>
      </trkpt>
      <trkpt lat="45.68533" lon="4.58228">
        <ele>826</ele>
        <time>2012-05-08T10:32:17.000Z</time>
      </trkpt>
      <trkpt lat="45.68532" lon="4.58221">
        <ele>826</ele>
        <time>2012-05-08T10:32:35.000Z</time>
      </trkpt>
      <trkpt lat="45.68534" lon="4.58215">
        <ele>827</ele>
        <time>2012-05-08T10:33:20.000Z</time>
      </trkpt>
      <trkpt lat="45.6852" lon="4.58203">
        <ele>860</ele>
        <time>2012-05-08T10:33:44.863Z</time>
      </trkpt>
      <trkpt lat="45.6852" lon="4.58203">
        <ele>860</ele>
        <time>2012-05-08T10:33:44.863Z</time>
      </trkpt>
      <trkpt lat="45.6852" lon="4.58203">
        <ele>860</ele>
        <time>2012-05-08T10:33:50.000Z</time>
      </trkpt>
      <trkpt lat="45.68529" lon="4.58208">
        <ele>849</ele>
        <time>2012-05-08T10:33:51.000Z</time>
      </trkpt>
      <trkpt lat="45.68529" lon="4.58208">
        <ele>849</ele>
        <time>2012-05-08T10:33:51.000Z</time>
      </trkpt>
      <trkpt lat="45.68529" lon="4.58208">
        <ele>849</ele>
        <time>2012-05-08T10:34:11.000Z</time>
      </trkpt>
      <trkpt lat="45.68532" lon="4.58212">
        <ele>829</ele>
        <time>2012-05-08T10:34:14.000Z</time>
      </trkpt>
      <trkpt lat="45.68536" lon="4.58216">
        <ele>828</ele>
        <time>2012-05-08T10:34:39.000Z</time>
      </trkpt>
      <trkpt lat="45.68539" lon="4.58221">
        <ele>828</ele>
        <time>2012-05-08T10:35:01.000Z</time>
      </trkpt>
      <trkpt lat="45.68536" lon="4.58226">
        <ele>828</ele>
        <time>2012-05-08T10:35:16.000Z</time>
      </trkpt>
      <trkpt lat="45.68533" lon="4.58231">
        <ele>828</ele>
        <time>2012-05-08T10:35:36.000Z</time>
      </trkpt>
      <trkpt lat="45.68537" lon="4.58234">
        <ele>828</ele>
        <time>2012-05-08T10:35:57.000Z</time>
      </trkpt>
      <trkpt lat="45.68535" lon="4.58228">
        <ele>827</ele>
        <time>2012-05-08T10:38:28.000Z</time>
      </trkpt>
      <trkpt lat="45.68539" lon="4.58231">
        <ele>828</ele>
        <time>2012-05-08T10:40:32.000Z</time>
      </trkpt>
      <trkpt lat="45.68537" lon="4.58224">
        <ele>827</ele>
        <time>2012-05-08T10:41:30.000Z</time>
      </trkpt>
      <trkpt lat="45.68532" lon="4.58226">
        <ele>827</ele>
        <time>2012-05-08T10:41:53.000Z</time>
      </trkpt>
      <trkpt lat="45.68535" lon="4.58231">
        <ele>828</ele>
        <time>2012-05-08T10:44:11.000Z</time>
      </trkpt>
      <trkpt lat="45.6854" lon="4.58232">
        <ele>827</ele>
        <time>2012-05-08T10:44:27.000Z</time>
      </trkpt>
      <trkpt lat="45.68536" lon="4.58229">
        <ele>828</ele>
        <time>2012-05-08T10:45:20.000Z</time>
      </trkpt>
      <trkpt lat="45.68533" lon="4.58234">
        <ele>826</ele>
        <time>2012-05-08T10:53:27.000Z</time>
      </trkpt>
      <trkpt lat="45.68531" lon="4.58228">
        <ele>826</ele>
        <time>2012-05-08T10:53:58.000Z</time>
      </trkpt>
      <trkpt lat="45.68531" lon="4.58222">
        <ele>825</ele>
        <time>2012-05-08T10:54:02.000Z</time>
      </trkpt>
      <trkpt lat="45.68529" lon="4.58215">
        <ele>825</ele>
        <time>2012-05-08T10:54:07.000Z</time>
      </trkpt>
      <trkpt lat="45.68528" lon="4.58208">
        <ele>825</ele>
        <time>2012-05-08T10:54:13.000Z</time>
      </trkpt>
      <trkpt lat="45.68526" lon="4.58201">
        <ele>825</ele>
        <time>2012-05-08T10:54:24.000Z</time>
      </trkpt>
      <trkpt lat="45.68524" lon="4.58195">
        <ele>824</ele>
        <time>2012-05-08T10:54:30.000Z</time>
      </trkpt>
      <trkpt lat="45.68522" lon="4.58188">
        <ele>824</ele>
        <time>2012-05-08T10:54:35.000Z</time>
      </trkpt>
      <trkpt lat="45.68521" lon="4.58182">
        <ele>824</ele>
        <time>2012-05-08T10:54:41.000Z</time>
      </trkpt>
      <trkpt lat="45.6852" lon="4.58175">
        <ele>824</ele>
        <time>2012-05-08T10:54:48.000Z</time>
      </trkpt>
      <trkpt lat="45.68518" lon="4.58168">
        <ele>824</ele>
        <time>2012-05-08T10:54:54.000Z</time>
      </trkpt>
      <trkpt lat="45.68514" lon="4.58172">
        <ele>824</ele>
        <time>2012-05-08T10:55:02.000Z</time>
      </trkpt>
      <trkpt lat="45.68513" lon="4.58178">
        <ele>824</ele>
        <time>2012-05-08T10:55:06.000Z</time>
      </trkpt>
      <trkpt lat="45.68512" lon="4.58186">
        <ele>824</ele>
        <time>2012-05-08T10:55:11.000Z</time>
      </trkpt>
      <trkpt lat="45.68511" lon="4.58192">
        <ele>824</ele>
        <time>2012-05-08T10:55:16.000Z</time>
      </trkpt>
      <trkpt lat="45.68509" lon="4.582">
        <ele>823</ele>
        <time>2012-05-08T10:55:22.000Z</time>
      </trkpt>
      <trkpt lat="45.68507" lon="4.58206">
        <ele>823</ele>
        <time>2012-05-08T10:55:27.000Z</time>
      </trkpt>
      <trkpt lat="45.68505" lon="4.58212">
        <ele>823</ele>
        <time>2012-05-08T10:55:32.000Z</time>
      </trkpt>
      <trkpt lat="45.68502" lon="4.58219">
        <ele>823</ele>
        <time>2012-05-08T10:55:37.000Z</time>
      </trkpt>
      <trkpt lat="45.68499" lon="4.58225">
        <ele>822</ele>
        <time>2012-05-08T10:55:42.000Z</time>
      </trkpt>
      <trkpt lat="45.68496" lon="4.58231">
        <ele>822</ele>
        <time>2012-05-08T10:55:47.000Z</time>
      </trkpt>
      <trkpt lat="45.68492" lon="4.58237">
        <ele>822</ele>
        <time>2012-05-08T10:55:52.000Z</time>
      </trkpt>
      <trkpt lat="45.68489" lon="4.58242">
        <ele>822</ele>
        <time>2012-05-08T10:55:57.000Z</time>
      </trkpt>
      <trkpt lat="45.68485" lon="4.58246">
        <ele>822</ele>
        <time>2012-05-08T10:56:01.000Z</time>
      </trkpt>
      <trkpt lat="45.6848" lon="4.5825">
        <ele>822</ele>
        <time>2012-05-08T10:56:06.000Z</time>
      </trkpt>
      <trkpt lat="45.68476" lon="4.58255">
        <ele>822</ele>
        <time>2012-05-08T10:56:11.000Z</time>
      </trkpt>
      <trkpt lat="45.68472" lon="4.5826">
        <ele>822</ele>
        <time>2012-05-08T10:56:16.000Z</time>
      </trkpt>
      <trkpt lat="45.68468" lon="4.58264">
        <ele>822</ele>
        <time>2012-05-08T10:56:21.000Z</time>
      </trkpt>
      <trkpt lat="45.68464" lon="4.58269">
        <ele>822</ele>
        <time>2012-05-08T10:56:26.000Z</time>
      </trkpt>
      <trkpt lat="45.6846" lon="4.58274">
        <ele>822</ele>
        <time>2012-05-08T10:56:31.000Z</time>
      </trkpt>
      <trkpt lat="45.68456" lon="4.58279">
        <ele>822</ele>
        <time>2012-05-08T10:56:36.000Z</time>
      </trkpt>
      <trkpt lat="45.68452" lon="4.58284">
        <ele>822</ele>
        <time>2012-05-08T10:56:41.000Z</time>
      </trkpt>
      <trkpt lat="45.68448" lon="4.58289">
        <ele>822</ele>
        <time>2012-05-08T10:56:46.000Z</time>
      </trkpt>
      <trkpt lat="45.68445" lon="4.58293">
        <ele>822</ele>
        <time>2012-05-08T10:56:51.000Z</time>
      </trkpt>
      <trkpt lat="45.6844" lon="4.58297">
        <ele>822</ele>
        <time>2012-05-08T10:56:56.000Z</time>
      </trkpt>
      <trkpt lat="45.68435" lon="4.58298">
        <ele>822</ele>
        <time>2012-05-08T10:57:01.000Z</time>
      </trkpt>
      <trkpt lat="45.6843" lon="4.583">
        <ele>822</ele>
        <time>2012-05-08T10:57:06.000Z</time>
      </trkpt>
      <trkpt lat="45.68424" lon="4.58301">
        <ele>822</ele>
        <time>2012-05-08T10:57:11.000Z</time>
      </trkpt>
      <trkpt lat="45.6842" lon="4.58302">
        <ele>821</ele>
        <time>2012-05-08T10:57:15.000Z</time>
      </trkpt>
      <trkpt lat="45.68415" lon="4.58304">
        <ele>821</ele>
        <time>2012-05-08T10:57:19.000Z</time>
      </trkpt>
      <trkpt lat="45.6841" lon="4.58306">
        <ele>821</ele>
        <time>2012-05-08T10:57:23.000Z</time>
      </trkpt>
      <trkpt lat="45.68405" lon="4.58309">
        <ele>821</ele>
        <time>2012-05-08T10:57:28.000Z</time>
      </trkpt>
      <trkpt lat="45.684" lon="4.58312">
        <ele>821</ele>
        <time>2012-05-08T10:57:33.000Z</time>
      </trkpt>
      <trkpt lat="45.68396" lon="4.58317">
        <ele>821</ele>
        <time>2012-05-08T10:57:38.000Z</time>
      </trkpt>
      <trkpt lat="45.68392" lon="4.58322">
        <ele>821</ele>
        <time>2012-05-08T10:57:43.000Z</time>
      </trkpt>
      <trkpt lat="45.68388" lon="4.58326">
        <ele>821</ele>
        <time>2012-05-08T10:57:48.000Z</time>
      </trkpt>
      <trkpt lat="45.68384" lon="4.58331">
        <ele>820</ele>
        <time>2012-05-08T10:57:54.000Z</time>
      </trkpt>
      <trkpt lat="45.68381" lon="4.58336">
        <ele>820</ele>
        <time>2012-05-08T10:57:59.000Z</time>
      </trkpt>
      <trkpt lat="45.68378" lon="4.58342">
        <ele>820</ele>
        <time>2012-05-08T10:58:04.000Z</time>
      </trkpt>
      <trkpt lat="45.68374" lon="4.58346">
        <ele>819</ele>
        <time>2012-05-08T10:58:10.000Z</time>
      </trkpt>
      <trkpt lat="45.68369" lon="4.58349">
        <ele>819</ele>
        <time>2012-05-08T10:58:16.000Z</time>
      </trkpt>
      <trkpt lat="45.68365" lon="4.58352">
        <ele>819</ele>
        <time>2012-05-08T10:58:21.000Z</time>
      </trkpt>
      <trkpt lat="45.6836" lon="4.58354">
        <ele>818</ele>
        <time>2012-05-08T10:58:27.000Z</time>
      </trkpt>
      <trkpt lat="45.68354" lon="4.58355">
        <ele>818</ele>
        <time>2012-05-08T10:58:33.000Z</time>
      </trkpt>
      <trkpt lat="45.6835" lon="4.58356">
        <ele>818</ele>
        <time>2012-05-08T10:58:37.000Z</time>
      </trkpt>
      <trkpt lat="45.68345" lon="4.58357">
        <ele>818</ele>
        <time>2012-05-08T10:58:41.000Z</time>
      </trkpt>
      <trkpt lat="45.6834" lon="4.58358">
        <ele>818</ele>
        <time>2012-05-08T10:58:45.000Z</time>
      </trkpt>
      <trkpt lat="45.68335" lon="4.58357">
        <ele>818</ele>
        <time>2012-05-08T10:58:49.000Z</time>
      </trkpt>
      <trkpt lat="45.6833" lon="4.58356">
        <ele>818</ele>
        <time>2012-05-08T10:58:53.000Z</time>
      </trkpt>
      <trkpt lat="45.68326" lon="4.58356">
        <ele>818</ele>
        <time>2012-05-08T10:58:57.000Z</time>
      </trkpt>
      <trkpt lat="45.6832" lon="4.58354">
        <ele>818</ele>
        <time>2012-05-08T10:59:02.000Z</time>
      </trkpt>
      <trkpt lat="45.68315" lon="4.58353">
        <ele>817</ele>
        <time>2012-05-08T10:59:07.000Z</time>
      </trkpt>
      <trkpt lat="45.6831" lon="4.58351">
        <ele>817</ele>
        <time>2012-05-08T10:59:12.000Z</time>
      </trkpt>
      <trkpt lat="45.68305" lon="4.5835">
        <ele>817</ele>
        <time>2012-05-08T10:59:17.000Z</time>
      </trkpt>
      <trkpt lat="45.68301" lon="4.58349">
        <ele>817</ele>
        <time>2012-05-08T10:59:22.000Z</time>
      </trkpt>
      <trkpt lat="45.68296" lon="4.58348">
        <ele>817</ele>
        <time>2012-05-08T10:59:27.000Z</time>
      </trkpt>
      <trkpt lat="45.6829" lon="4.58346">
        <ele>817</ele>
        <time>2012-05-08T10:59:32.000Z</time>
      </trkpt>
      <trkpt lat="45.68285" lon="4.58345">
        <ele>817</ele>
        <time>2012-05-08T10:59:37.000Z</time>
      </trkpt>
      <trkpt lat="45.68279" lon="4.58343">
        <ele>817</ele>
        <time>2012-05-08T10:59:42.000Z</time>
      </trkpt>
      <trkpt lat="45.68274" lon="4.58342">
        <ele>816</ele>
        <time>2012-05-08T10:59:47.000Z</time>
      </trkpt>
      <trkpt lat="45.6827" lon="4.58341">
        <ele>816</ele>
        <time>2012-05-08T10:59:52.000Z</time>
      </trkpt>
      <trkpt lat="45.68265" lon="4.58339">
        <ele>816</ele>
        <time>2012-05-08T10:59:57.000Z</time>
      </trkpt>
      <trkpt lat="45.6826" lon="4.58339">
        <ele>816</ele>
        <time>2012-05-08T11:00:11.000Z</time>
      </trkpt>
      <trkpt lat="45.68255" lon="4.58338">
        <ele>815</ele>
        <time>2012-05-08T11:00:17.000Z</time>
      </trkpt>
      <trkpt lat="45.6825" lon="4.58337">
        <ele>815</ele>
        <time>2012-05-08T11:00:22.000Z</time>
      </trkpt>
      <trkpt lat="45.68245" lon="4.58336">
        <ele>815</ele>
        <time>2012-05-08T11:00:27.000Z</time>
      </trkpt>
      <trkpt lat="45.6824" lon="4.58334">
        <ele>814</ele>
        <time>2012-05-08T11:00:33.000Z</time>
      </trkpt>
      <trkpt lat="45.68235" lon="4.58332">
        <ele>814</ele>
        <time>2012-05-08T11:00:39.000Z</time>
      </trkpt>
      <trkpt lat="45.68231" lon="4.58329">
        <ele>813</ele>
        <time>2012-05-08T11:00:45.000Z</time>
      </trkpt>
      <trkpt lat="45.68227" lon="4.58324">
        <ele>813</ele>
        <time>2012-05-08T11:00:51.000Z</time>
      </trkpt>
      <trkpt lat="45.68223" lon="4.58319">
        <ele>813</ele>
        <time>2012-05-08T11:00:56.000Z</time>
      </trkpt>
      <trkpt lat="45.6822" lon="4.58314">
        <ele>813</ele>
        <time>2012-05-08T11:01:01.000Z</time>
      </trkpt>
      <trkpt lat="45.68216" lon="4.5831">
        <ele>813</ele>
        <time>2012-05-08T11:01:06.000Z</time>
      </trkpt>
      <trkpt lat="45.68213" lon="4.58305">
        <ele>812</ele>
        <time>2012-05-08T11:01:11.000Z</time>
      </trkpt>
      <trkpt lat="45.68209" lon="4.58301">
        <ele>812</ele>
        <time>2012-05-08T11:01:16.000Z</time>
      </trkpt>
      <trkpt lat="45.68209" lon="4.58294">
        <ele>812</ele>
        <time>2012-05-08T11:01:25.000Z</time>
      </trkpt>
      <trkpt lat="45.68206" lon="4.58287">
        <ele>812</ele>
        <time>2012-05-08T11:01:31.000Z</time>
      </trkpt>
      <trkpt lat="45.68204" lon="4.5828">
        <ele>812</ele>
        <time>2012-05-08T11:01:35.000Z</time>
      </trkpt>
      <trkpt lat="45.68201" lon="4.58275">
        <ele>812</ele>
        <time>2012-05-08T11:01:39.000Z</time>
      </trkpt>
      <trkpt lat="45.68198" lon="4.58268">
        <ele>812</ele>
        <time>2012-05-08T11:01:43.000Z</time>
      </trkpt>
      <trkpt lat="45.68194" lon="4.58262">
        <ele>812</ele>
        <time>2012-05-08T11:01:47.000Z</time>
      </trkpt>
      <trkpt lat="45.68191" lon="4.58257">
        <ele>811</ele>
        <time>2012-05-08T11:01:51.000Z</time>
      </trkpt>
      <trkpt lat="45.68188" lon="4.58253">
        <ele>811</ele>
        <time>2012-05-08T11:01:59.000Z</time>
      </trkpt>
      <trkpt lat="45.68184" lon="4.58247">
        <ele>811</ele>
        <time>2012-05-08T11:02:07.000Z</time>
      </trkpt>
      <trkpt lat="45.68181" lon="4.58242">
        <ele>811</ele>
        <time>2012-05-08T11:02:11.000Z</time>
      </trkpt>
      <trkpt lat="45.68178" lon="4.58236">
        <ele>811</ele>
        <time>2012-05-08T11:02:15.000Z</time>
      </trkpt>
      <trkpt lat="45.68174" lon="4.58231">
        <ele>811</ele>
        <time>2012-05-08T11:02:19.000Z</time>
      </trkpt>
      <trkpt lat="45.68171" lon="4.58226">
        <ele>810</ele>
        <time>2012-05-08T11:02:23.000Z</time>
      </trkpt>
      <trkpt lat="45.68167" lon="4.58221">
        <ele>810</ele>
        <time>2012-05-08T11:02:28.000Z</time>
      </trkpt>
      <trkpt lat="45.68164" lon="4.58216">
        <ele>810</ele>
        <time>2012-05-08T11:02:32.000Z</time>
      </trkpt>
      <trkpt lat="45.68161" lon="4.5821">
        <ele>810</ele>
        <time>2012-05-08T11:02:36.000Z</time>
      </trkpt>
      <trkpt lat="45.68157" lon="4.58204">
        <ele>810</ele>
        <time>2012-05-08T11:02:41.000Z</time>
      </trkpt>
      <trkpt lat="45.68153" lon="4.58199">
        <ele>809</ele>
        <time>2012-05-08T11:02:46.000Z</time>
      </trkpt>
      <trkpt lat="45.68151" lon="4.58192">
        <ele>809</ele>
        <time>2012-05-08T11:02:50.000Z</time>
      </trkpt>
      <trkpt lat="45.68149" lon="4.58185">
        <ele>809</ele>
        <time>2012-05-08T11:02:54.000Z</time>
      </trkpt>
      <trkpt lat="45.68146" lon="4.58179">
        <ele>808</ele>
        <time>2012-05-08T11:02:58.000Z</time>
      </trkpt>
      <trkpt lat="45.68143" lon="4.58173">
        <ele>808</ele>
        <time>2012-05-08T11:03:03.000Z</time>
      </trkpt>
      <trkpt lat="45.6814" lon="4.58166">
        <ele>807</ele>
        <time>2012-05-08T11:03:08.000Z</time>
      </trkpt>
      <trkpt lat="45.68139" lon="4.5816">
        <ele>806</ele>
        <time>2012-05-08T11:03:23.000Z</time>
      </trkpt>
      <trkpt lat="45.68137" lon="4.58154">
        <ele>806</ele>
        <time>2012-05-08T11:03:33.000Z</time>
      </trkpt>
      <trkpt lat="45.68133" lon="4.58148">
        <ele>805</ele>
        <time>2012-05-08T11:03:39.000Z</time>
      </trkpt>
      <trkpt lat="45.68129" lon="4.58143">
        <ele>805</ele>
        <time>2012-05-08T11:03:45.000Z</time>
      </trkpt>
      <trkpt lat="45.68126" lon="4.58138">
        <ele>804</ele>
        <time>2012-05-08T11:03:50.000Z</time>
      </trkpt>
      <trkpt lat="45.68122" lon="4.58133">
        <ele>804</ele>
        <time>2012-05-08T11:03:54.000Z</time>
      </trkpt>
      <trkpt lat="45.68119" lon="4.58128">
        <ele>804</ele>
        <time>2012-05-08T11:03:58.000Z</time>
      </trkpt>
      <trkpt lat="45.68115" lon="4.58122">
        <ele>804</ele>
        <time>2012-05-08T11:04:02.000Z</time>
      </trkpt>
      <trkpt lat="45.68112" lon="4.58117">
        <ele>803</ele>
        <time>2012-05-08T11:04:06.000Z</time>
      </trkpt>
      <trkpt lat="45.68108" lon="4.58112">
        <ele>803</ele>
        <time>2012-05-08T11:04:10.000Z</time>
      </trkpt>
      <trkpt lat="45.68104" lon="4.58107">
        <ele>803</ele>
        <time>2012-05-08T11:04:15.000Z</time>
      </trkpt>
      <trkpt lat="45.681" lon="4.58103">
        <ele>802</ele>
        <time>2012-05-08T11:04:25.000Z</time>
      </trkpt>
      <trkpt lat="45.68096" lon="4.58099">
        <ele>802</ele>
        <time>2012-05-08T11:04:31.000Z</time>
      </trkpt>
      <trkpt lat="45.68091" lon="4.58096">
        <ele>802</ele>
        <time>2012-05-08T11:04:39.000Z</time>
      </trkpt>
      <trkpt lat="45.68087" lon="4.58092">
        <ele>802</ele>
        <time>2012-05-08T11:04:46.000Z</time>
      </trkpt>
      <trkpt lat="45.68083" lon="4.58089">
        <ele>801</ele>
        <time>2012-05-08T11:04:53.000Z</time>
      </trkpt>
      <trkpt lat="45.68079" lon="4.58085">
        <ele>801</ele>
        <time>2012-05-08T11:04:59.000Z</time>
      </trkpt>
      <trkpt lat="45.68075" lon="4.5808">
        <ele>801</ele>
        <time>2012-05-08T11:05:05.000Z</time>
      </trkpt>
      <trkpt lat="45.68071" lon="4.58075">
        <ele>801</ele>
        <time>2012-05-08T11:05:10.000Z</time>
      </trkpt>
      <trkpt lat="45.68067" lon="4.58071">
        <ele>801</ele>
        <time>2012-05-08T11:05:14.000Z</time>
      </trkpt>
      <trkpt lat="45.68063" lon="4.58068">
        <ele>801</ele>
        <time>2012-05-08T11:05:18.000Z</time>
      </trkpt>
      <trkpt lat="45.68059" lon="4.58063">
        <ele>800</ele>
        <time>2012-05-08T11:05:22.000Z</time>
      </trkpt>
      <trkpt lat="45.68054" lon="4.58058">
        <ele>800</ele>
        <time>2012-05-08T11:05:26.000Z</time>
      </trkpt>
      <trkpt lat="45.6805" lon="4.58054">
        <ele>800</ele>
        <time>2012-05-08T11:05:30.000Z</time>
      </trkpt>
      <trkpt lat="45.68045" lon="4.5805">
        <ele>800</ele>
        <time>2012-05-08T11:05:34.000Z</time>
      </trkpt>
      <trkpt lat="45.68042" lon="4.58046">
        <ele>800</ele>
        <time>2012-05-08T11:05:39.000Z</time>
      </trkpt>
      <trkpt lat="45.68037" lon="4.58042">
        <ele>800</ele>
        <time>2012-05-08T11:05:45.000Z</time>
      </trkpt>
      <trkpt lat="45.68034" lon="4.58037">
        <ele>800</ele>
        <time>2012-05-08T11:05:50.000Z</time>
      </trkpt>
      <trkpt lat="45.6803" lon="4.58032">
        <ele>800</ele>
        <time>2012-05-08T11:05:54.000Z</time>
      </trkpt>
      <trkpt lat="45.68026" lon="4.58028">
        <ele>799</ele>
        <time>2012-05-08T11:05:57.000Z</time>
      </trkpt>
      <trkpt lat="45.68023" lon="4.58023">
        <ele>799</ele>
        <time>2012-05-08T11:06:00.000Z</time>
      </trkpt>
      <trkpt lat="45.6802" lon="4.58018">
        <ele>799</ele>
        <time>2012-05-08T11:06:05.000Z</time>
      </trkpt>
      <trkpt lat="45.68015" lon="4.58014">
        <ele>799</ele>
        <time>2012-05-08T11:06:11.000Z</time>
      </trkpt>
      <trkpt lat="45.6801" lon="4.58013">
        <ele>799</ele>
        <time>2012-05-08T11:06:15.000Z</time>
      </trkpt>
      <trkpt lat="45.68004" lon="4.58011">
        <ele>798</ele>
        <time>2012-05-08T11:06:19.000Z</time>
      </trkpt>
      <trkpt lat="45.67998" lon="4.58008">
        <ele>798</ele>
        <time>2012-05-08T11:06:23.000Z</time>
      </trkpt>
      <trkpt lat="45.67993" lon="4.58005">
        <ele>798</ele>
        <time>2012-05-08T11:06:27.000Z</time>
      </trkpt>
      <trkpt lat="45.67988" lon="4.58002">
        <ele>798</ele>
        <time>2012-05-08T11:06:31.000Z</time>
      </trkpt>
      <trkpt lat="45.67983" lon="4.57999">
        <ele>798</ele>
        <time>2012-05-08T11:06:35.000Z</time>
      </trkpt>
      <trkpt lat="45.67978" lon="4.57996">
        <ele>797</ele>
        <time>2012-05-08T11:06:40.000Z</time>
      </trkpt>
      <trkpt lat="45.67974" lon="4.57994">
        <ele>797</ele>
        <time>2012-05-08T11:06:45.000Z</time>
      </trkpt>
      <trkpt lat="45.67969" lon="4.57991">
        <ele>797</ele>
        <time>2012-05-08T11:06:50.000Z</time>
      </trkpt>
      <trkpt lat="45.67964" lon="4.57989">
        <ele>797</ele>
        <time>2012-05-08T11:06:54.000Z</time>
      </trkpt>
      <trkpt lat="45.67959" lon="4.57987">
        <ele>796</ele>
        <time>2012-05-08T11:06:59.000Z</time>
      </trkpt>
      <trkpt lat="45.67955" lon="4.57985">
        <ele>796</ele>
        <time>2012-05-08T11:07:06.000Z</time>
      </trkpt>
      <trkpt lat="45.6795" lon="4.57983">
        <ele>796</ele>
        <time>2012-05-08T11:07:17.000Z</time>
      </trkpt>
      <trkpt lat="45.67945" lon="4.57983">
        <ele>796</ele>
        <time>2012-05-08T11:07:22.000Z</time>
      </trkpt>
      <trkpt lat="45.6794" lon="4.57982">
        <ele>796</ele>
        <time>2012-05-08T11:07:25.000Z</time>
      </trkpt>
      <trkpt lat="45.67935" lon="4.57982">
        <ele>796</ele>
        <time>2012-05-08T11:07:30.000Z</time>
      </trkpt>
      <trkpt lat="45.6793" lon="4.57982">
        <ele>796</ele>
        <time>2012-05-08T11:07:36.000Z</time>
      </trkpt>
      <trkpt lat="45.67925" lon="4.57981">
        <ele>795</ele>
        <time>2012-05-08T11:07:41.000Z</time>
      </trkpt>
      <trkpt lat="45.67922" lon="4.57986">
        <ele>795</ele>
        <time>2012-05-08T11:07:55.000Z</time>
      </trkpt>
      <trkpt lat="45.67917" lon="4.57987">
        <ele>795</ele>
        <time>2012-05-08T11:08:00.000Z</time>
      </trkpt>
      <trkpt lat="45.67913" lon="4.57989">
        <ele>795</ele>
        <time>2012-05-08T11:08:05.000Z</time>
      </trkpt>
      <trkpt lat="45.67909" lon="4.57992">
        <ele>795</ele>
        <time>2012-05-08T11:08:11.000Z</time>
      </trkpt>
      <trkpt lat="45.67904" lon="4.57994">
        <ele>795</ele>
        <time>2012-05-08T11:08:17.000Z</time>
      </trkpt>
      <trkpt lat="45.67899" lon="4.57995">
        <ele>795</ele>
        <time>2012-05-08T11:08:23.000Z</time>
      </trkpt>
      <trkpt lat="45.67894" lon="4.57996">
        <ele>795</ele>
        <time>2012-05-08T11:08:29.000Z</time>
      </trkpt>
      <trkpt lat="45.67889" lon="4.57996">
        <ele>795</ele>
        <time>2012-05-08T11:08:35.000Z</time>
      </trkpt>
      <trkpt lat="45.67884" lon="4.57997">
        <ele>795</ele>
        <time>2012-05-08T11:08:40.000Z</time>
      </trkpt>
      <trkpt lat="45.67879" lon="4.57997">
        <ele>795</ele>
        <time>2012-05-08T11:08:46.000Z</time>
      </trkpt>
      <trkpt lat="45.67874" lon="4.57997">
        <ele>795</ele>
        <time>2012-05-08T11:08:52.000Z</time>
      </trkpt>
      <trkpt lat="45.67868" lon="4.57995">
        <ele>795</ele>
        <time>2012-05-08T11:08:57.000Z</time>
      </trkpt>
      <trkpt lat="45.67863" lon="4.57992">
        <ele>795</ele>
        <time>2012-05-08T11:09:01.000Z</time>
      </trkpt>
      <trkpt lat="45.67859" lon="4.57989">
        <ele>795</ele>
        <time>2012-05-08T11:09:05.000Z</time>
      </trkpt>
      <trkpt lat="45.67854" lon="4.57986">
        <ele>795</ele>
        <time>2012-05-08T11:09:13.000Z</time>
      </trkpt>
      <trkpt lat="45.6785" lon="4.57984">
        <ele>795</ele>
        <time>2012-05-08T11:09:21.000Z</time>
      </trkpt>
      <trkpt lat="45.67845" lon="4.57984">
        <ele>795</ele>
        <time>2012-05-08T11:09:29.000Z</time>
      </trkpt>
      <trkpt lat="45.67839" lon="4.57985">
        <ele>795</ele>
        <time>2012-05-08T11:09:34.000Z</time>
      </trkpt>
      <trkpt lat="45.67834" lon="4.57987">
        <ele>795</ele>
        <time>2012-05-08T11:09:38.000Z</time>
      </trkpt>
      <trkpt lat="45.67829" lon="4.57988">
        <ele>795</ele>
        <time>2012-05-08T11:09:41.000Z</time>
      </trkpt>
      <trkpt lat="45.67824" lon="4.5799">
        <ele>795</ele>
        <time>2012-05-08T11:09:44.000Z</time>
      </trkpt>
      <trkpt lat="45.6782" lon="4.57992">
        <ele>795</ele>
        <time>2012-05-08T11:09:47.000Z</time>
      </trkpt>
      <trkpt lat="45.67814" lon="4.57994">
        <ele>795</ele>
        <time>2012-05-08T11:09:51.000Z</time>
      </trkpt>
      <trkpt lat="45.6781" lon="4.57996">
        <ele>795</ele>
        <time>2012-05-08T11:09:55.000Z</time>
      </trkpt>
      <trkpt lat="45.67805" lon="4.57997">
        <ele>795</ele>
        <time>2012-05-08T11:09:59.000Z</time>
      </trkpt>
      <trkpt lat="45.678" lon="4.57998">
        <ele>795</ele>
        <time>2012-05-08T11:10:04.000Z</time>
      </trkpt>
      <trkpt lat="45.67795" lon="4.57998">
        <ele>795</ele>
        <time>2012-05-08T11:10:09.000Z</time>
      </trkpt>
      <trkpt lat="45.6779" lon="4.57995">
        <ele>795</ele>
        <time>2012-05-08T11:10:15.000Z</time>
      </trkpt>
      <trkpt lat="45.67785" lon="4.57993">
        <ele>795</ele>
        <time>2012-05-08T11:10:21.000Z</time>
      </trkpt>
      <trkpt lat="45.67781" lon="4.57992">
        <ele>795</ele>
        <time>2012-05-08T11:10:26.000Z</time>
      </trkpt>
      <trkpt lat="45.67776" lon="4.5799">
        <ele>795</ele>
        <time>2012-05-08T11:10:31.000Z</time>
      </trkpt>
      <trkpt lat="45.67771" lon="4.57988">
        <ele>795</ele>
        <time>2012-05-08T11:10:37.000Z</time>
      </trkpt>
      <trkpt lat="45.67767" lon="4.57986">
        <ele>795</ele>
        <time>2012-05-08T11:10:42.000Z</time>
      </trkpt>
      <trkpt lat="45.67763" lon="4.57981">
        <ele>795</ele>
        <time>2012-05-08T11:10:46.000Z</time>
      </trkpt>
      <trkpt lat="45.67759" lon="4.57977">
        <ele>795</ele>
        <time>2012-05-08T11:10:55.000Z</time>
      </trkpt>
      <trkpt lat="45.67755" lon="4.57973">
        <ele>795</ele>
        <time>2012-05-08T11:11:02.000Z</time>
      </trkpt>
      <trkpt lat="45.67751" lon="4.5797">
        <ele>795</ele>
        <time>2012-05-08T11:11:09.000Z</time>
      </trkpt>
      <trkpt lat="45.67746" lon="4.57967">
        <ele>795</ele>
        <time>2012-05-08T11:11:13.000Z</time>
      </trkpt>
      <trkpt lat="45.67742" lon="4.57964">
        <ele>795</ele>
        <time>2012-05-08T11:11:17.000Z</time>
      </trkpt>
      <trkpt lat="45.67737" lon="4.57961">
        <ele>795</ele>
        <time>2012-05-08T11:11:21.000Z</time>
      </trkpt>
      <trkpt lat="45.67733" lon="4.57958">
        <ele>795</ele>
        <time>2012-05-08T11:11:26.000Z</time>
      </trkpt>
      <trkpt lat="45.67729" lon="4.57954">
        <ele>795</ele>
        <time>2012-05-08T11:11:32.000Z</time>
      </trkpt>
      <trkpt lat="45.67724" lon="4.5795">
        <ele>795</ele>
        <time>2012-05-08T11:11:38.000Z</time>
      </trkpt>
      <trkpt lat="45.6772" lon="4.57947">
        <ele>795</ele>
        <time>2012-05-08T11:11:50.000Z</time>
      </trkpt>
      <trkpt lat="45.67716" lon="4.57944">
        <ele>795</ele>
        <time>2012-05-08T11:11:59.000Z</time>
      </trkpt>
      <trkpt lat="45.67712" lon="4.5794">
        <ele>795</ele>
        <time>2012-05-08T11:12:07.000Z</time>
      </trkpt>
      <trkpt lat="45.67708" lon="4.57935">
        <ele>795</ele>
        <time>2012-05-08T11:12:13.000Z</time>
      </trkpt>
      <trkpt lat="45.67704" lon="4.5793">
        <ele>795</ele>
        <time>2012-05-08T11:12:18.000Z</time>
      </trkpt>
      <trkpt lat="45.677" lon="4.57926">
        <ele>795</ele>
        <time>2012-05-08T11:12:23.000Z</time>
      </trkpt>
      <trkpt lat="45.67697" lon="4.57922">
        <ele>795</ele>
        <time>2012-05-08T11:12:29.000Z</time>
      </trkpt>
      <trkpt lat="45.67694" lon="4.57917">
        <ele>795</ele>
        <time>2012-05-08T11:12:37.000Z</time>
      </trkpt>
      <trkpt lat="45.67691" lon="4.57911">
        <ele>795</ele>
        <time>2012-05-08T11:12:45.000Z</time>
      </trkpt>
      <trkpt lat="45.67688" lon="4.57906">
        <ele>795</ele>
        <time>2012-05-08T11:12:54.000Z</time>
      </trkpt>
      <trkpt lat="45.67684" lon="4.57901">
        <ele>795</ele>
        <time>2012-05-08T11:13:02.000Z</time>
      </trkpt>
      <trkpt lat="45.6768" lon="4.57897">
        <ele>795</ele>
        <time>2012-05-08T11:13:07.000Z</time>
      </trkpt>
      <trkpt lat="45.67676" lon="4.57892">
        <ele>795</ele>
        <time>2012-05-08T11:13:11.000Z</time>
      </trkpt>
      <trkpt lat="45.67672" lon="4.57888">
        <ele>795</ele>
        <time>2012-05-08T11:13:15.000Z</time>
      </trkpt>
      <trkpt lat="45.67668" lon="4.57882">
        <ele>795</ele>
        <time>2012-05-08T11:13:19.000Z</time>
      </trkpt>
      <trkpt lat="45.67665" lon="4.57877">
        <ele>795</ele>
        <time>2012-05-08T11:13:24.000Z</time>
      </trkpt>
      <trkpt lat="45.67661" lon="4.57872">
        <ele>795</ele>
        <time>2012-05-08T11:13:29.000Z</time>
      </trkpt>
      <trkpt lat="45.67657" lon="4.57867">
        <ele>795</ele>
        <time>2012-05-08T11:13:34.000Z</time>
      </trkpt>
      <trkpt lat="45.67654" lon="4.57862">
        <ele>795</ele>
        <time>2012-05-08T11:13:39.000Z</time>
      </trkpt>
      <trkpt lat="45.6765" lon="4.57857">
        <ele>795</ele>
        <time>2012-05-08T11:13:44.000Z</time>
      </trkpt>
      <trkpt lat="45.67647" lon="4.57852">
        <ele>795</ele>
        <time>2012-05-08T11:13:49.000Z</time>
      </trkpt>
      <trkpt lat="45.67644" lon="4.57847">
        <ele>795</ele>
        <time>2012-05-08T11:13:54.000Z</time>
      </trkpt>
      <trkpt lat="45.6764" lon="4.57841">
        <ele>795</ele>
        <time>2012-05-08T11:13:58.000Z</time>
      </trkpt>
      <trkpt lat="45.67637" lon="4.57836">
        <ele>795</ele>
        <time>2012-05-08T11:14:01.000Z</time>
      </trkpt>
      <trkpt lat="45.67634" lon="4.5783">
        <ele>795</ele>
        <time>2012-05-08T11:14:04.000Z</time>
      </trkpt>
      <trkpt lat="45.67632" lon="4.57823">
        <ele>795</ele>
        <time>2012-05-08T11:14:07.000Z</time>
      </trkpt>
      <trkpt lat="45.67629" lon="4.57816">
        <ele>795</ele>
        <time>2012-05-08T11:14:10.000Z</time>
      </trkpt>
      <trkpt lat="45.67626" lon="4.5781">
        <ele>796</ele>
        <time>2012-05-08T11:14:13.000Z</time>
      </trkpt>
      <trkpt lat="45.67624" lon="4.57804">
        <ele>796</ele>
        <time>2012-05-08T11:14:16.000Z</time>
      </trkpt>
      <trkpt lat="45.67622" lon="4.57797">
        <ele>796</ele>
        <time>2012-05-08T11:14:20.000Z</time>
      </trkpt>
      <trkpt lat="45.67619" lon="4.5779">
        <ele>796</ele>
        <time>2012-05-08T11:14:24.000Z</time>
      </trkpt>
      <trkpt lat="45.67617" lon="4.57784">
        <ele>796</ele>
        <time>2012-05-08T11:14:28.000Z</time>
      </trkpt>
      <trkpt lat="45.67615" lon="4.57778">
        <ele>796</ele>
        <time>2012-05-08T11:14:32.000Z</time>
      </trkpt>
      <trkpt lat="45.67613" lon="4.5777">
        <ele>796</ele>
        <time>2012-05-08T11:14:36.000Z</time>
      </trkpt>
      <trkpt lat="45.67612" lon="4.57763">
        <ele>796</ele>
        <time>2012-05-08T11:14:40.000Z</time>
      </trkpt>
      <trkpt lat="45.6761" lon="4.57756">
        <ele>796</ele>
        <time>2012-05-08T11:14:44.000Z</time>
      </trkpt>
      <trkpt lat="45.67609" lon="4.5775">
        <ele>796</ele>
        <time>2012-05-08T11:14:48.000Z</time>
      </trkpt>
      <trkpt lat="45.67608" lon="4.57743">
        <ele>797</ele>
        <time>2012-05-08T11:14:52.000Z</time>
      </trkpt>
      <trkpt lat="45.67606" lon="4.57735">
        <ele>797</ele>
        <time>2012-05-08T11:14:56.000Z</time>
      </trkpt>
      <trkpt lat="45.67604" lon="4.57728">
        <ele>797</ele>
        <time>2012-05-08T11:15:00.000Z</time>
      </trkpt>
      <trkpt lat="45.67603" lon="4.57722">
        <ele>797</ele>
        <time>2012-05-08T11:15:04.000Z</time>
      </trkpt>
      <trkpt lat="45.67602" lon="4.57714">
        <ele>797</ele>
        <time>2012-05-08T11:15:10.000Z</time>
      </trkpt>
      <trkpt lat="45.676" lon="4.57707">
        <ele>797</ele>
        <time>2012-05-08T11:15:15.000Z</time>
      </trkpt>
      <trkpt lat="45.67598" lon="4.577">
        <ele>797</ele>
        <time>2012-05-08T11:15:20.000Z</time>
      </trkpt>
      <trkpt lat="45.67597" lon="4.57693">
        <ele>797</ele>
        <time>2012-05-08T11:15:25.000Z</time>
      </trkpt>
      <trkpt lat="45.67595" lon="4.57686">
        <ele>798</ele>
        <time>2012-05-08T11:15:30.000Z</time>
      </trkpt>
      <trkpt lat="45.67593" lon="4.57679">
        <ele>798</ele>
        <time>2012-05-08T11:15:35.000Z</time>
      </trkpt>
      <trkpt lat="45.67592" lon="4.57673">
        <ele>798</ele>
        <time>2012-05-08T11:15:39.000Z</time>
      </trkpt>
      <trkpt lat="45.6759" lon="4.57665">
        <ele>798</ele>
        <time>2012-05-08T11:15:44.000Z</time>
      </trkpt>
      <trkpt lat="45.67588" lon="4.57658">
        <ele>798</ele>
        <time>2012-05-08T11:15:48.000Z</time>
      </trkpt>
      <trkpt lat="45.67586" lon="4.57651">
        <ele>798</ele>
        <time>2012-05-08T11:15:52.000Z</time>
      </trkpt>
      <trkpt lat="45.67584" lon="4.57644">
        <ele>798</ele>
        <time>2012-05-08T11:15:56.000Z</time>
      </trkpt>
      <trkpt lat="45.67581" lon="4.57638">
        <ele>798</ele>
        <time>2012-05-08T11:16:00.000Z</time>
      </trkpt>
      <trkpt lat="45.67579" lon="4.57632">
        <ele>798</ele>
        <time>2012-05-08T11:16:04.000Z</time>
      </trkpt>
      <trkpt lat="45.67577" lon="4.57626">
        <ele>798</ele>
        <time>2012-05-08T11:16:08.000Z</time>
      </trkpt>
      <trkpt lat="45.67574" lon="4.57619">
        <ele>798</ele>
        <time>2012-05-08T11:16:13.000Z</time>
      </trkpt>
      <trkpt lat="45.67571" lon="4.57613">
        <ele>799</ele>
        <time>2012-05-08T11:16:18.000Z</time>
      </trkpt>
      <trkpt lat="45.67568" lon="4.57606">
        <ele>799</ele>
        <time>2012-05-08T11:16:23.000Z</time>
      </trkpt>
      <trkpt lat="45.67565" lon="4.576">
        <ele>799</ele>
        <time>2012-05-08T11:16:28.000Z</time>
      </trkpt>
      <trkpt lat="45.67562" lon="4.57594">
        <ele>799</ele>
        <time>2012-05-08T11:16:32.000Z</time>
      </trkpt>
      <trkpt lat="45.6756" lon="4.57589">
        <ele>799</ele>
        <time>2012-05-08T11:16:36.000Z</time>
      </trkpt>
      <trkpt lat="45.67556" lon="4.57583">
        <ele>799</ele>
        <time>2012-05-08T11:16:41.000Z</time>
      </trkpt>
      <trkpt lat="45.67554" lon="4.57577">
        <ele>799</ele>
        <time>2012-05-08T11:16:46.000Z</time>
      </trkpt>
      <trkpt lat="45.6755" lon="4.57571">
        <ele>799</ele>
        <time>2012-05-08T11:16:51.000Z</time>
      </trkpt>
      <trkpt lat="45.67547" lon="4.57565">
        <ele>799</ele>
        <time>2012-05-08T11:16:56.000Z</time>
      </trkpt>
      <trkpt lat="45.67543" lon="4.57559">
        <ele>799</ele>
        <time>2012-05-08T11:17:01.000Z</time>
      </trkpt>
      <trkpt lat="45.67539" lon="4.57553">
        <ele>799</ele>
        <time>2012-05-08T11:17:06.000Z</time>
      </trkpt>
      <trkpt lat="45.67536" lon="4.57548">
        <ele>799</ele>
        <time>2012-05-08T11:17:10.000Z</time>
      </trkpt>
      <trkpt lat="45.67533" lon="4.57544">
        <ele>800</ele>
        <time>2012-05-08T11:17:14.000Z</time>
      </trkpt>
      <trkpt lat="45.67529" lon="4.57537">
        <ele>800</ele>
        <time>2012-05-08T11:17:19.000Z</time>
      </trkpt>
      <trkpt lat="45.67526" lon="4.57531">
        <ele>800</ele>
        <time>2012-05-08T11:17:24.000Z</time>
      </trkpt>
      <trkpt lat="45.67523" lon="4.57525">
        <ele>800</ele>
        <time>2012-05-08T11:17:29.000Z</time>
      </trkpt>
      <trkpt lat="45.67519" lon="4.57519">
        <ele>800</ele>
        <time>2012-05-08T11:17:34.000Z</time>
      </trkpt>
      <trkpt lat="45.67516" lon="4.57514">
        <ele>800</ele>
        <time>2012-05-08T11:17:39.000Z</time>
      </trkpt>
      <trkpt lat="45.67513" lon="4.57509">
        <ele>800</ele>
        <time>2012-05-08T11:17:44.000Z</time>
      </trkpt>
      <trkpt lat="45.67508" lon="4.57505">
        <ele>800</ele>
        <time>2012-05-08T11:17:49.000Z</time>
      </trkpt>
      <trkpt lat="45.67505" lon="4.57501">
        <ele>800</ele>
        <time>2012-05-08T11:17:54.000Z</time>
      </trkpt>
      <trkpt lat="45.67501" lon="4.57497">
        <ele>800</ele>
        <time>2012-05-08T11:17:59.000Z</time>
      </trkpt>
      <trkpt lat="45.67497" lon="4.57492">
        <ele>800</ele>
        <time>2012-05-08T11:18:04.000Z</time>
      </trkpt>
      <trkpt lat="45.67492" lon="4.57488">
        <ele>801</ele>
        <time>2012-05-08T11:18:09.000Z</time>
      </trkpt>
      <trkpt lat="45.67487" lon="4.57484">
        <ele>801</ele>
        <time>2012-05-08T11:18:14.000Z</time>
      </trkpt>
      <trkpt lat="45.67482" lon="4.57481">
        <ele>801</ele>
        <time>2012-05-08T11:18:19.000Z</time>
      </trkpt>
      <trkpt lat="45.67477" lon="4.57478">
        <ele>800</ele>
        <time>2012-05-08T11:18:24.000Z</time>
      </trkpt>
      <trkpt lat="45.67473" lon="4.57474">
        <ele>800</ele>
        <time>2012-05-08T11:18:29.000Z</time>
      </trkpt>
      <trkpt lat="45.67471" lon="4.57467">
        <ele>800</ele>
        <time>2012-05-08T11:18:34.000Z</time>
      </trkpt>
      <trkpt lat="45.67469" lon="4.57461">
        <ele>800</ele>
        <time>2012-05-08T11:18:39.000Z</time>
      </trkpt>
      <trkpt lat="45.67467" lon="4.57455">
        <ele>800</ele>
        <time>2012-05-08T11:18:44.000Z</time>
      </trkpt>
      <trkpt lat="45.67464" lon="4.57449">
        <ele>800</ele>
        <time>2012-05-08T11:18:49.000Z</time>
      </trkpt>
      <trkpt lat="45.6746" lon="4.57444">
        <ele>800</ele>
        <time>2012-05-08T11:18:54.000Z</time>
      </trkpt>
      <trkpt lat="45.67456" lon="4.57438">
        <ele>800</ele>
        <time>2012-05-08T11:18:59.000Z</time>
      </trkpt>
      <trkpt lat="45.67452" lon="4.57433">
        <ele>799</ele>
        <time>2012-05-08T11:19:04.000Z</time>
      </trkpt>
      <trkpt lat="45.67448" lon="4.57428">
        <ele>799</ele>
        <time>2012-05-08T11:19:09.000Z</time>
      </trkpt>
      <trkpt lat="45.67445" lon="4.57423">
        <ele>799</ele>
        <time>2012-05-08T11:19:14.000Z</time>
      </trkpt>
      <trkpt lat="45.6744" lon="4.5742">
        <ele>799</ele>
        <time>2012-05-08T11:19:19.000Z</time>
      </trkpt>
      <trkpt lat="45.67435" lon="4.57416">
        <ele>799</ele>
        <time>2012-05-08T11:19:24.000Z</time>
      </trkpt>
      <trkpt lat="45.67431" lon="4.57413">
        <ele>799</ele>
        <time>2012-05-08T11:19:29.000Z</time>
      </trkpt>
      <trkpt lat="45.67427" lon="4.57408">
        <ele>799</ele>
        <time>2012-05-08T11:19:34.000Z</time>
      </trkpt>
      <trkpt lat="45.67424" lon="4.57405">
        <ele>799</ele>
        <time>2012-05-08T11:19:39.000Z</time>
      </trkpt>
      <trkpt lat="45.6742" lon="4.57401">
        <ele>799</ele>
        <time>2012-05-08T11:19:44.000Z</time>
      </trkpt>
      <trkpt lat="45.67416" lon="4.57395">
        <ele>799</ele>
        <time>2012-05-08T11:19:50.000Z</time>
      </trkpt>
      <trkpt lat="45.67413" lon="4.57391">
        <ele>799</ele>
        <time>2012-05-08T11:19:55.000Z</time>
      </trkpt>
      <trkpt lat="45.67408" lon="4.57387">
        <ele>798</ele>
        <time>2012-05-08T11:20:00.000Z</time>
      </trkpt>
      <trkpt lat="45.67403" lon="4.57385">
        <ele>798</ele>
        <time>2012-05-08T11:20:05.000Z</time>
      </trkpt>
      <trkpt lat="45.67398" lon="4.57384">
        <ele>798</ele>
        <time>2012-05-08T11:20:10.000Z</time>
      </trkpt>
      <trkpt lat="45.67393" lon="4.57382">
        <ele>798</ele>
        <time>2012-05-08T11:20:15.000Z</time>
      </trkpt>
      <trkpt lat="45.67388" lon="4.57381">
        <ele>798</ele>
        <time>2012-05-08T11:20:20.000Z</time>
      </trkpt>
      <trkpt lat="45.67384" lon="4.57378">
        <ele>797</ele>
        <time>2012-05-08T11:20:26.000Z</time>
      </trkpt>
      <trkpt lat="45.67379" lon="4.57376">
        <ele>797</ele>
        <time>2012-05-08T11:20:32.000Z</time>
      </trkpt>
      <trkpt lat="45.67374" lon="4.57372">
        <ele>797</ele>
        <time>2012-05-08T11:20:38.000Z</time>
      </trkpt>
      <trkpt lat="45.6737" lon="4.57368">
        <ele>796</ele>
        <time>2012-05-08T11:20:44.000Z</time>
      </trkpt>
      <trkpt lat="45.67366" lon="4.57363">
        <ele>796</ele>
        <time>2012-05-08T11:20:49.000Z</time>
      </trkpt>
      <trkpt lat="45.67362" lon="4.57358">
        <ele>796</ele>
        <time>2012-05-08T11:20:54.000Z</time>
      </trkpt>
      <trkpt lat="45.67359" lon="4.57353">
        <ele>795</ele>
        <time>2012-05-08T11:20:59.000Z</time>
      </trkpt>
      <trkpt lat="45.67355" lon="4.57348">
        <ele>795</ele>
        <time>2012-05-08T11:21:04.000Z</time>
      </trkpt>
      <trkpt lat="45.67352" lon="4.57345">
        <ele>794</ele>
        <time>2012-05-08T11:21:09.000Z</time>
      </trkpt>
      <trkpt lat="45.67347" lon="4.57341">
        <ele>794</ele>
        <time>2012-05-08T11:21:14.999Z</time>
      </trkpt>
      <trkpt lat="45.67342" lon="4.57341">
        <ele>793</ele>
        <time>2012-05-08T11:21:31.999Z</time>
      </trkpt>
      <trkpt lat="45.67338" lon="4.57338">
        <ele>792</ele>
        <time>2012-05-08T11:21:38.999Z</time>
      </trkpt>
      <trkpt lat="45.67333" lon="4.57339">
        <ele>790</ele>
        <time>2012-05-08T11:21:49.999Z</time>
      </trkpt>
      <trkpt lat="45.67328" lon="4.57336">
        <ele>789</ele>
        <time>2012-05-08T11:21:58.999Z</time>
      </trkpt>
      <trkpt lat="45.67324" lon="4.57331">
        <ele>788</ele>
        <time>2012-05-08T11:22:04.999Z</time>
      </trkpt>
      <trkpt lat="45.6732" lon="4.57328">
        <ele>788</ele>
        <time>2012-05-08T11:22:09.999Z</time>
      </trkpt>
      <trkpt lat="45.67316" lon="4.57324">
        <ele>787</ele>
        <time>2012-05-08T11:22:14.999Z</time>
      </trkpt>
      <trkpt lat="45.67312" lon="4.5732">
        <ele>786</ele>
        <time>2012-05-08T11:22:20.999Z</time>
      </trkpt>
      <trkpt lat="45.67311" lon="4.57314">
        <ele>784</ele>
        <time>2012-05-08T11:22:32.999Z</time>
      </trkpt>
      <trkpt lat="45.67314" lon="4.57308">
        <ele>783</ele>
        <time>2012-05-08T11:22:41.999Z</time>
      </trkpt>
      <trkpt lat="45.6731" lon="4.57302">
        <ele>782</ele>
        <time>2012-05-08T11:22:48.999Z</time>
      </trkpt>
      <trkpt lat="45.67306" lon="4.573">
        <ele>781</ele>
        <time>2012-05-08T11:22:53.999Z</time>
      </trkpt>
      <trkpt lat="45.67301" lon="4.57298">
        <ele>781</ele>
        <time>2012-05-08T11:22:58.999Z</time>
      </trkpt>
      <trkpt lat="45.67296" lon="4.57295">
        <ele>781</ele>
        <time>2012-05-08T11:23:03.999Z</time>
      </trkpt>
      <trkpt lat="45.67292" lon="4.57292">
        <ele>781</ele>
        <time>2012-05-08T11:23:08.999Z</time>
      </trkpt>
      <trkpt lat="45.67288" lon="4.57289">
        <ele>781</ele>
        <time>2012-05-08T11:23:14.999Z</time>
      </trkpt>
      <trkpt lat="45.67284" lon="4.57286">
        <ele>780</ele>
        <time>2012-05-08T11:23:19.999Z</time>
      </trkpt>
      <trkpt lat="45.67279" lon="4.57281">
        <ele>780</ele>
        <time>2012-05-08T11:23:25.999Z</time>
      </trkpt>
      <trkpt lat="45.67274" lon="4.57278">
        <ele>779</ele>
        <time>2012-05-08T11:23:31.999Z</time>
      </trkpt>
      <trkpt lat="45.6727" lon="4.57274">
        <ele>778</ele>
        <time>2012-05-08T11:23:36.999Z</time>
      </trkpt>
      <trkpt lat="45.67265" lon="4.57272">
        <ele>778</ele>
        <time>2012-05-08T11:23:41.999Z</time>
      </trkpt>
      <trkpt lat="45.67261" lon="4.5727">
        <ele>777</ele>
        <time>2012-05-08T11:23:46.999Z</time>
      </trkpt>
      <trkpt lat="45.67257" lon="4.57267">
        <ele>776</ele>
        <time>2012-05-08T11:23:51.999Z</time>
      </trkpt>
      <trkpt lat="45.67253" lon="4.57264">
        <ele>776</ele>
        <time>2012-05-08T11:23:56.999Z</time>
      </trkpt>
      <trkpt lat="45.67248" lon="4.5726">
        <ele>775</ele>
        <time>2012-05-08T11:24:02.999Z</time>
      </trkpt>
      <trkpt lat="45.67243" lon="4.57258">
        <ele>774</ele>
        <time>2012-05-08T11:24:07.999Z</time>
      </trkpt>
      <trkpt lat="45.67239" lon="4.57254">
        <ele>774</ele>
        <time>2012-05-08T11:24:12.999Z</time>
      </trkpt>
      <trkpt lat="45.67234" lon="4.57251">
        <ele>773</ele>
        <time>2012-05-08T11:24:17.999Z</time>
      </trkpt>
      <trkpt lat="45.6723" lon="4.57247">
        <ele>773</ele>
        <time>2012-05-08T11:24:22.999Z</time>
      </trkpt>
      <trkpt lat="45.67226" lon="4.57243">
        <ele>772</ele>
        <time>2012-05-08T11:24:27.999Z</time>
      </trkpt>
      <trkpt lat="45.67221" lon="4.57239">
        <ele>772</ele>
        <time>2012-05-08T11:24:32.999Z</time>
      </trkpt>
      <trkpt lat="45.67216" lon="4.57239">
        <ele>771</ele>
        <time>2012-05-08T11:24:37.999Z</time>
      </trkpt>
      <trkpt lat="45.67212" lon="4.57236">
        <ele>770</ele>
        <time>2012-05-08T11:24:42.999Z</time>
      </trkpt>
      <trkpt lat="45.67207" lon="4.57233">
        <ele>770</ele>
        <time>2012-05-08T11:24:47.999Z</time>
      </trkpt>
      <trkpt lat="45.67203" lon="4.5723">
        <ele>769</ele>
        <time>2012-05-08T11:24:52.999Z</time>
      </trkpt>
      <trkpt lat="45.67199" lon="4.57225">
        <ele>768</ele>
        <time>2012-05-08T11:24:57.999Z</time>
      </trkpt>
      <trkpt lat="45.67196" lon="4.57219">
        <ele>767</ele>
        <time>2012-05-08T11:25:02.999Z</time>
      </trkpt>
      <trkpt lat="45.67191" lon="4.57215">
        <ele>767</ele>
        <time>2012-05-08T11:25:07.999Z</time>
      </trkpt>
      <trkpt lat="45.67187" lon="4.57213">
        <ele>766</ele>
        <time>2012-05-08T11:25:11.999Z</time>
      </trkpt>
      <trkpt lat="45.67181" lon="4.57212">
        <ele>765</ele>
        <time>2012-05-08T11:25:16.999Z</time>
      </trkpt>
      <trkpt lat="45.67176" lon="4.57214">
        <ele>765</ele>
        <time>2012-05-08T11:25:20.999Z</time>
      </trkpt>
      <trkpt lat="45.67172" lon="4.57216">
        <ele>764</ele>
        <time>2012-05-08T11:25:24.999Z</time>
      </trkpt>
      <trkpt lat="45.67167" lon="4.5722">
        <ele>764</ele>
        <time>2012-05-08T11:25:29.999Z</time>
      </trkpt>
      <trkpt lat="45.67162" lon="4.57223">
        <ele>763</ele>
        <time>2012-05-08T11:25:34.999Z</time>
      </trkpt>
      <trkpt lat="45.67158" lon="4.57227">
        <ele>763</ele>
        <time>2012-05-08T11:25:38.999Z</time>
      </trkpt>
      <trkpt lat="45.67153" lon="4.5723">
        <ele>763</ele>
        <time>2012-05-08T11:25:42.999Z</time>
      </trkpt>
      <trkpt lat="45.67149" lon="4.57232">
        <ele>762</ele>
        <time>2012-05-08T11:25:46.999Z</time>
      </trkpt>
      <trkpt lat="45.67144" lon="4.57235">
        <ele>762</ele>
        <time>2012-05-08T11:25:50.999Z</time>
      </trkpt>
      <trkpt lat="45.67139" lon="4.57236">
        <ele>762</ele>
        <time>2012-05-08T11:25:55.999Z</time>
      </trkpt>
      <trkpt lat="45.67133" lon="4.57239">
        <ele>761</ele>
        <time>2012-05-08T11:26:01.999Z</time>
      </trkpt>
      <trkpt lat="45.67128" lon="4.57242">
        <ele>760</ele>
        <time>2012-05-08T11:26:07.999Z</time>
      </trkpt>
      <trkpt lat="45.67123" lon="4.57243">
        <ele>760</ele>
        <time>2012-05-08T11:26:12.999Z</time>
      </trkpt>
      <trkpt lat="45.67118" lon="4.57244">
        <ele>759</ele>
        <time>2012-05-08T11:26:17.999Z</time>
      </trkpt>
      <trkpt lat="45.67113" lon="4.57246">
        <ele>758</ele>
        <time>2012-05-08T11:26:22.999Z</time>
      </trkpt>
      <trkpt lat="45.67108" lon="4.57248">
        <ele>758</ele>
        <time>2012-05-08T11:26:27.999Z</time>
      </trkpt>
      <trkpt lat="45.67104" lon="4.57249">
        <ele>757</ele>
        <time>2012-05-08T11:26:32.999Z</time>
      </trkpt>
      <trkpt lat="45.67099" lon="4.57253">
        <ele>757</ele>
        <time>2012-05-08T11:26:38.999Z</time>
      </trkpt>
      <trkpt lat="45.67095" lon="4.57257">
        <ele>756</ele>
        <time>2012-05-08T11:26:44.999Z</time>
      </trkpt>
      <trkpt lat="45.67091" lon="4.57259">
        <ele>756</ele>
        <time>2012-05-08T11:26:49.999Z</time>
      </trkpt>
      <trkpt lat="45.67086" lon="4.57262">
        <ele>756</ele>
        <time>2012-05-08T11:26:55.999Z</time>
      </trkpt>
      <trkpt lat="45.67082" lon="4.57265">
        <ele>756</ele>
        <time>2012-05-08T11:27:01.999Z</time>
      </trkpt>
      <trkpt lat="45.67077" lon="4.57265">
        <ele>755</ele>
        <time>2012-05-08T11:27:06.999Z</time>
      </trkpt>
      <trkpt lat="45.67072" lon="4.57265">
        <ele>755</ele>
        <time>2012-05-08T11:27:11.999Z</time>
      </trkpt>
      <trkpt lat="45.67067" lon="4.57265">
        <ele>755</ele>
        <time>2012-05-08T11:27:17.999Z</time>
      </trkpt>
      <trkpt lat="45.67062" lon="4.57265">
        <ele>755</ele>
        <time>2012-05-08T11:27:24.999Z</time>
      </trkpt>
      <trkpt lat="45.67057" lon="4.57264">
        <ele>755</ele>
        <time>2012-05-08T11:27:30.999Z</time>
      </trkpt>
      <trkpt lat="45.67052" lon="4.57267">
        <ele>755</ele>
        <time>2012-05-08T11:27:36.999Z</time>
      </trkpt>
      <trkpt lat="45.67048" lon="4.57269">
        <ele>755</ele>
        <time>2012-05-08T11:27:41.999Z</time>
      </trkpt>
      <trkpt lat="45.67043" lon="4.57271">
        <ele>755</ele>
        <time>2012-05-08T11:27:51.999Z</time>
      </trkpt>
      <trkpt lat="45.67038" lon="4.57272">
        <ele>755</ele>
        <time>2012-05-08T11:28:01.999Z</time>
      </trkpt>
      <trkpt lat="45.67033" lon="4.57273">
        <ele>755</ele>
        <time>2012-05-08T11:28:15.999Z</time>
      </trkpt>
      <trkpt lat="45.67029" lon="4.57275">
        <ele>755</ele>
        <time>2012-05-08T11:28:25.999Z</time>
      </trkpt>
      <trkpt lat="45.67023" lon="4.57276">
        <ele>755</ele>
        <time>2012-05-08T11:28:32.999Z</time>
      </trkpt>
      <trkpt lat="45.67019" lon="4.57277">
        <ele>755</ele>
        <time>2012-05-08T11:28:38.999Z</time>
      </trkpt>
      <trkpt lat="45.67014" lon="4.57278">
        <ele>755</ele>
        <time>2012-05-08T11:28:46.999Z</time>
      </trkpt>
      <trkpt lat="45.67009" lon="4.57278">
        <ele>755</ele>
        <time>2012-05-08T11:28:55.999Z</time>
      </trkpt>
      <trkpt lat="45.67005" lon="4.57276">
        <ele>755</ele>
        <time>2012-05-08T11:29:05.999Z</time>
      </trkpt>
      <trkpt lat="45.67" lon="4.57273">
        <ele>755</ele>
        <time>2012-05-08T11:29:13.999Z</time>
      </trkpt>
      <trkpt lat="45.66996" lon="4.57271">
        <ele>755</ele>
        <time>2012-05-08T11:29:20.999Z</time>
      </trkpt>
      <trkpt lat="45.66991" lon="4.57268">
        <ele>755</ele>
        <time>2012-05-08T11:29:26.999Z</time>
      </trkpt>
      <trkpt lat="45.66987" lon="4.57265">
        <ele>755</ele>
        <time>2012-05-08T11:29:33.999Z</time>
      </trkpt>
      <trkpt lat="45.66984" lon="4.5726">
        <ele>755</ele>
        <time>2012-05-08T11:29:40.999Z</time>
      </trkpt>
      <trkpt lat="45.6698" lon="4.57256">
        <ele>755</ele>
        <time>2012-05-08T11:29:47.999Z</time>
      </trkpt>
      <trkpt lat="45.66976" lon="4.57251">
        <ele>755</ele>
        <time>2012-05-08T11:29:55.999Z</time>
      </trkpt>
      <trkpt lat="45.66974" lon="4.57245">
        <ele>756</ele>
        <time>2012-05-08T11:30:03.999Z</time>
      </trkpt>
      <trkpt lat="45.66974" lon="4.57237">
        <ele>756</ele>
        <time>2012-05-08T11:30:08.999Z</time>
      </trkpt>
      <trkpt lat="45.66974" lon="4.57228">
        <ele>756</ele>
        <time>2012-05-08T11:30:12.999Z</time>
      </trkpt>
      <trkpt lat="45.66974" lon="4.57221">
        <ele>756</ele>
        <time>2012-05-08T11:30:16.999Z</time>
      </trkpt>
      <trkpt lat="45.66975" lon="4.57214">
        <ele>756</ele>
        <time>2012-05-08T11:30:21.999Z</time>
      </trkpt>
      <trkpt lat="45.66975" lon="4.57207">
        <ele>757</ele>
        <time>2012-05-08T11:30:27.999Z</time>
      </trkpt>
      <trkpt lat="45.66974" lon="4.572">
        <ele>757</ele>
        <time>2012-05-08T11:30:33.999Z</time>
      </trkpt>
      <trkpt lat="45.66974" lon="4.57192">
        <ele>757</ele>
        <time>2012-05-08T11:30:39.999Z</time>
      </trkpt>
      <trkpt lat="45.66973" lon="4.57185">
        <ele>757</ele>
        <time>2012-05-08T11:30:45.999Z</time>
      </trkpt>
      <trkpt lat="45.66972" lon="4.57178">
        <ele>758</ele>
        <time>2012-05-08T11:30:51.999Z</time>
      </trkpt>
      <trkpt lat="45.66969" lon="4.57172">
        <ele>758</ele>
        <time>2012-05-08T11:30:57.999Z</time>
      </trkpt>
      <trkpt lat="45.66965" lon="4.57168">
        <ele>758</ele>
        <time>2012-05-08T11:31:03.999Z</time>
      </trkpt>
      <trkpt lat="45.6696" lon="4.57167">
        <ele>758</ele>
        <time>2012-05-08T11:31:09.999Z</time>
      </trkpt>
      <trkpt lat="45.66955" lon="4.5717">
        <ele>759</ele>
        <time>2012-05-08T11:31:15.999Z</time>
      </trkpt>
      <trkpt lat="45.6695" lon="4.57172">
        <ele>759</ele>
        <time>2012-05-08T11:31:21.999Z</time>
      </trkpt>
      <trkpt lat="45.66946" lon="4.57176">
        <ele>759</ele>
        <time>2012-05-08T11:31:28.999Z</time>
      </trkpt>
      <trkpt lat="45.66942" lon="4.57181">
        <ele>759</ele>
        <time>2012-05-08T11:31:35.999Z</time>
      </trkpt>
      <trkpt lat="45.66939" lon="4.57185">
        <ele>759</ele>
        <time>2012-05-08T11:31:41.999Z</time>
      </trkpt>
      <trkpt lat="45.66936" lon="4.5719">
        <ele>760</ele>
        <time>2012-05-08T11:31:46.999Z</time>
      </trkpt>
      <trkpt lat="45.66932" lon="4.57195">
        <ele>760</ele>
        <time>2012-05-08T11:31:51.999Z</time>
      </trkpt>
      <trkpt lat="45.6693" lon="4.572">
        <ele>760</ele>
        <time>2012-05-08T11:31:56.999Z</time>
      </trkpt>
      <trkpt lat="45.66927" lon="4.57206">
        <ele>760</ele>
        <time>2012-05-08T11:32:02.999Z</time>
      </trkpt>
      <trkpt lat="45.66924" lon="4.57212">
        <ele>760</ele>
        <time>2012-05-08T11:32:08.999Z</time>
      </trkpt>
      <trkpt lat="45.66923" lon="4.57219">
        <ele>760</ele>
        <time>2012-05-08T11:32:14.999Z</time>
      </trkpt>
      <trkpt lat="45.66921" lon="4.57226">
        <ele>760</ele>
        <time>2012-05-08T11:32:20.999Z</time>
      </trkpt>
      <trkpt lat="45.66919" lon="4.57232">
        <ele>761</ele>
        <time>2012-05-08T11:32:25.999Z</time>
      </trkpt>
      <trkpt lat="45.66917" lon="4.57238">
        <ele>761</ele>
        <time>2012-05-08T11:32:30.999Z</time>
      </trkpt>
      <trkpt lat="45.66915" lon="4.57246">
        <ele>761</ele>
        <time>2012-05-08T11:32:36.999Z</time>
      </trkpt>
      <trkpt lat="45.66913" lon="4.57251">
        <ele>761</ele>
        <time>2012-05-08T11:32:41.999Z</time>
      </trkpt>
      <trkpt lat="45.66908" lon="4.57249">
        <ele>762</ele>
        <time>2012-05-08T11:32:48.999Z</time>
      </trkpt>
      <trkpt lat="45.6691" lon="4.57243">
        <ele>762</ele>
        <time>2012-05-08T11:32:56.999Z</time>
      </trkpt>
      <trkpt lat="45.66913" lon="4.57249">
        <ele>763</ele>
        <time>2012-05-08T11:33:18.999Z</time>
      </trkpt>
      <trkpt lat="45.66913" lon="4.57255">
        <ele>764</ele>
        <time>2012-05-08T11:33:25.999Z</time>
      </trkpt>
      <trkpt lat="45.66912" lon="4.57262">
        <ele>764</ele>
        <time>2012-05-08T11:33:32.999Z</time>
      </trkpt>
      <trkpt lat="45.6691" lon="4.57269">
        <ele>764</ele>
        <time>2012-05-08T11:33:38.999Z</time>
      </trkpt>
      <trkpt lat="45.6691" lon="4.57276">
        <ele>764</ele>
        <time>2012-05-08T11:33:45.999Z</time>
      </trkpt>
      <trkpt lat="45.6691" lon="4.57282">
        <ele>765</ele>
        <time>2012-05-08T11:33:51.999Z</time>
      </trkpt>
      <trkpt lat="45.66908" lon="4.57289">
        <ele>765</ele>
        <time>2012-05-08T11:33:57.999Z</time>
      </trkpt>
      <trkpt lat="45.66906" lon="4.57296">
        <ele>765</ele>
        <time>2012-05-08T11:34:02.999Z</time>
      </trkpt>
      <trkpt lat="45.66903" lon="4.57301">
        <ele>765</ele>
        <time>2012-05-08T11:34:07.999Z</time>
      </trkpt>
      <trkpt lat="45.66901" lon="4.57307">
        <ele>765</ele>
        <time>2012-05-08T11:34:13.999Z</time>
      </trkpt>
      <trkpt lat="45.66898" lon="4.57313">
        <ele>765</ele>
        <time>2012-05-08T11:34:22.999Z</time>
      </trkpt>
      <trkpt lat="45.669" lon="4.57306">
        <ele>766</ele>
        <time>2012-05-08T11:34:50.999Z</time>
      </trkpt>
      <trkpt lat="45.66902" lon="4.573">
        <ele>766</ele>
        <time>2012-05-08T11:34:56.999Z</time>
      </trkpt>
      <trkpt lat="45.66905" lon="4.57293">
        <ele>767</ele>
        <time>2012-05-08T11:35:03.999Z</time>
      </trkpt>
      <trkpt lat="45.66908" lon="4.57287">
        <ele>767</ele>
        <time>2012-05-08T11:35:10.999Z</time>
      </trkpt>
      <trkpt lat="45.66911" lon="4.57282">
        <ele>768</ele>
        <time>2012-05-08T11:35:22.999Z</time>
      </trkpt>
      <trkpt lat="45.66907" lon="4.57288">
        <ele>769</ele>
        <time>2012-05-08T11:35:52.999Z</time>
      </trkpt>
      <trkpt lat="45.66907" lon="4.57294">
        <ele>769</ele>
        <time>2012-05-08T11:35:57.999Z</time>
      </trkpt>
      <trkpt lat="45.66906" lon="4.57301">
        <ele>769</ele>
        <time>2012-05-08T11:36:04.999Z</time>
      </trkpt>
      <trkpt lat="45.66903" lon="4.57308">
        <ele>770</ele>
        <time>2012-05-08T11:36:10.999Z</time>
      </trkpt>
      <trkpt lat="45.66899" lon="4.57313">
        <ele>770</ele>
        <time>2012-05-08T11:36:16.999Z</time>
      </trkpt>
      <trkpt lat="45.66896" lon="4.57318">
        <ele>770</ele>
        <time>2012-05-08T11:36:23.999Z</time>
      </trkpt>
      <trkpt lat="45.66891" lon="4.5732">
        <ele>770</ele>
        <time>2012-05-08T11:36:29.999Z</time>
      </trkpt>
      <trkpt lat="45.66887" lon="4.57323">
        <ele>771</ele>
        <time>2012-05-08T11:36:38.999Z</time>
      </trkpt>
      <trkpt lat="45.66885" lon="4.57317">
        <ele>771</ele>
        <time>2012-05-08T11:36:58.999Z</time>
      </trkpt>
      <trkpt lat="45.66884" lon="4.57311">
        <ele>771</ele>
        <time>2012-05-08T11:37:22.999Z</time>
      </trkpt>
      <trkpt lat="45.66882" lon="4.57305">
        <ele>772</ele>
        <time>2012-05-08T11:37:31.999Z</time>
      </trkpt>
      <trkpt lat="45.66878" lon="4.57301">
        <ele>772</ele>
        <time>2012-05-08T11:37:47.999Z</time>
      </trkpt>
      <trkpt lat="45.66873" lon="4.57299">
        <ele>772</ele>
        <time>2012-05-08T11:38:03.999Z</time>
      </trkpt>
      <trkpt lat="45.66869" lon="4.57298">
        <ele>772</ele>
        <time>2012-05-08T11:38:17.999Z</time>
      </trkpt>
      <trkpt lat="45.66864" lon="4.57296">
        <ele>772</ele>
        <time>2012-05-08T11:38:25.999Z</time>
      </trkpt>
      <trkpt lat="45.66859" lon="4.57294">
        <ele>772</ele>
        <time>2012-05-08T11:38:33.999Z</time>
      </trkpt>
      <trkpt lat="45.66855" lon="4.57291">
        <ele>772</ele>
        <time>2012-05-08T11:38:40.999Z</time>
      </trkpt>
      <trkpt lat="45.66851" lon="4.57287">
        <ele>772</ele>
        <time>2012-05-08T11:38:57.999Z</time>
      </trkpt>
      <trkpt lat="45.66846" lon="4.57286">
        <ele>771</ele>
        <time>2012-05-08T11:39:11.999Z</time>
      </trkpt>
      <trkpt lat="45.66841" lon="4.57289">
        <ele>771</ele>
        <time>2012-05-08T11:39:17.999Z</time>
      </trkpt>
      <trkpt lat="45.66836" lon="4.5729">
        <ele>771</ele>
        <time>2012-05-08T11:39:21.999Z</time>
      </trkpt>
      <trkpt lat="45.66832" lon="4.57291">
        <ele>771</ele>
        <time>2012-05-08T11:39:25.999Z</time>
      </trkpt>
      <trkpt lat="45.66827" lon="4.57294">
        <ele>771</ele>
        <time>2012-05-08T11:39:30.999Z</time>
      </trkpt>
      <trkpt lat="45.66823" lon="4.57291">
        <ele>771</ele>
        <time>2012-05-08T11:39:35.999Z</time>
      </trkpt>
      <trkpt lat="45.66818" lon="4.5729">
        <ele>772</ele>
        <time>2012-05-08T11:39:40.999Z</time>
      </trkpt>
      <trkpt lat="45.66814" lon="4.5729">
        <ele>772</ele>
        <time>2012-05-08T11:39:45.999Z</time>
      </trkpt>
      <trkpt lat="45.66809" lon="4.57291">
        <ele>772</ele>
        <time>2012-05-08T11:39:50.999Z</time>
      </trkpt>
      <trkpt lat="45.66805" lon="4.57295">
        <ele>772</ele>
        <time>2012-05-08T11:39:54.999Z</time>
      </trkpt>
      <trkpt lat="45.66801" lon="4.57299">
        <ele>772</ele>
        <time>2012-05-08T11:39:58.999Z</time>
      </trkpt>
      <trkpt lat="45.66796" lon="4.57303">
        <ele>772</ele>
        <time>2012-05-08T11:40:03.999Z</time>
      </trkpt>
      <trkpt lat="45.66792" lon="4.57307">
        <ele>772</ele>
        <time>2012-05-08T11:40:08.999Z</time>
      </trkpt>
      <trkpt lat="45.66788" lon="4.57312">
        <ele>772</ele>
        <time>2012-05-08T11:40:13.999Z</time>
      </trkpt>
      <trkpt lat="45.66783" lon="4.57315">
        <ele>773</ele>
        <time>2012-05-08T11:40:18.999Z</time>
      </trkpt>
      <trkpt lat="45.66778" lon="4.57315">
        <ele>773</ele>
        <time>2012-05-08T11:40:23.999Z</time>
      </trkpt>
      <trkpt lat="45.66773" lon="4.57315">
        <ele>773</ele>
        <time>2012-05-08T11:40:27.999Z</time>
      </trkpt>
      <trkpt lat="45.66768" lon="4.57313">
        <ele>773</ele>
        <time>2012-05-08T11:40:31.999Z</time>
      </trkpt>
      <trkpt lat="45.66763" lon="4.57311">
        <ele>773</ele>
        <time>2012-05-08T11:40:36.999Z</time>
      </trkpt>
      <trkpt lat="45.66758" lon="4.57312">
        <ele>773</ele>
        <time>2012-05-08T11:40:41.999Z</time>
      </trkpt>
      <trkpt lat="45.66753" lon="4.57312">
        <ele>773</ele>
        <time>2012-05-08T11:40:46.999Z</time>
      </trkpt>
      <trkpt lat="45.66748" lon="4.57312">
        <ele>773</ele>
        <time>2012-05-08T11:40:51.999Z</time>
      </trkpt>
      <trkpt lat="45.66743" lon="4.57311">
        <ele>773</ele>
        <time>2012-05-08T11:40:56.999Z</time>
      </trkpt>
      <trkpt lat="45.66738" lon="4.5731">
        <ele>773</ele>
        <time>2012-05-08T11:41:01.999Z</time>
      </trkpt>
      <trkpt lat="45.66733" lon="4.57311">
        <ele>773</ele>
        <time>2012-05-08T11:41:07.999Z</time>
      </trkpt>
      <trkpt lat="45.66728" lon="4.57311">
        <ele>773</ele>
        <time>2012-05-08T11:41:12.999Z</time>
      </trkpt>
      <trkpt lat="45.66723" lon="4.57309">
        <ele>773</ele>
        <time>2012-05-08T11:41:26.999Z</time>
      </trkpt>
      <trkpt lat="45.66722" lon="4.57302">
        <ele>773</ele>
        <time>2012-05-08T11:41:33.999Z</time>
      </trkpt>
      <trkpt lat="45.66717" lon="4.57301">
        <ele>774</ele>
        <time>2012-05-08T11:41:51.999Z</time>
      </trkpt>
      <trkpt lat="45.66712" lon="4.57301">
        <ele>774</ele>
        <time>2012-05-08T11:41:57.999Z</time>
      </trkpt>
      <trkpt lat="45.66707" lon="4.57302">
        <ele>774</ele>
        <time>2012-05-08T11:42:01.999Z</time>
      </trkpt>
      <trkpt lat="45.66703" lon="4.57304">
        <ele>774</ele>
        <time>2012-05-08T11:42:05.999Z</time>
      </trkpt>
      <trkpt lat="45.66697" lon="4.57306">
        <ele>774</ele>
        <time>2012-05-08T11:42:10.999Z</time>
      </trkpt>
      <trkpt lat="45.66692" lon="4.57307">
        <ele>774</ele>
        <time>2012-05-08T11:42:15.999Z</time>
      </trkpt>
      <trkpt lat="45.66687" lon="4.57307">
        <ele>774</ele>
        <time>2012-05-08T11:42:20.999Z</time>
      </trkpt>
      <trkpt lat="45.66682" lon="4.57307">
        <ele>774</ele>
        <time>2012-05-08T11:42:25.999Z</time>
      </trkpt>
      <trkpt lat="45.66678" lon="4.57307">
        <ele>774</ele>
        <time>2012-05-08T11:42:29.999Z</time>
      </trkpt>
      <trkpt lat="45.66673" lon="4.57308">
        <ele>774</ele>
        <time>2012-05-08T11:42:33.999Z</time>
      </trkpt>
      <trkpt lat="45.66668" lon="4.57307">
        <ele>775</ele>
        <time>2012-05-08T11:42:37.999Z</time>
      </trkpt>
      <trkpt lat="45.66664" lon="4.57307">
        <ele>775</ele>
        <time>2012-05-08T11:42:41.999Z</time>
      </trkpt>
      <trkpt lat="45.66659" lon="4.57308">
        <ele>775</ele>
        <time>2012-05-08T11:42:45.999Z</time>
      </trkpt>
      <trkpt lat="45.66654" lon="4.57308">
        <ele>775</ele>
        <time>2012-05-08T11:42:49.999Z</time>
      </trkpt>
      <trkpt lat="45.6665" lon="4.57308">
        <ele>775</ele>
        <time>2012-05-08T11:42:53.999Z</time>
      </trkpt>
      <trkpt lat="45.66645" lon="4.57306">
        <ele>775</ele>
        <time>2012-05-08T11:42:57.999Z</time>
      </trkpt>
      <trkpt lat="45.6664" lon="4.57304">
        <ele>775</ele>
        <time>2012-05-08T11:43:01.999Z</time>
      </trkpt>
      <trkpt lat="45.66635" lon="4.57302">
        <ele>775</ele>
        <time>2012-05-08T11:43:05.999Z</time>
      </trkpt>
      <trkpt lat="45.6663" lon="4.573">
        <ele>775</ele>
        <time>2012-05-08T11:43:09.999Z</time>
      </trkpt>
      <trkpt lat="45.66625" lon="4.57301">
        <ele>775</ele>
        <time>2012-05-08T11:43:13.999Z</time>
      </trkpt>
      <trkpt lat="45.6662" lon="4.57303">
        <ele>775</ele>
        <time>2012-05-08T11:43:17.999Z</time>
      </trkpt>
      <trkpt lat="45.66614" lon="4.57306">
        <ele>775</ele>
        <time>2012-05-08T11:43:21.999Z</time>
      </trkpt>
      <trkpt lat="45.6661" lon="4.57309">
        <ele>775</ele>
        <time>2012-05-08T11:43:24.999Z</time>
      </trkpt>
      <trkpt lat="45.66606" lon="4.57312">
        <ele>775</ele>
        <time>2012-05-08T11:43:28.999Z</time>
      </trkpt>
      <trkpt lat="45.666" lon="4.57314">
        <ele>775</ele>
        <time>2012-05-08T11:43:33.999Z</time>
      </trkpt>
      <trkpt lat="45.66596" lon="4.57314">
        <ele>775</ele>
        <time>2012-05-08T11:43:38.999Z</time>
      </trkpt>
      <trkpt lat="45.6659" lon="4.57312">
        <ele>775</ele>
        <time>2012-05-08T11:43:44.999Z</time>
      </trkpt>
      <trkpt lat="45.66586" lon="4.57309">
        <ele>775</ele>
        <time>2012-05-08T11:43:49.999Z</time>
      </trkpt>
      <trkpt lat="45.66581" lon="4.57307">
        <ele>775</ele>
        <time>2012-05-08T11:43:55.999Z</time>
      </trkpt>
      <trkpt lat="45.66577" lon="4.57304">
        <ele>776</ele>
        <time>2012-05-08T11:44:01.999Z</time>
      </trkpt>
      <trkpt lat="45.66572" lon="4.57301">
        <ele>776</ele>
        <time>2012-05-08T11:44:10.999Z</time>
      </trkpt>
      <trkpt lat="45.66568" lon="4.57302">
        <ele>776</ele>
        <time>2012-05-08T11:44:17.999Z</time>
      </trkpt>
      <trkpt lat="45.66563" lon="4.57299">
        <ele>775</ele>
        <time>2012-05-08T11:44:26.999Z</time>
      </trkpt>
      <trkpt lat="45.6656" lon="4.57293">
        <ele>775</ele>
        <time>2012-05-08T11:44:31.999Z</time>
      </trkpt>
      <trkpt lat="45.66557" lon="4.57288">
        <ele>775</ele>
        <time>2012-05-08T11:44:36.999Z</time>
      </trkpt>
      <trkpt lat="45.66555" lon="4.57281">
        <ele>775</ele>
        <time>2012-05-08T11:44:41.999Z</time>
      </trkpt>
      <trkpt lat="45.66552" lon="4.57275">
        <ele>775</ele>
        <time>2012-05-08T11:44:46.999Z</time>
      </trkpt>
      <trkpt lat="45.6655" lon="4.5727">
        <ele>775</ele>
        <time>2012-05-08T11:44:51.999Z</time>
      </trkpt>
      <trkpt lat="45.66547" lon="4.57265">
        <ele>776</ele>
        <time>2012-05-08T11:44:56.999Z</time>
      </trkpt>
      <trkpt lat="45.66543" lon="4.5726">
        <ele>776</ele>
        <time>2012-05-08T11:45:01.999Z</time>
      </trkpt>
      <trkpt lat="45.66539" lon="4.57255">
        <ele>776</ele>
        <time>2012-05-08T11:45:06.999Z</time>
      </trkpt>
      <trkpt lat="45.66534" lon="4.57251">
        <ele>776</ele>
        <time>2012-05-08T11:45:10.999Z</time>
      </trkpt>
      <trkpt lat="45.6653" lon="4.57247">
        <ele>776</ele>
        <time>2012-05-08T11:45:15.999Z</time>
      </trkpt>
      <trkpt lat="45.66526" lon="4.57242">
        <ele>776</ele>
        <time>2012-05-08T11:45:20.999Z</time>
      </trkpt>
      <trkpt lat="45.66523" lon="4.57237">
        <ele>776</ele>
        <time>2012-05-08T11:45:25.999Z</time>
      </trkpt>
      <trkpt lat="45.6652" lon="4.57231">
        <ele>776</ele>
        <time>2012-05-08T11:45:30.999Z</time>
      </trkpt>
      <trkpt lat="45.66518" lon="4.57225">
        <ele>776</ele>
        <time>2012-05-08T11:45:35.999Z</time>
      </trkpt>
      <trkpt lat="45.66517" lon="4.57218">
        <ele>777</ele>
        <time>2012-05-08T11:45:39.999Z</time>
      </trkpt>
      <trkpt lat="45.66516" lon="4.5721">
        <ele>777</ele>
        <time>2012-05-08T11:45:43.999Z</time>
      </trkpt>
      <trkpt lat="45.66514" lon="4.57204">
        <ele>777</ele>
        <time>2012-05-08T11:45:47.999Z</time>
      </trkpt>
      <trkpt lat="45.66513" lon="4.57196">
        <ele>777</ele>
        <time>2012-05-08T11:45:51.999Z</time>
      </trkpt>
      <trkpt lat="45.66511" lon="4.57189">
        <ele>778</ele>
        <time>2012-05-08T11:45:55.999Z</time>
      </trkpt>
      <trkpt lat="45.6651" lon="4.57182">
        <ele>778</ele>
        <time>2012-05-08T11:45:59.999Z</time>
      </trkpt>
      <trkpt lat="45.66509" lon="4.57176">
        <ele>778</ele>
        <time>2012-05-08T11:46:03.999Z</time>
      </trkpt>
      <trkpt lat="45.66508" lon="4.57169">
        <ele>779</ele>
        <time>2012-05-08T11:46:07.999Z</time>
      </trkpt>
      <trkpt lat="45.66507" lon="4.57162">
        <ele>779</ele>
        <time>2012-05-08T11:46:11.999Z</time>
      </trkpt>
      <trkpt lat="45.66506" lon="4.57155">
        <ele>779</ele>
        <time>2012-05-08T11:46:15.999Z</time>
      </trkpt>
      <trkpt lat="45.66505" lon="4.57148">
        <ele>780</ele>
        <time>2012-05-08T11:46:20.999Z</time>
      </trkpt>
      <trkpt lat="45.66505" lon="4.57141">
        <ele>780</ele>
        <time>2012-05-08T11:46:24.999Z</time>
      </trkpt>
      <trkpt lat="45.66506" lon="4.57134">
        <ele>780</ele>
        <time>2012-05-08T11:46:28.999Z</time>
      </trkpt>
      <trkpt lat="45.66506" lon="4.57127">
        <ele>780</ele>
        <time>2012-05-08T11:46:32.999Z</time>
      </trkpt>
      <trkpt lat="45.66507" lon="4.57119">
        <ele>780</ele>
        <time>2012-05-08T11:46:37.999Z</time>
      </trkpt>
      <trkpt lat="45.66508" lon="4.57112">
        <ele>781</ele>
        <time>2012-05-08T11:46:42.999Z</time>
      </trkpt>
      <trkpt lat="45.66508" lon="4.57104">
        <ele>781</ele>
        <time>2012-05-08T11:46:47.999Z</time>
      </trkpt>
      <trkpt lat="45.66508" lon="4.57097">
        <ele>781</ele>
        <time>2012-05-08T11:46:51.999Z</time>
      </trkpt>
      <trkpt lat="45.66508" lon="4.5709">
        <ele>781</ele>
        <time>2012-05-08T11:46:55.999Z</time>
      </trkpt>
      <trkpt lat="45.66507" lon="4.57082">
        <ele>781</ele>
        <time>2012-05-08T11:46:59.999Z</time>
      </trkpt>
      <trkpt lat="45.66506" lon="4.57074">
        <ele>781</ele>
        <time>2012-05-08T11:47:03.999Z</time>
      </trkpt>
      <trkpt lat="45.66505" lon="4.57067">
        <ele>781</ele>
        <time>2012-05-08T11:47:07.999Z</time>
      </trkpt>
      <trkpt lat="45.66503" lon="4.5706">
        <ele>781</ele>
        <time>2012-05-08T11:47:11.999Z</time>
      </trkpt>
      <trkpt lat="45.66502" lon="4.57053">
        <ele>781</ele>
        <time>2012-05-08T11:47:15.999Z</time>
      </trkpt>
      <trkpt lat="45.665" lon="4.57046">
        <ele>782</ele>
        <time>2012-05-08T11:47:19.999Z</time>
      </trkpt>
      <trkpt lat="45.66497" lon="4.5704">
        <ele>782</ele>
        <time>2012-05-08T11:47:23.999Z</time>
      </trkpt>
      <trkpt lat="45.66495" lon="4.57034">
        <ele>782</ele>
        <time>2012-05-08T11:47:27.999Z</time>
      </trkpt>
      <trkpt lat="45.66492" lon="4.57028">
        <ele>782</ele>
        <time>2012-05-08T11:47:31.999Z</time>
      </trkpt>
      <trkpt lat="45.6649" lon="4.57022">
        <ele>782</ele>
        <time>2012-05-08T11:47:35.999Z</time>
      </trkpt>
      <trkpt lat="45.66488" lon="4.57016">
        <ele>783</ele>
        <time>2012-05-08T11:47:39.999Z</time>
      </trkpt>
      <trkpt lat="45.66485" lon="4.5701">
        <ele>783</ele>
        <time>2012-05-08T11:47:43.999Z</time>
      </trkpt>
      <trkpt lat="45.66483" lon="4.57004">
        <ele>783</ele>
        <time>2012-05-08T11:47:47.999Z</time>
      </trkpt>
      <trkpt lat="45.6648" lon="4.56998">
        <ele>783</ele>
        <time>2012-05-08T11:47:51.999Z</time>
      </trkpt>
      <trkpt lat="45.66477" lon="4.56994">
        <ele>783</ele>
        <time>2012-05-08T11:47:55.999Z</time>
      </trkpt>
      <trkpt lat="45.66472" lon="4.56989">
        <ele>783</ele>
        <time>2012-05-08T11:48:00.999Z</time>
      </trkpt>
      <trkpt lat="45.66468" lon="4.56985">
        <ele>783</ele>
        <time>2012-05-08T11:48:05.999Z</time>
      </trkpt>
      <trkpt lat="45.66466" lon="4.5698">
        <ele>783</ele>
        <time>2012-05-08T11:48:10.999Z</time>
      </trkpt>
      <trkpt lat="45.66462" lon="4.56976">
        <ele>783</ele>
        <time>2012-05-08T11:48:14.999Z</time>
      </trkpt>
      <trkpt lat="45.66457" lon="4.56972">
        <ele>784</ele>
        <time>2012-05-08T11:48:18.999Z</time>
      </trkpt>
      <trkpt lat="45.66454" lon="4.56968">
        <ele>784</ele>
        <time>2012-05-08T11:48:22.999Z</time>
      </trkpt>
      <trkpt lat="45.6645" lon="4.56962">
        <ele>784</ele>
        <time>2012-05-08T11:48:27.999Z</time>
      </trkpt>
      <trkpt lat="45.66446" lon="4.56957">
        <ele>784</ele>
        <time>2012-05-08T11:48:32.999Z</time>
      </trkpt>
      <trkpt lat="45.66443" lon="4.5695">
        <ele>784</ele>
        <time>2012-05-08T11:48:37.999Z</time>
      </trkpt>
      <trkpt lat="45.6644" lon="4.56944">
        <ele>784</ele>
        <time>2012-05-08T11:48:42.999Z</time>
      </trkpt>
      <trkpt lat="45.66438" lon="4.56937">
        <ele>784</ele>
        <time>2012-05-08T11:48:46.999Z</time>
      </trkpt>
      <trkpt lat="45.66437" lon="4.56931">
        <ele>785</ele>
        <time>2012-05-08T11:48:50.999Z</time>
      </trkpt>
      <trkpt lat="45.66436" lon="4.56923">
        <ele>785</ele>
        <time>2012-05-08T11:48:54.999Z</time>
      </trkpt>
      <trkpt lat="45.66435" lon="4.56917">
        <ele>785</ele>
        <time>2012-05-08T11:48:57.999Z</time>
      </trkpt>
      <trkpt lat="45.66435" lon="4.5691">
        <ele>785</ele>
        <time>2012-05-08T11:49:00.999Z</time>
      </trkpt>
      <trkpt lat="45.66435" lon="4.56903">
        <ele>785</ele>
        <time>2012-05-08T11:49:04.999Z</time>
      </trkpt>
      <trkpt lat="45.66435" lon="4.56896">
        <ele>785</ele>
        <time>2012-05-08T11:49:08.999Z</time>
      </trkpt>
      <trkpt lat="45.66434" lon="4.56889">
        <ele>785</ele>
        <time>2012-05-08T11:49:12.999Z</time>
      </trkpt>
      <trkpt lat="45.66432" lon="4.56883">
        <ele>786</ele>
        <time>2012-05-08T11:49:16.999Z</time>
      </trkpt>
      <trkpt lat="45.66431" lon="4.56877">
        <ele>786</ele>
        <time>2012-05-08T11:49:20.999Z</time>
      </trkpt>
      <trkpt lat="45.66429" lon="4.56869">
        <ele>786</ele>
        <time>2012-05-08T11:49:25.999Z</time>
      </trkpt>
      <trkpt lat="45.66427" lon="4.56862">
        <ele>786</ele>
        <time>2012-05-08T11:49:30.999Z</time>
      </trkpt>
      <trkpt lat="45.66425" lon="4.56854">
        <ele>786</ele>
        <time>2012-05-08T11:49:35.999Z</time>
      </trkpt>
      <trkpt lat="45.66425" lon="4.56847">
        <ele>786</ele>
        <time>2012-05-08T11:49:39.999Z</time>
      </trkpt>
      <trkpt lat="45.66424" lon="4.56841">
        <ele>786</ele>
        <time>2012-05-08T11:49:43.999Z</time>
      </trkpt>
      <trkpt lat="45.66423" lon="4.56833">
        <ele>786</ele>
        <time>2012-05-08T11:49:48.999Z</time>
      </trkpt>
      <trkpt lat="45.66422" lon="4.56826">
        <ele>786</ele>
        <time>2012-05-08T11:49:53.999Z</time>
      </trkpt>
      <trkpt lat="45.66421" lon="4.56819">
        <ele>786</ele>
        <time>2012-05-08T11:49:57.999Z</time>
      </trkpt>
      <trkpt lat="45.66421" lon="4.56813">
        <ele>786</ele>
        <time>2012-05-08T11:50:01.999Z</time>
      </trkpt>
      <trkpt lat="45.6642" lon="4.56806">
        <ele>786</ele>
        <time>2012-05-08T11:50:05.999Z</time>
      </trkpt>
      <trkpt lat="45.6642" lon="4.568">
        <ele>786</ele>
        <time>2012-05-08T11:50:09.999Z</time>
      </trkpt>
      <trkpt lat="45.66418" lon="4.56792">
        <ele>786</ele>
        <time>2012-05-08T11:50:14.999Z</time>
      </trkpt>
      <trkpt lat="45.66417" lon="4.56785">
        <ele>786</ele>
        <time>2012-05-08T11:50:18.999Z</time>
      </trkpt>
      <trkpt lat="45.66416" lon="4.56778">
        <ele>786</ele>
        <time>2012-05-08T11:50:22.999Z</time>
      </trkpt>
      <trkpt lat="45.66416" lon="4.56771">
        <ele>787</ele>
        <time>2012-05-08T11:50:26.999Z</time>
      </trkpt>
      <trkpt lat="45.66415" lon="4.56765">
        <ele>787</ele>
        <time>2012-05-08T11:50:30.999Z</time>
      </trkpt>
      <trkpt lat="45.66414" lon="4.56758">
        <ele>787</ele>
        <time>2012-05-08T11:50:34.999Z</time>
      </trkpt>
      <trkpt lat="45.66413" lon="4.56752">
        <ele>787</ele>
        <time>2012-05-08T11:50:38.999Z</time>
      </trkpt>
      <trkpt lat="45.66413" lon="4.56744">
        <ele>787</ele>
        <time>2012-05-08T11:50:42.999Z</time>
      </trkpt>
      <trkpt lat="45.66412" lon="4.56736">
        <ele>787</ele>
        <time>2012-05-08T11:50:46.999Z</time>
      </trkpt>
      <trkpt lat="45.66412" lon="4.56729">
        <ele>787</ele>
        <time>2012-05-08T11:50:50.999Z</time>
      </trkpt>
      <trkpt lat="45.66412" lon="4.56721">
        <ele>787</ele>
        <time>2012-05-08T11:50:54.999Z</time>
      </trkpt>
      <trkpt lat="45.66412" lon="4.56714">
        <ele>787</ele>
        <time>2012-05-08T11:50:58.999Z</time>
      </trkpt>
      <trkpt lat="45.66411" lon="4.56708">
        <ele>787</ele>
        <time>2012-05-08T11:51:02.999Z</time>
      </trkpt>
      <trkpt lat="45.66411" lon="4.567">
        <ele>787</ele>
        <time>2012-05-08T11:51:07.999Z</time>
      </trkpt>
      <trkpt lat="45.66411" lon="4.56694">
        <ele>787</ele>
        <time>2012-05-08T11:51:11.999Z</time>
      </trkpt>
      <trkpt lat="45.66412" lon="4.56686">
        <ele>787</ele>
        <time>2012-05-08T11:51:16.999Z</time>
      </trkpt>
      <trkpt lat="45.66412" lon="4.56678">
        <ele>787</ele>
        <time>2012-05-08T11:51:21.999Z</time>
      </trkpt>
      <trkpt lat="45.66411" lon="4.5667">
        <ele>787</ele>
        <time>2012-05-08T11:51:26.999Z</time>
      </trkpt>
      <trkpt lat="45.66411" lon="4.56663">
        <ele>787</ele>
        <time>2012-05-08T11:51:31.999Z</time>
      </trkpt>
      <trkpt lat="45.66411" lon="4.56657">
        <ele>787</ele>
        <time>2012-05-08T11:52:13.999Z</time>
      </trkpt>
      <trkpt lat="45.66408" lon="4.5665">
        <ele>787</ele>
        <time>2012-05-08T11:53:13.999Z</time>
      </trkpt>
      <trkpt lat="45.66405" lon="4.56644">
        <ele>787</ele>
        <time>2012-05-08T11:53:17.999Z</time>
      </trkpt>
      <trkpt lat="45.66402" lon="4.56637">
        <ele>787</ele>
        <time>2012-05-08T11:53:22.999Z</time>
      </trkpt>
      <trkpt lat="45.66399" lon="4.5663">
        <ele>787</ele>
        <time>2012-05-08T11:53:27.999Z</time>
      </trkpt>
      <trkpt lat="45.66397" lon="4.56624">
        <ele>787</ele>
        <time>2012-05-08T11:53:31.999Z</time>
      </trkpt>
      <trkpt lat="45.66394" lon="4.56618">
        <ele>787</ele>
        <time>2012-05-08T11:53:35.999Z</time>
      </trkpt>
      <trkpt lat="45.66392" lon="4.56612">
        <ele>787</ele>
        <time>2012-05-08T11:53:39.999Z</time>
      </trkpt>
      <trkpt lat="45.66391" lon="4.56605">
        <ele>787</ele>
        <time>2012-05-08T11:53:43.999Z</time>
      </trkpt>
      <trkpt lat="45.6639" lon="4.56599">
        <ele>787</ele>
        <time>2012-05-08T11:53:47.999Z</time>
      </trkpt>
      <trkpt lat="45.66388" lon="4.56592">
        <ele>787</ele>
        <time>2012-05-08T11:53:52.999Z</time>
      </trkpt>
      <trkpt lat="45.66386" lon="4.56584">
        <ele>787</ele>
        <time>2012-05-08T11:53:57.999Z</time>
      </trkpt>
      <trkpt lat="45.66383" lon="4.56578">
        <ele>787</ele>
        <time>2012-05-08T11:54:02.999Z</time>
      </trkpt>
      <trkpt lat="45.6638" lon="4.56572">
        <ele>788</ele>
        <time>2012-05-08T11:54:07.999Z</time>
      </trkpt>
      <trkpt lat="45.66377" lon="4.56566">
        <ele>788</ele>
        <time>2012-05-08T11:54:12.999Z</time>
      </trkpt>
      <trkpt lat="45.66374" lon="4.56559">
        <ele>788</ele>
        <time>2012-05-08T11:54:17.999Z</time>
      </trkpt>
      <trkpt lat="45.66371" lon="4.56553">
        <ele>788</ele>
        <time>2012-05-08T11:54:22.999Z</time>
      </trkpt>
      <trkpt lat="45.66367" lon="4.56547">
        <ele>788</ele>
        <time>2012-05-08T11:54:27.999Z</time>
      </trkpt>
      <trkpt lat="45.66364" lon="4.56542">
        <ele>788</ele>
        <time>2012-05-08T11:54:31.999Z</time>
      </trkpt>
      <trkpt lat="45.66362" lon="4.56536">
        <ele>788</ele>
        <time>2012-05-08T11:54:35.999Z</time>
      </trkpt>
      <trkpt lat="45.66359" lon="4.5653">
        <ele>788</ele>
        <time>2012-05-08T11:54:39.999Z</time>
      </trkpt>
      <trkpt lat="45.66357" lon="4.56523">
        <ele>788</ele>
        <time>2012-05-08T11:54:43.999Z</time>
      </trkpt>
      <trkpt lat="45.66355" lon="4.56516">
        <ele>788</ele>
        <time>2012-05-08T11:54:47.999Z</time>
      </trkpt>
      <trkpt lat="45.66353" lon="4.5651">
        <ele>788</ele>
        <time>2012-05-08T11:54:51.999Z</time>
      </trkpt>
      <trkpt lat="45.66351" lon="4.56502">
        <ele>788</ele>
        <time>2012-05-08T11:54:56.999Z</time>
      </trkpt>
      <trkpt lat="45.66348" lon="4.56496">
        <ele>788</ele>
        <time>2012-05-08T11:55:01.999Z</time>
      </trkpt>
      <trkpt lat="45.66346" lon="4.56489">
        <ele>789</ele>
        <time>2012-05-08T11:55:06.999Z</time>
      </trkpt>
      <trkpt lat="45.66345" lon="4.56482">
        <ele>789</ele>
        <time>2012-05-08T11:55:11.999Z</time>
      </trkpt>
      <trkpt lat="45.66344" lon="4.56476">
        <ele>789</ele>
        <time>2012-05-08T11:55:15.999Z</time>
      </trkpt>
      <trkpt lat="45.66342" lon="4.56469">
        <ele>789</ele>
        <time>2012-05-08T11:55:19.999Z</time>
      </trkpt>
      <trkpt lat="45.66341" lon="4.56462">
        <ele>789</ele>
        <time>2012-05-08T11:55:23.999Z</time>
      </trkpt>
      <trkpt lat="45.66339" lon="4.56456">
        <ele>789</ele>
        <time>2012-05-08T11:55:27.999Z</time>
      </trkpt>
      <trkpt lat="45.66338" lon="4.56449">
        <ele>789</ele>
        <time>2012-05-08T11:55:31.999Z</time>
      </trkpt>
      <trkpt lat="45.66336" lon="4.56442">
        <ele>789</ele>
        <time>2012-05-08T11:55:35.999Z</time>
      </trkpt>
      <trkpt lat="45.66335" lon="4.56435">
        <ele>789</ele>
        <time>2012-05-08T11:55:39.999Z</time>
      </trkpt>
      <trkpt lat="45.66333" lon="4.56428">
        <ele>789</ele>
        <time>2012-05-08T11:55:43.999Z</time>
      </trkpt>
      <trkpt lat="45.66333" lon="4.5642">
        <ele>789</ele>
        <time>2012-05-08T11:55:47.999Z</time>
      </trkpt>
      <trkpt lat="45.66333" lon="4.56413">
        <ele>789</ele>
        <time>2012-05-08T11:55:51.999Z</time>
      </trkpt>
      <trkpt lat="45.66332" lon="4.56407">
        <ele>789</ele>
        <time>2012-05-08T11:55:55.999Z</time>
      </trkpt>
      <trkpt lat="45.66329" lon="4.564">
        <ele>789</ele>
        <time>2012-05-08T11:55:59.999Z</time>
      </trkpt>
      <trkpt lat="45.66327" lon="4.56394">
        <ele>789</ele>
        <time>2012-05-08T11:56:03.999Z</time>
      </trkpt>
      <trkpt lat="45.66323" lon="4.56387">
        <ele>789</ele>
        <time>2012-05-08T11:56:08.999Z</time>
      </trkpt>
      <trkpt lat="45.6632" lon="4.56382">
        <ele>789</ele>
        <time>2012-05-08T11:56:12.999Z</time>
      </trkpt>
      <trkpt lat="45.66317" lon="4.56376">
        <ele>789</ele>
        <time>2012-05-08T11:56:16.999Z</time>
      </trkpt>
      <trkpt lat="45.66314" lon="4.5637">
        <ele>789</ele>
        <time>2012-05-08T11:56:20.999Z</time>
      </trkpt>
      <trkpt lat="45.66311" lon="4.56363">
        <ele>789</ele>
        <time>2012-05-08T11:56:24.999Z</time>
      </trkpt>
      <trkpt lat="45.66308" lon="4.56357">
        <ele>789</ele>
        <time>2012-05-08T11:56:28.999Z</time>
      </trkpt>
      <trkpt lat="45.66306" lon="4.56351">
        <ele>789</ele>
        <time>2012-05-08T11:56:32.999Z</time>
      </trkpt>
      <trkpt lat="45.66304" lon="4.56344">
        <ele>789</ele>
        <time>2012-05-08T11:56:37.999Z</time>
      </trkpt>
      <trkpt lat="45.66303" lon="4.56338">
        <ele>789</ele>
        <time>2012-05-08T11:56:41.999Z</time>
      </trkpt>
      <trkpt lat="45.66302" lon="4.56331">
        <ele>789</ele>
        <time>2012-05-08T11:56:45.999Z</time>
      </trkpt>
      <trkpt lat="45.663" lon="4.56324">
        <ele>789</ele>
        <time>2012-05-08T11:56:49.999Z</time>
      </trkpt>
      <trkpt lat="45.663" lon="4.56318">
        <ele>789</ele>
        <time>2012-05-08T11:56:53.999Z</time>
      </trkpt>
      <trkpt lat="45.66301" lon="4.56311">
        <ele>789</ele>
        <time>2012-05-08T11:56:57.999Z</time>
      </trkpt>
      <trkpt lat="45.66302" lon="4.56304">
        <ele>789</ele>
        <time>2012-05-08T11:57:02.999Z</time>
      </trkpt>
      <trkpt lat="45.66298" lon="4.563">
        <ele>789</ele>
        <time>2012-05-08T11:57:15.999Z</time>
      </trkpt>
      <trkpt lat="45.66297" lon="4.56293">
        <ele>789</ele>
        <time>2012-05-08T11:57:34.999Z</time>
      </trkpt>
      <trkpt lat="45.66292" lon="4.56291">
        <ele>789</ele>
        <time>2012-05-08T11:57:41.999Z</time>
      </trkpt>
      <trkpt lat="45.66288" lon="4.56294">
        <ele>789</ele>
        <time>2012-05-08T11:57:45.999Z</time>
      </trkpt>
      <trkpt lat="45.66283" lon="4.56298">
        <ele>789</ele>
        <time>2012-05-08T11:57:49.999Z</time>
      </trkpt>
      <trkpt lat="45.66279" lon="4.56302">
        <ele>789</ele>
        <time>2012-05-08T11:57:54.999Z</time>
      </trkpt>
      <trkpt lat="45.66274" lon="4.56304">
        <ele>789</ele>
        <time>2012-05-08T11:57:59.999Z</time>
      </trkpt>
      <trkpt lat="45.66268" lon="4.56305">
        <ele>789</ele>
        <time>2012-05-08T11:58:04.999Z</time>
      </trkpt>
      <trkpt lat="45.66263" lon="4.56306">
        <ele>789</ele>
        <time>2012-05-08T11:58:09.999Z</time>
      </trkpt>
      <trkpt lat="45.66258" lon="4.56307">
        <ele>789</ele>
        <time>2012-05-08T11:58:14.999Z</time>
      </trkpt>
      <trkpt lat="45.66252" lon="4.56307">
        <ele>789</ele>
        <time>2012-05-08T11:58:20.999Z</time>
      </trkpt>
      <trkpt lat="45.66248" lon="4.56307">
        <ele>789</ele>
        <time>2012-05-08T11:58:25.999Z</time>
      </trkpt>
      <trkpt lat="45.66242" lon="4.56306">
        <ele>790</ele>
        <time>2012-05-08T11:58:30.999Z</time>
      </trkpt>
      <trkpt lat="45.66238" lon="4.56306">
        <ele>790</ele>
        <time>2012-05-08T11:58:34.999Z</time>
      </trkpt>
      <trkpt lat="45.66233" lon="4.56306">
        <ele>790</ele>
        <time>2012-05-08T11:58:39.999Z</time>
      </trkpt>
      <trkpt lat="45.66227" lon="4.56306">
        <ele>790</ele>
        <time>2012-05-08T11:58:43.999Z</time>
      </trkpt>
      <trkpt lat="45.66222" lon="4.56306">
        <ele>790</ele>
        <time>2012-05-08T11:58:47.999Z</time>
      </trkpt>
      <trkpt lat="45.66217" lon="4.56306">
        <ele>790</ele>
        <time>2012-05-08T11:58:51.999Z</time>
      </trkpt>
      <trkpt lat="45.66213" lon="4.56307">
        <ele>790</ele>
        <time>2012-05-08T11:58:55.999Z</time>
      </trkpt>
      <trkpt lat="45.66208" lon="4.56308">
        <ele>790</ele>
        <time>2012-05-08T11:58:59.999Z</time>
      </trkpt>
      <trkpt lat="45.66203" lon="4.56309">
        <ele>790</ele>
        <time>2012-05-08T11:59:03.999Z</time>
      </trkpt>
      <trkpt lat="45.66198" lon="4.5631">
        <ele>790</ele>
        <time>2012-05-08T11:59:07.999Z</time>
      </trkpt>
      <trkpt lat="45.66194" lon="4.5631">
        <ele>790</ele>
        <time>2012-05-08T11:59:11.999Z</time>
      </trkpt>
      <trkpt lat="45.66188" lon="4.5631">
        <ele>790</ele>
        <time>2012-05-08T11:59:15.999Z</time>
      </trkpt>
      <trkpt lat="45.66183" lon="4.5631">
        <ele>791</ele>
        <time>2012-05-08T11:59:19.999Z</time>
      </trkpt>
      <trkpt lat="45.66178" lon="4.5631">
        <ele>791</ele>
        <time>2012-05-08T11:59:23.999Z</time>
      </trkpt>
      <trkpt lat="45.66173" lon="4.5631">
        <ele>791</ele>
        <time>2012-05-08T11:59:27.999Z</time>
      </trkpt>
      <trkpt lat="45.66167" lon="4.56312">
        <ele>791</ele>
        <time>2012-05-08T11:59:32.999Z</time>
      </trkpt>
      <trkpt lat="45.66162" lon="4.56314">
        <ele>791</ele>
        <time>2012-05-08T11:59:36.999Z</time>
      </trkpt>
      <trkpt lat="45.66157" lon="4.56317">
        <ele>791</ele>
        <time>2012-05-08T11:59:41.999Z</time>
      </trkpt>
      <trkpt lat="45.66152" lon="4.56319">
        <ele>791</ele>
        <time>2012-05-08T11:59:46.999Z</time>
      </trkpt>
      <trkpt lat="45.66147" lon="4.56321">
        <ele>791</ele>
        <time>2012-05-08T11:59:50.999Z</time>
      </trkpt>
      <trkpt lat="45.66142" lon="4.56323">
        <ele>792</ele>
        <time>2012-05-08T11:59:54.999Z</time>
      </trkpt>
      <trkpt lat="45.66136" lon="4.56325">
        <ele>792</ele>
        <time>2012-05-08T11:59:58.999Z</time>
      </trkpt>
      <trkpt lat="45.66132" lon="4.56327">
        <ele>792</ele>
        <time>2012-05-08T12:00:02.999Z</time>
      </trkpt>
      <trkpt lat="45.66128" lon="4.56329">
        <ele>792</ele>
        <time>2012-05-08T12:00:06.999Z</time>
      </trkpt>
      <trkpt lat="45.66123" lon="4.56332">
        <ele>792</ele>
        <time>2012-05-08T12:00:10.999Z</time>
      </trkpt>
      <trkpt lat="45.66118" lon="4.56335">
        <ele>792</ele>
        <time>2012-05-08T12:00:14.999Z</time>
      </trkpt>
      <trkpt lat="45.66114" lon="4.56337">
        <ele>793</ele>
        <time>2012-05-08T12:00:18.999Z</time>
      </trkpt>
      <trkpt lat="45.66109" lon="4.56339">
        <ele>793</ele>
        <time>2012-05-08T12:00:22.999Z</time>
      </trkpt>
      <trkpt lat="45.66105" lon="4.5634">
        <ele>793</ele>
        <time>2012-05-08T12:00:32.999Z</time>
      </trkpt>
      <trkpt lat="45.661" lon="4.56337">
        <ele>793</ele>
        <time>2012-05-08T12:00:37.999Z</time>
      </trkpt>
      <trkpt lat="45.66097" lon="4.56331">
        <ele>793</ele>
        <time>2012-05-08T12:00:42.999Z</time>
      </trkpt>
      <trkpt lat="45.66095" lon="4.56324">
        <ele>793</ele>
        <time>2012-05-08T12:00:47.999Z</time>
      </trkpt>
      <trkpt lat="45.66094" lon="4.56318">
        <ele>793</ele>
        <time>2012-05-08T12:00:51.999Z</time>
      </trkpt>
      <trkpt lat="45.66094" lon="4.56311">
        <ele>793</ele>
        <time>2012-05-08T12:00:55.999Z</time>
      </trkpt>
      <trkpt lat="45.66093" lon="4.56304">
        <ele>793</ele>
        <time>2012-05-08T12:01:00.999Z</time>
      </trkpt>
      <trkpt lat="45.66092" lon="4.56296">
        <ele>793</ele>
        <time>2012-05-08T12:01:05.999Z</time>
      </trkpt>
      <trkpt lat="45.66091" lon="4.5629">
        <ele>792</ele>
        <time>2012-05-08T12:01:09.999Z</time>
      </trkpt>
      <trkpt lat="45.6609" lon="4.56283">
        <ele>793</ele>
        <time>2012-05-08T12:01:14.999Z</time>
      </trkpt>
      <trkpt lat="45.66088" lon="4.56276">
        <ele>793</ele>
        <time>2012-05-08T12:01:19.999Z</time>
      </trkpt>
      <trkpt lat="45.66086" lon="4.5627">
        <ele>793</ele>
        <time>2012-05-08T12:01:23.999Z</time>
      </trkpt>
      <trkpt lat="45.66086" lon="4.56262">
        <ele>793</ele>
        <time>2012-05-08T12:01:27.999Z</time>
      </trkpt>
      <trkpt lat="45.66088" lon="4.56255">
        <ele>793</ele>
        <time>2012-05-08T12:01:30.999Z</time>
      </trkpt>
      <trkpt lat="45.66088" lon="4.56248">
        <ele>793</ele>
        <time>2012-05-08T12:01:33.999Z</time>
      </trkpt>
      <trkpt lat="45.66089" lon="4.56242">
        <ele>793</ele>
        <time>2012-05-08T12:01:36.999Z</time>
      </trkpt>
      <trkpt lat="45.6609" lon="4.56234">
        <ele>793</ele>
        <time>2012-05-08T12:01:39.999Z</time>
      </trkpt>
      <trkpt lat="45.66091" lon="4.56228">
        <ele>793</ele>
        <time>2012-05-08T12:01:42.999Z</time>
      </trkpt>
      <trkpt lat="45.66091" lon="4.5622">
        <ele>793</ele>
        <time>2012-05-08T12:01:46.999Z</time>
      </trkpt>
      <trkpt lat="45.66091" lon="4.56213">
        <ele>793</ele>
        <time>2012-05-08T12:01:50.999Z</time>
      </trkpt>
      <trkpt lat="45.66091" lon="4.56205">
        <ele>793</ele>
        <time>2012-05-08T12:01:55.999Z</time>
      </trkpt>
      <trkpt lat="45.6609" lon="4.56198">
        <ele>794</ele>
        <time>2012-05-08T12:01:59.999Z</time>
      </trkpt>
      <trkpt lat="45.66089" lon="4.56191">
        <ele>794</ele>
        <time>2012-05-08T12:02:03.999Z</time>
      </trkpt>
      <trkpt lat="45.66088" lon="4.56185">
        <ele>794</ele>
        <time>2012-05-08T12:02:07.999Z</time>
      </trkpt>
      <trkpt lat="45.66087" lon="4.56177">
        <ele>794</ele>
        <time>2012-05-08T12:02:12.999Z</time>
      </trkpt>
      <trkpt lat="45.66086" lon="4.5617">
        <ele>794</ele>
        <time>2012-05-08T12:02:17.999Z</time>
      </trkpt>
      <trkpt lat="45.66085" lon="4.56163">
        <ele>793</ele>
        <time>2012-05-08T12:02:21.999Z</time>
      </trkpt>
      <trkpt lat="45.66084" lon="4.56156">
        <ele>793</ele>
        <time>2012-05-08T12:02:25.999Z</time>
      </trkpt>
      <trkpt lat="45.66083" lon="4.5615">
        <ele>793</ele>
        <time>2012-05-08T12:02:29.999Z</time>
      </trkpt>
      <trkpt lat="45.66082" lon="4.56143">
        <ele>793</ele>
        <time>2012-05-08T12:02:33.999Z</time>
      </trkpt>
      <trkpt lat="45.66081" lon="4.56136">
        <ele>793</ele>
        <time>2012-05-08T12:02:38.999Z</time>
      </trkpt>
      <trkpt lat="45.6608" lon="4.56128">
        <ele>792</ele>
        <time>2012-05-08T12:02:43.999Z</time>
      </trkpt>
      <trkpt lat="45.6608" lon="4.56121">
        <ele>792</ele>
        <time>2012-05-08T12:02:48.999Z</time>
      </trkpt>
      <trkpt lat="45.66079" lon="4.56114">
        <ele>792</ele>
        <time>2012-05-08T12:02:56.999Z</time>
      </trkpt>
      <trkpt lat="45.66076" lon="4.56108">
        <ele>792</ele>
        <time>2012-05-08T12:03:02.999Z</time>
      </trkpt>
      <trkpt lat="45.66072" lon="4.56102">
        <ele>792</ele>
        <time>2012-05-08T12:03:07.999Z</time>
      </trkpt>
      <trkpt lat="45.66069" lon="4.56095">
        <ele>792</ele>
        <time>2012-05-08T12:03:11.999Z</time>
      </trkpt>
      <trkpt lat="45.66066" lon="4.56089">
        <ele>792</ele>
        <time>2012-05-08T12:03:15.999Z</time>
      </trkpt>
      <trkpt lat="45.66063" lon="4.56083">
        <ele>792</ele>
        <time>2012-05-08T12:03:19.999Z</time>
      </trkpt>
      <trkpt lat="45.6606" lon="4.56077">
        <ele>792</ele>
        <time>2012-05-08T12:03:23.999Z</time>
      </trkpt>
      <trkpt lat="45.66055" lon="4.56071">
        <ele>792</ele>
        <time>2012-05-08T12:03:27.999Z</time>
      </trkpt>
      <trkpt lat="45.66052" lon="4.56065">
        <ele>793</ele>
        <time>2012-05-08T12:03:31.999Z</time>
      </trkpt>
      <trkpt lat="45.66052" lon="4.56057">
        <ele>793</ele>
        <time>2012-05-08T12:03:35.999Z</time>
      </trkpt>
      <trkpt lat="45.66051" lon="4.5605">
        <ele>793</ele>
        <time>2012-05-08T12:03:39.999Z</time>
      </trkpt>
      <trkpt lat="45.6605" lon="4.56042">
        <ele>793</ele>
        <time>2012-05-08T12:03:44.999Z</time>
      </trkpt>
      <trkpt lat="45.66049" lon="4.56035">
        <ele>793</ele>
        <time>2012-05-08T12:03:49.999Z</time>
      </trkpt>
      <trkpt lat="45.66048" lon="4.56027">
        <ele>793</ele>
        <time>2012-05-08T12:03:54.999Z</time>
      </trkpt>
      <trkpt lat="45.66046" lon="4.5602">
        <ele>793</ele>
        <time>2012-05-08T12:03:59.999Z</time>
      </trkpt>
      <trkpt lat="45.66041" lon="4.56018">
        <ele>793</ele>
        <time>2012-05-08T12:04:04.999Z</time>
      </trkpt>
      <trkpt lat="45.66037" lon="4.56017">
        <ele>793</ele>
        <time>2012-05-08T12:04:08.999Z</time>
      </trkpt>
      <trkpt lat="45.66031" lon="4.56018">
        <ele>793</ele>
        <time>2012-05-08T12:04:13.999Z</time>
      </trkpt>
      <trkpt lat="45.66026" lon="4.56019">
        <ele>793</ele>
        <time>2012-05-08T12:04:18.999Z</time>
      </trkpt>
      <trkpt lat="45.66022" lon="4.56017">
        <ele>793</ele>
        <time>2012-05-08T12:04:23.999Z</time>
      </trkpt>
      <trkpt lat="45.66018" lon="4.56014">
        <ele>793</ele>
        <time>2012-05-08T12:04:28.999Z</time>
      </trkpt>
      <trkpt lat="45.66014" lon="4.5601">
        <ele>793</ele>
        <time>2012-05-08T12:04:33.999Z</time>
      </trkpt>
      <trkpt lat="45.6601" lon="4.56004">
        <ele>792</ele>
        <time>2012-05-08T12:04:38.999Z</time>
      </trkpt>
      <trkpt lat="45.66006" lon="4.55999">
        <ele>792</ele>
        <time>2012-05-08T12:04:44.999Z</time>
      </trkpt>
      <trkpt lat="45.66005" lon="4.55993">
        <ele>792</ele>
        <time>2012-05-08T12:05:12.999Z</time>
      </trkpt>
    </trkseg>
  </trk>
</gpx>